[[{"header":{"parameterUnit":"m.s-1","parameterCategory":1,"la1":31.0,"la2":29.5877,"lo1":-88.7671,"lo2":-86.6584,"dx":0.0162,"dy":0.0185,"nx":115,"ny":88,"refTime":"2022-12-07T18:00:00:Z","depth":0,"parameterNumber":2,"parameterNumberName":"U-component_of_WINDS"},"data":[0.0,0.0,0.0,0.0,0.0,0.0,0.0,0.0,0.0,0.0,0.0,0.0,0.0,0.0,0.0,0.0,0.0,0.0,0.0,0.0,0.0,0.0,0.0,0.0,0.0,0.0,0.0,0.0,0.0,0.0,0.0,0.0,0.0,0.0,0.0,0.0,0.0,0.0,0.0,0.0,0.0,0.0,0.0,0.0,0.0,0.0,0.0,0.0,0.0,0.0,0.0,0.0,0.0,0.0,0.0,0.0,0.0,0.0,0.0,0.0,0.0,0.0,0.0,0.0,0.0,0.0,0.0,0.0,0.0,0.0,0.0,0.0,0.0,0.0,0.0,0.0,0.0,0.0,0.0,0.0,0.0,0.0,0.0,0.0,0.0,0.0,0.0,0.0,0.0,0.0,0.0,0.0,0.0,0.0,0.0,0.0,0.0,0.0,0.0,0.0,0.0,0.0,0.0,0.0,0.0,0.0,0.0,0.0,0.0,0.0,0.0,0.0,0.0,0.0,0.0,0.0,0.0,0.0,0.0,0.0,0.0,0.0,0.0,0.0,0.0,0.0,0.0,0.0,0.0,0.0,0.0,0.0,0.0,0.0,0.0,0.0,0.0,0.0,0.0,0.0,0.0,0.0,0.0,0.0,0.0,0.0,0.0,0.0,0.0,0.0,0.0,0.0,0.0,0.0,0.0,0.0,0.0,0.0,0.0,0.0,0.0,0.0,0.0,0.0,0.0,0.0,0.0,0.0,0.0,0.0,0.0,0.0,0.0,0.0,0.0,0.0,0.0,0.0,0.0,0.0,0.0,0.0,0.0,0.0,0.0,0.0,0.0,0.0,0.0,0.0,0.0,0.0,0.0,0.0,0.0,0.0,0.0,0.0,0.0,0.0,0.0,0.0,0.0,0.0,0.0,0.0,0.0,0.0,0.0,0.0,0.0,0.0,0.0,0.0,0.0,0.0,0.0,0.0,0.0,0.0,0.0,0.0,0.0,0.0,0.0,0.0,0.0,0.0,0.0,0.0,0.0,0.0,0.0,0.0,0.0,0.0,0.0,0.0,0.0,0.0,0.0,0.0,0.0,0.0,0.0,0.0,0.0,0.0,0.0,0.0,0.0,0.0,0.0,0.0,0.0,0.0,0.0,0.0,0.0,0.0,0.0,0.0,0.0,0.0,0.0,0.0,0.0,0.0,0.0,0.0,0.0,0.0,0.0,0.0,0.0,0.0,0.0,0.0,0.0,0.0,0.0,0.0,0.0,0.0,0.0,0.0,0.0,0.0,0.0,0.0,0.0,0.0,0.0,0.0,0.0,0.0,0.0,0.0,0.0,0.0,0.0,0.0,0.0,0.0,0.0,0.0,0.0,0.0,0.0,0.0,0.0,0.0,0.0,0.0,0.0,0.0,0.0,0.0,0.0,0.0,0.0,0.0,0.0,0.0,0.0,0.0,0.0,0.0,0.0,0.0,0.0,0.0,0.0,0.0,0.0,0.0,0.0,0.0,0.0,0.0,0.0,0.0,0.0,0.0,0.0,0.0,0.0,0.0,0.0,0.0,0.0,0.0,0.0,0.0,0.0,0.0,0.0,0.0,0.0,0.0,0.0,0.0,0.0,0.0,0.0,0.0,0.0,0.0,0.0,0.0,0.0,0.0,0.0,0.0,0.0,0.0,0.0,0.0,0.0,0.0,0.0,0.0,0.0,0.0,0.0,0.0,0.0,0.0,0.0,0.0,0.0,0.0,0.0,0.0,0.0,0.0,0.0,0.0,0.0,0.0,0.0,0.0,0.0,0.0,0.0,0.0,0.0,0.0,0.0,0.0,0.0,0.0,0.0,0.0,0.0,0.0,0.0,0.0,0.0,0.0,0.0,0.0,0.0,0.0,0.0,0.0,0.0,0.0,0.0,0.0,0.0,0.0,0.0,0.0,0.0,0.0,0.0,0.0,0.0,0.0,0.0,0.0,0.0,0.0,0.0,0.0,0.0,0.0,0.0,0.0,0.0,0.0,0.0,0.0,0.0,0.0,0.0,0.0,0.0,0.0,0.0,0.0,0.0,0.0,0.0,0.0,0.0,0.0,0.0,0.0,0.0,0.0,0.0,0.0,0.0,0.0,0.0,0.0,0.0,0.0,0.0,0.0,0.0,0.0,0.0,0.0,0.0,0.0,0.0,0.0,0.0,0.0,0.0,0.0,0.0,0.0,0.0,0.0,0.0,0.0,0.0,0.0,0.0,0.0,0.0,0.0,0.0,0.0,0.0,0.0,0.0,0.0,0.0,0.0,0.0,0.0,0.0,0.0,0.0,0.0,0.0,0.0,0.0,0.0,0.0,0.0,0.0,0.0,0.0,0.0,0.0,0.0,0.0,0.0,0.0,0.0,0.0,0.0,0.0,0.0,0.0,0.0,0.0,0.0,0.0,0.0,0.0,0.0,0.0,0.0,0.0,0.0,0.0,0.0,0.0,0.0,0.0,0.0,0.0,0.0,0.0,0.0,0.0,0.0,0.0,0.0,0.0,0.0,0.0,0.0,0.0,0.0,0.0,0.0,0.0,0.0,0.0,0.0,0.0,0.0,0.0,0.0,0.0,0.0,0.0,0.0,0.0,0.0,0.0,0.0,0.0,0.0,0.0,0.0,0.0,0.0,0.0,0.0,0.0,0.0,0.0,0.0,0.0,0.0,0.0,0.0,0.0,0.0,0.0,0.0,0.0,0.0,0.0,0.0,0.0,0.0,0.0,0.0,0.0,0.0,0.0,0.0,0.0,0.0,0.0,0.0,0.0,0.0,0.0,0.0,0.0,0.0,0.0,0.0,0.0,0.0,0.0,0.0,0.0,0.0,0.0,0.0,0.0,0.0,0.0,0.0,0.0,0.0,0.0,0.0,0.0,0.0,0.0,0.0,0.0,0.0,0.0,0.0,0.0,0.0,0.0,0.0,0.0,0.0,0.0,0.0,0.0,0.0,0.0,0.0,0.0,0.0,0.0,0.0,0.0,0.0,0.0,0.0,0.0,0.0,0.0,0.0,0.0,0.0,0.0,0.0,0.0,0.0,0.0,0.0,0.0,0.0,0.0,0.0,0.0,0.0,0.0,0.0,0.0,0.0,0.0,0.0,0.0,0.0,0.0,0.0,0.0,0.0,0.0,0.0,0.0,0.0,0.0,0.0,0.0,0.0,0.0,0.0,0.0,0.0,0.0,0.0,0.0,0.0,0.0,0.0,0.0,0.0,0.0,0.0,0.0,0.0,0.0,0.0,0.0,0.0,0.0,0.0,0.0,0.0,0.0,0.0,0.0,0.0,0.0,0.0,0.0,0.0,0.0,0.0,0.0,0.0,0.0,0.0,0.0,0.0,0.0,0.0,0.0,0.0,0.0,0.0,0.0,0.0,0.0,0.0,0.0,0.0,0.0,0.0,0.0,0.0,0.0,0.0,0.0,0.0,0.0,0.0,0.0,0.0,0.0,0.0,0.0,0.0,0.0,0.0,0.0,0.0,0.0,0.0,0.0,0.0,0.0,0.0,0.0,0.0,0.0,0.0,0.0,0.0,0.0,0.0,0.0,0.0,0.0,0.0,0.0,0.0,0.0,0.0,0.0,0.0,0.0,0.0,0.0,0.0,0.0,0.0,0.0,0.0,0.0,0.0,0.0,0.0,0.0,0.0,0.0,0.0,0.0,0.0,0.0,0.0,0.0,0.0,0.0,0.0,0.0,0.0,0.0,0.0,0.0,0.0,0.0,0.0,0.0,0.0,0.0,0.0,0.0,0.0,0.0,0.0,0.0,0.0,0.0,0.0,0.0,0.0,0.0,0.0,0.0,0.0,0.0,0.0,0.0,0.0,0.0,0.0,0.0,0.0,0.0,0.0,0.0,0.0,0.0,0.0,0.0,0.0,0.0,0.0,0.0,0.0,0.0,0.0,0.0,0.0,0.0,0.0,0.0,0.0,0.0,0.0,0.0,0.0,0.0,0.0,0.0,0.0,0.0,0.0,0.0,0.0,0.0,0.0,0.0,0.0,0.0,0.0,0.0,0.0,0.0,0.0,0.0,0.0,0.0,0.0,0.0,0.0,0.0,0.0,0.0,0.0,0.0,0.0,0.0,0.0,0.0,0.0,0.0,0.0,0.0,0.0,0.0,0.0,0.0,0.0,0.0,0.0,0.0,0.0,0.0,0.0,0.0,0.0,0.0,0.0,0.0,0.0,0.0,0.0,0.0,0.0,0.0,0.0,0.0,0.0,0.0,0.0,0.0,0.0,0.0,0.0,1.6533,0.0,0.0,0.0,1.3872,0.0,0.0,0.0,0.0,0.0,0.0,0.0,0.0,0.0,0.0,0.0,0.0,0.0,0.0,0.0,0.0,0.0,0.0,0.0,0.0,0.0,0.0,0.0,0.0,0.0,0.0,0.0,0.0,0.0,0.0,0.0,0.0,0.0,0.0,0.0,0.0,0.0,0.0,0.0,0.0,0.0,0.0,0.0,0.0,0.0,0.0,0.0,0.0,0.0,0.0,0.0,0.0,0.0,0.0,0.0,0.0,0.0,0.0,0.0,0.0,0.0,0.0,0.0,0.0,0.0,0.0,0.0,0.0,0.0,0.0,0.0,0.0,0.0,0.0,0.0,0.0,0.0,0.0,0.0,0.0,0.0,0.0,0.0,0.0,0.0,0.0,0.0,0.0,0.0,0.0,0.0,0.0,0.0,0.0,0.0,0.0,0.0,0.0,0.0,0.0,0.0,0.0,0.0,0.0,0.0,0.0,0.0,0.0,0.0,0.0,1.6588,1.5941,1.5416,1.4765,1.4066,0.0,0.0,0.0,0.0,0.0,0.0,0.0,0.0,0.0,0.0,0.0,0.0,0.0,0.0,0.0,0.0,0.0,0.0,0.0,0.0,0.0,0.0,0.0,0.0,0.0,0.0,0.0,0.0,0.0,0.0,0.0,0.0,0.0,0.0,0.0,0.0,0.0,0.0,0.0,0.0,0.0,0.0,0.0,0.0,0.0,0.0,0.0,0.0,0.0,0.0,0.0,0.0,0.0,0.0,0.0,0.0,0.0,0.0,0.0,0.0,0.0,0.0,0.0,0.0,0.0,0.0,0.0,0.0,0.0,0.0,0.0,0.0,0.0,0.0,0.0,0.0,0.0,0.0,0.0,0.0,0.0,0.0,0.0,0.0,0.0,0.0,0.0,0.0,0.0,0.0,0.0,0.0,0.0,0.0,0.0,0.0,0.0,0.0,0.0,0.0,0.0,0.0,0.0,0.0,0.0,0.0,0.0,0.0,0.0,0.0,0.0,0.0,1.5449,1.4854,1.4204,0.0,0.0,0.0,0.0,0.0,0.0,0.0,0.0,0.0,0.0,0.0,0.0,0.0,0.0,0.0,0.0,0.0,0.0,0.0,0.0,0.0,0.0,0.0,0.0,0.0,0.0,0.0,0.0,0.0,0.0,0.0,0.0,0.0,0.0,0.0,0.0,0.0,0.0,0.0,0.0,0.0,0.0,0.0,0.0,0.0,0.0,0.0,0.0,0.0,0.0,0.0,0.0,0.0,0.0,0.0,0.0,0.0,0.0,0.0,0.0,0.0,0.0,0.0,0.0,0.0,0.0,0.0,0.0,0.0,0.0,0.0,0.0,0.0,0.0,0.0,0.0,0.0,0.0,0.0,0.0,0.0,0.0,0.0,0.0,0.0,0.0,0.0,0.0,0.0,0.0,0.0,0.0,0.0,0.0,0.0,0.0,0.0,0.0,0.0,0.0,0.0,0.0,0.0,0.0,0.0,0.0,0.0,0.0,0.0,0.0,1.6259,1.5914,1.569,0.0,1.449,0.0,0.0,0.0,0.0,0.0,0.0,0.0,0.0,0.0,0.0,0.0,0.0,0.0,0.0,0.0,0.0,0.0,0.0,0.0,0.0,0.0,0.0,0.0,0.0,0.0,0.0,0.0,0.0,0.0,0.0,0.0,0.0,0.0,0.0,0.0,0.0,0.0,0.0,0.0,0.0,0.0,0.0,0.0,0.0,0.0,0.0,0.0,0.0,0.0,0.0,0.0,0.0,0.0,0.0,0.0,0.0,0.0,0.0,0.0,0.0,0.0,0.0,0.0,0.0,0.0,0.0,0.0,0.0,0.0,0.0,0.0,0.0,0.0,0.0,0.0,0.0,0.0,0.0,0.0,0.0,0.0,0.0,0.0,0.0,0.0,0.0,0.0,0.0,0.0,0.0,0.0,0.0,0.0,0.0,0.0,0.0,0.0,0.0,0.0,0.0,0.0,0.0,0.0,0.0,0.0,0.0,0.0,0.0,0.0,0.0,1.5894,1.5381,1.4725,1.4412,0.0,0.0,0.0,0.0,0.0,0.0,0.0,0.0,0.0,0.0,0.0,0.0,0.0,0.0,0.0,0.0,0.0,0.0,0.0,0.0,0.0,0.0,0.0,0.0,0.0,0.0,0.0,0.0,0.0,0.0,0.0,0.0,0.0,0.0,0.0,0.0,0.0,0.0,0.0,0.0,0.0,0.0,0.0,0.0,0.0,0.0,0.0,0.0,0.0,0.0,0.0,0.0,0.0,0.0,0.0,0.0,0.0,0.0,0.0,0.0,0.0,0.0,0.0,0.0,0.0,0.0,0.0,0.0,0.0,0.0,0.0,0.0,0.0,0.0,0.0,0.0,0.0,0.0,0.0,0.0,0.0,0.0,0.0,0.0,0.0,0.0,0.0,0.0,0.0,0.0,0.0,0.0,0.0,0.0,0.0,0.0,0.0,0.0,0.0,0.0,0.0,0.0,0.0,0.0,0.0,0.0,0.0,0.0,0.0,0.0,1.2999,1.1709,0.9302,0.8567,0.9235,1.1208,0.0,0.0,0.0,0.0,0.0,0.0,0.0,0.0,0.0,0.0,0.0,0.0,0.0,0.0,0.0,0.0,0.0,0.0,0.0,0.0,0.0,0.0,0.0,0.0,0.0,0.0,0.0,0.0,0.0,0.0,0.0,0.0,0.0,0.0,0.0,0.0,0.0,0.0,0.0,0.0,0.0,0.0,0.0,0.0,0.0,0.0,0.0,0.0,0.0,0.0,0.0,0.0,0.0,0.0,0.0,0.0,0.0,0.0,0.0,0.0,0.0,0.0,0.0,0.0,0.0,0.0,0.0,0.0,0.0,0.0,0.0,0.0,0.0,0.0,0.0,0.0,0.0,0.0,0.0,0.0,0.0,0.0,0.0,0.0,0.0,0.0,0.0,0.0,0.0,0.0,0.0,0.0,0.0,0.0,0.0,0.0,0.0,0.0,0.0,0.0,0.0,0.0,0.0,0.0,0.0,0.0,0.0,0.0,0.6278,0.5566,0.1966,-0.461,-0.4815,-0.1984,0.0,0.0,0.0,0.0,0.0,0.0,0.0,0.0,0.0,0.0,0.0,0.0,0.0,0.0,0.0,0.0,0.0,0.0,0.0,0.0,0.0,0.0,0.0,0.0,0.0,0.0,0.0,0.0,0.0,0.0,0.0,0.0,0.0,0.0,0.0,0.0,0.0,0.0,0.0,0.0,0.0,0.0,0.0,0.0,0.0,0.0,0.0,0.0,0.0,0.0,0.0,0.0,0.0,0.0,0.0,0.0,0.0,0.0,0.0,0.0,0.0,0.0,0.0,0.0,0.0,0.0,0.0,0.0,0.0,0.0,0.0,0.0,0.0,0.0,0.0,0.0,0.0,0.0,0.0,0.0,0.0,0.0,0.0,0.0,0.0,0.0,0.0,0.0,0.0,0.0,0.0,0.0,0.0,0.0,0.0,0.0,0.0,0.0,0.0,0.0,0.0,0.0,0.0,0.0,0.0,0.0,0.0,0.0,0.0,0.4848,-0.0096,-0.3978,-0.6544,-0.6748,-0.5433,0.0,0.0,0.0,0.0,0.0,0.0,0.0,0.0,0.0,0.0,0.0,0.0,0.0,0.0,0.0,0.0,0.0,0.0,0.0,0.0,0.0,0.0,0.0,0.0,0.0,0.0,0.0,0.0,0.0,0.0,0.0,0.0,0.0,0.0,0.0,0.0,0.0,0.0,0.0,0.0,0.0,0.0,0.0,0.0,0.0,0.0,0.0,0.0,0.0,0.0,0.0,0.0,0.0,0.0,0.0,0.0,0.0,0.0,0.0,0.0,0.0,0.0,0.0,0.0,0.0,0.0,0.0,0.0,0.0,0.0,0.0,0.0,0.0,0.0,0.0,0.0,0.0,0.0,0.0,0.0,0.0,0.0,0.0,0.0,0.0,0.0,0.0,0.0,0.0,0.0,0.0,0.0,0.0,0.0,0.0,0.0,0.0,0.0,0.0,0.0,0.0,0.0,0.0,0.0,0.0,0.0,0.0,0.0,0.0,-0.2406,-0.9884,-1.3802,-1.3809,-1.384,-1.2438,0.0,0.0,0.0,0.0,0.0,0.0,0.0,0.0,0.0,0.0,0.0,0.0,0.0,0.0,0.0,0.0,0.0,0.0,0.0,0.0,0.0,0.0,0.0,0.0,0.0,0.0,0.0,0.0,0.0,0.0,0.0,0.0,0.0,0.0,0.0,0.0,0.0,0.0,0.0,0.0,0.0,0.0,0.0,0.0,0.0,0.0,0.0,0.0,0.0,0.0,0.0,0.0,0.0,0.0,0.0,0.0,0.0,0.0,0.0,0.0,0.0,0.0,0.0,0.0,0.0,0.0,0.0,0.0,0.0,0.0,0.0,0.0,0.0,0.0,0.0,0.0,0.0,0.0,0.0,0.0,0.0,0.0,0.0,0.0,0.0,0.0,0.0,0.0,0.0,0.0,0.0,0.0,0.0,0.0,0.0,0.0,0.0,0.0,0.0,0.0,0.0,0.0,0.0,0.0,0.0,0.0,0.0,0.0,-0.2125,-1.6653,-2.393,-2.7166,-2.8021,-2.6782,-2.3528,0.0,0.0,0.0,0.0,0.0,0.0,0.0,0.0,0.0,0.0,0.0,0.0,0.0,0.0,0.0,0.0,0.0,0.0,0.0,0.0,0.0,0.0,0.0,0.0,0.0,0.0,0.0,0.0,0.0,0.0,0.0,0.0,0.0,0.0,0.0,0.0,0.0,0.0,0.0,0.0,0.0,0.0,0.0,0.0,0.0,0.0,0.0,0.0,0.0,0.0,0.0,0.0,0.0,0.0,0.0,0.0,0.0,0.0,0.0,0.0,0.0,0.0,0.0,0.0,0.0,0.0,0.0,0.0,0.0,0.0,0.0,0.0,0.0,0.0,0.0,0.0,0.0,0.0,0.0,0.0,0.0,0.0,0.0,0.0,0.0,0.0,0.0,0.0,0.0,0.0,0.0,0.0,0.0,0.0,0.0,0.0,0.0,0.0,0.0,0.0,0.0,0.0,0.0,0.0,0.0,0.0,0.0,0.0,0.0,-2.4564,-2.7183,-2.8448,-2.8525,-2.8206,-2.6437,0.0,0.0,0.0,0.0,0.0,0.0,0.0,0.0,0.0,0.0,0.0,0.0,0.0,0.0,0.0,0.0,0.0,0.0,0.0,0.0,0.0,0.0,0.0,0.0,0.0,0.0,0.0,0.0,0.0,0.0,0.0,0.0,0.0,0.0,0.0,0.0,0.0,0.0,0.0,0.0,0.0,0.0,0.0,0.0,0.0,0.0,0.0,0.0,0.0,0.0,0.0,0.0,0.0,0.0,0.0,0.0,0.0,0.0,0.0,0.0,0.0,0.0,0.0,0.0,0.0,0.0,0.0,0.0,0.0,0.0,0.0,0.0,0.0,0.0,0.0,0.0,0.0,0.0,0.0,0.0,0.0,0.0,0.0,0.0,0.0,0.0,0.0,0.0,0.0,0.0,0.0,0.0,0.0,0.0,0.0,0.0,0.0,0.0,0.0,0.0,0.0,0.0,0.0,0.0,0.0,0.0,0.0,0.0,0.0,-2.9352,-2.9381,-2.9308,-2.9373,-2.8943,-2.7864,-2.6105,0.0,0.0,0.0,0.0,0.0,0.0,0.0,0.0,0.0,0.0,0.0,0.0,0.0,0.0,0.0,0.0,0.0,0.0,0.0,0.0,0.0,0.0,0.0,0.0,0.0,0.0,0.0,0.0,0.0,0.0,0.0,0.0,0.0,0.0,0.0,0.0,0.0,0.0,0.0,0.0,0.0,0.0,0.0,0.0,0.0,0.0,0.0,0.0,0.0,0.0,0.0,0.0,0.0,0.0,0.0,0.0,0.0,0.0,0.0,0.0,0.0,0.0,0.0,0.0,0.0,0.0,0.0,0.0,0.0,0.0,0.0,0.0,0.0,0.0,0.0,0.0,0.0,0.0,0.0,0.0,0.0,0.0,0.0,0.0,0.0,0.0,0.0,0.0,0.0,0.0,0.0,0.0,0.0,0.0,0.0,0.0,0.0,0.0,0.0,0.0,0.0,0.0,0.0,0.0,0.0,0.0,0.0,0.0,-3.1778,-3.0995,-3.0572,-3.0501,-2.9632,-2.8276,0.0,0.0,0.0,0.0,0.0,0.0,0.0,0.0,0.0,0.0,0.0,0.0,0.0,0.0,0.0,0.0,0.0,0.0,0.0,0.0,0.0,0.0,0.0,0.0,0.0,0.0,0.0,0.0,0.0,0.0,0.0,0.0,0.0,0.0,0.0,0.0,0.0,0.0,0.0,0.0,0.0,0.0,0.0,0.0,0.0,0.0,0.0,0.0,0.0,0.0,0.0,0.0,0.0,0.0,0.0,0.0,0.0,0.0,0.0,0.0,0.0,0.0,0.0,0.0,0.0,0.0,0.0,0.0,0.0,0.0,0.0,0.0,0.0,0.0,0.0,0.0,0.0,0.0,0.0,0.0,0.0,0.0,0.0,0.0,0.0,0.0,0.0,0.0,0.0,0.0,0.0,0.0,0.0,0.0,0.0,0.0,0.0,0.0,0.0,0.0,0.0,0.0,0.0,0.0,0.0,0.0,0.0,0.0,0.0,-3.2951,-3.29,-3.2165,-3.0846,-3.0406,-2.9344,0.0,0.0,0.0,0.0,0.0,0.0,0.0,0.0,0.0,0.0,0.0,0.0,0.0,0.0,0.0,0.0,0.0,0.0,0.0,0.0,0.0,0.0,0.0,0.0,0.0,0.0,0.0,0.0,0.0,0.0,0.0,0.0,0.0,0.0,0.0,0.0,0.0,0.0,0.0,0.0,0.0,0.0,0.0,0.0,0.0,0.0,0.0,0.0,0.0,0.0,0.0,0.0,0.0,0.0,0.0,0.0,0.0,0.0,0.0,0.0,0.0,0.0,0.0,0.0,0.0,0.0,0.0,0.0,0.0,0.0,0.0,0.0,0.0,0.0,0.0,0.0,0.0,0.0,0.0,0.0,0.0,0.0,0.0,0.0,0.0,0.0,0.0,0.0,0.0,0.0,0.0,0.0,0.0,0.0,0.0,0.0,0.0,0.0,0.0,0.0,0.0,0.0,0.0,0.0,0.0,0.0,0.0,0.0,-3.2863,-3.3977,-3.4206,-3.3635,-3.2162,-3.1242,-2.9864,0.0,0.0,0.0,0.0,0.0,0.0,0.0,0.0,0.0,0.0,0.0,0.0,0.0,0.0,0.0,0.0,0.0,0.0,0.0,0.0,0.0,0.0,0.0,0.0,0.0,0.0,0.0,0.0,0.0,0.0,0.0,0.0,0.0,0.0,0.0,0.0,0.0,0.0,0.0,0.0,0.0,0.0,0.0,0.0,0.0,0.0,0.0,0.0,0.0,0.0,0.0,0.0,0.0,0.0,0.0,0.0,0.0,0.0,0.0,0.0,0.0,0.0,0.0,0.0,0.0,0.0,0.0,0.0,0.0,0.0,0.0,0.0,0.0,0.0,0.0,0.0,0.0,0.0,0.0,0.0,0.0,0.0,0.0,0.0,0.0,0.0,0.0,0.0,0.0,0.0,0.0,0.0,0.0,0.0,0.0,0.0,0.0,0.0,0.0,0.0,0.0,0.0,0.0,0.0,0.0,0.0,0.0,0.0,-3.3746,-3.4735,-3.5037,-3.4761,-3.3815,-3.2069,-3.0246,0.0,0.0,0.0,0.0,0.0,0.0,0.0,0.0,0.0,0.0,0.0,0.0,0.0,0.0,0.0,0.0,0.0,0.0,0.0,0.0,0.0,0.0,0.0,0.0,0.0,0.0,0.0,0.0,0.0,0.0,0.0,0.0,0.0,0.0,0.0,0.0,0.0,0.0,0.0,0.0,0.0,0.0,0.0,0.0,0.0,0.0,0.0,0.0,0.0,0.0,0.0,0.0,0.0,0.0,0.0,0.0,0.0,0.0,0.0,0.0,0.0,0.0,0.0,0.0,0.0,0.0,0.0,0.0,0.0,0.0,0.0,0.0,0.0,0.0,0.0,0.0,0.0,0.0,0.0,0.0,0.0,0.0,0.0,0.0,0.0,0.0,0.0,0.0,0.0,0.0,0.0,0.0,0.0,0.0,0.0,0.0,0.0,0.0,0.0,0.0,0.0,0.0,0.0,0.0,0.0,0.0,0.0,0.0,-3.407,-3.5081,-3.5152,-3.4802,-3.3983,-3.2708,-3.1487,0.0,0.0,0.0,0.0,0.0,0.0,0.0,0.0,0.0,0.0,0.0,0.0,0.0,0.0,0.0,0.0,0.0,0.0,0.0,0.0,0.0,0.0,0.0,0.0,0.0,0.0,0.0,0.0,0.0,0.0,0.0,0.0,0.0,0.0,0.0,0.0,0.0,0.0,0.0,0.0,0.0,0.0,0.0,0.0,0.0,0.0,0.0,0.0,0.8247,0.0,0.0,0.0,0.0,0.0,0.0,0.0,0.0,0.0,0.0,0.0,0.0,0.0,0.0,0.0,0.0,0.0,0.0,0.0,0.0,0.0,0.0,0.0,0.0,0.0,0.0,0.0,0.0,0.0,0.0,0.0,0.0,0.0,0.0,0.0,0.0,0.0,0.0,0.0,0.0,0.0,0.0,0.0,0.0,0.0,0.0,0.0,0.0,0.0,0.0,0.0,0.0,0.0,0.0,0.0,0.0,0.0,0.0,0.0,-3.4628,-3.5162,-3.5181,-3.499,-3.4534,-3.3123,-3.1883,0.0,0.0,0.0,0.0,0.0,0.0,0.0,0.0,0.0,0.0,0.0,0.0,0.0,0.0,0.0,0.0,0.0,0.0,0.0,0.0,0.0,0.0,0.0,0.0,0.0,0.0,0.0,0.0,0.0,0.0,0.0,0.0,0.0,0.0,0.0,0.0,0.0,0.0,0.0,0.0,0.0,0.0,0.0,0.0,0.0,0.0,0.0,0.0,0.0,0.0,0.0,0.0,0.0,0.0,0.0,0.0,0.0,0.0,0.0,0.0,0.0,0.0,0.0,0.0,0.0,0.0,0.0,0.0,0.0,0.0,0.0,0.0,0.0,0.0,0.0,0.0,0.0,0.0,0.0,0.0,0.0,0.0,0.0,0.0,0.0,0.0,0.0,0.0,0.0,0.0,0.0,0.0,0.0,0.0,0.0,0.0,0.0,0.0,0.0,0.0,0.0,0.0,0.0,0.0,0.0,0.0,0.0,-3.4143,-3.5124,-3.5081,-3.52,-3.5189,-3.5012,-3.346,-3.2109,-3.1014,0.0,0.0,0.0,0.0,0.0,0.0,0.0,0.0,0.0,0.0,0.0,0.0,0.0,0.0,0.0,0.0,0.0,0.0,0.0,0.0,0.0,0.0,0.0,0.0,0.0,0.0,0.0,0.0,0.0,0.0,0.0,0.0,0.0,0.0,0.0,0.0,0.0,0.0,1.2404,1.1936,0.0,0.0,0.0,0.0,0.0,0.0,0.0,0.0,0.6937,0.0,0.0,0.0,0.0,0.0,0.0,0.0,0.0,0.0,0.0,0.0,0.0,0.0,0.0,0.0,0.0,0.0,0.0,0.0,0.0,0.0,0.0,0.0,0.0,0.0,0.0,0.0,0.0,0.0,0.0,0.0,0.0,0.0,0.0,0.0,0.0,0.0,0.0,0.0,0.0,0.0,0.0,0.0,0.0,0.0,0.0,0.0,0.0,0.0,0.0,0.0,0.0,0.0,0.0,0.0,0.0,-3.2461,-3.4352,-3.5085,-3.4564,-3.5198,-3.5136,-3.4299,-3.3815,-3.3048,-3.1824,0.0,0.0,0.0,0.0,0.0,0.0,0.0,0.0,0.0,0.0,0.0,0.0,0.0,0.0,0.0,0.0,0.0,0.0,0.0,0.0,0.0,0.0,0.0,0.0,0.0,0.0,0.0,0.0,0.0,0.0,0.0,0.0,0.0,0.0,0.0,0.0,0.0,0.0,0.0,1.108,1.0548,0.0,0.0,0.0,0.0,0.0,0.0,0.0,0.0,0.5954,0.0,0.0,0.0,0.0,0.0,0.0,0.0,0.0,0.0,0.0,0.0,0.0,0.0,0.0,0.0,0.0,0.0,0.0,0.0,0.0,0.0,0.0,0.0,0.0,0.0,0.0,0.0,0.0,0.0,0.0,0.0,0.0,0.0,0.0,0.0,0.0,0.0,0.0,0.0,0.0,0.0,0.0,0.0,0.0,0.0,0.0,0.0,0.0,0.0,0.0,0.0,0.0,0.0,0.0,0.0,-3.2737,-3.4532,-3.5143,-3.4468,-3.5121,-3.5053,-3.4147,-3.3843,-3.3185,0.0,0.0,0.0,0.0,0.0,0.0,0.0,0.0,0.0,0.0,0.0,0.0,0.0,0.0,0.0,0.0,0.0,0.0,0.0,0.0,0.0,0.0,0.0,0.0,0.0,0.0,0.0,0.0,0.0,0.0,0.0,0.0,0.0,0.0,0.0,0.0,0.0,0.0,0.0,0.0,1.087,1.0231,0.9843,0.0,0.0,0.0,0.0,0.0,0.0,0.6416,0.6086,0.0,0.0,0.0,0.0,0.0,0.0,0.0,0.0,0.0,0.0,0.0,0.0,0.0,0.0,0.0,0.0,0.0,0.0,0.0,0.0,0.0,0.0,0.0,0.0,0.0,0.0,0.0,0.0,0.0,0.0,0.0,0.0,0.0,0.0,0.0,0.0,0.0,0.0,0.0,0.0,0.0,0.0,0.0,0.0,0.0,0.0,0.0,0.0,0.0,0.0,0.0,0.0,0.0,0.0,0.0,-3.3166,-3.4784,-3.5253,-3.4514,-3.5079,-3.5014,-3.4147,-3.3946,-3.3317,0.0,0.0,0.0,0.0,0.0,0.0,0.0,0.0,0.0,0.0,0.0,0.0,0.0,0.0,0.0,0.0,0.0,0.0,0.0,0.0,0.0,0.0,0.0,0.0,0.0,0.0,0.0,0.0,0.0,0.0,0.0,0.0,0.0,0.0,0.0,0.0,0.0,0.0,0.0,0.0,0.0,1.004,0.9594,0.9062,0.0,0.0,0.0,0.0,0.6867,0.6577,0.0,0.0,0.0,0.0,0.0,0.0,0.0,0.0,0.0,0.0,0.0,0.0,0.0,0.0,0.0,0.0,0.0,0.0,0.0,0.0,0.0,0.0,0.0,0.0,0.0,0.0,0.0,0.0,0.0,0.0,0.0,0.0,0.0,0.0,0.0,0.0,0.0,0.0,0.0,0.0,0.0,0.0,0.0,0.0,0.0,0.0,0.0,0.0,0.0,0.0,0.0,0.0,0.0,0.0,0.0,0.0,-3.4196,-3.5243,-3.5374,-3.4652,-3.5234,-3.5114,-3.4147,-3.4582,-3.3961,0.0,0.0,0.0,0.0,0.0,0.0,0.0,0.0,0.0,0.0,0.0,0.0,0.0,0.0,0.0,0.0,0.0,0.0,0.0,0.0,0.0,0.0,0.0,0.0,0.0,0.0,0.0,0.0,0.0,0.0,0.0,0.0,0.0,0.0,0.0,0.0,0.0,0.0,0.0,0.0,0.0,0.9532,0.8733,0.8623,0.8358,0.0,0.0,0.7256,0.6583,0.6317,0.0,0.0,0.0,0.0,0.0,0.0,0.0,0.0,0.0,0.0,0.0,0.0,0.0,0.0,0.0,0.0,0.0,0.0,0.0,0.0,0.0,0.0,0.0,0.0,0.0,0.0,0.0,0.0,0.0,0.0,0.0,0.0,0.0,0.0,0.0,0.0,0.0,0.0,0.0,0.0,0.0,0.0,0.0,0.0,0.0,0.0,0.0,0.0,0.0,0.0,0.0,0.0,0.0,0.0,0.0,-3.3421,-3.4464,-3.5854,-3.5908,-3.4583,-3.5658,-3.556,-3.4093,-3.4579,-3.4243,0.0,0.0,0.0,0.0,0.0,0.0,0.0,0.0,0.0,0.0,0.0,0.0,0.0,0.0,0.0,0.0,0.0,0.0,0.0,0.0,0.0,0.0,0.0,0.0,0.0,0.0,0.0,0.0,0.0,0.0,0.0,0.0,0.0,0.0,0.0,0.0,0.0,0.0,0.0,0.0,0.0,0.0,0.8967,0.8612,0.0,0.0,0.0,0.6732,0.6116,0.0,0.0,0.0,0.0,0.0,0.0,0.0,0.0,0.0,0.0,0.0,0.0,0.0,0.0,0.0,0.0,0.0,0.0,0.0,0.0,0.0,0.0,0.0,0.0,0.0,0.0,0.0,0.0,0.0,0.0,0.0,0.0,0.0,0.0,0.0,0.0,0.0,0.0,0.0,0.0,0.0,0.0,0.0,0.0,0.0,0.0,0.0,0.0,0.0,0.0,0.0,0.0,0.0,0.0,0.0,0.0,0.0,-3.5135,-3.6253,-3.6355,-3.5435,-3.6057,-3.5848,-3.4706,-3.4737,0.0,0.0,0.0,0.0,0.0,0.0,0.0,0.0,0.0,0.0,0.0,0.0,0.0,0.0,0.0,0.0,0.0,0.0,0.0,0.0,0.0,0.0,0.0,0.0,0.0,0.0,0.0,1.179,0.0,0.0,0.0,0.0,0.0,0.0,0.0,0.0,0.0,0.0,0.0,0.0,0.0,0.0,0.9783,0.9352,0.8902,0.8573,0.0,0.0,0.6667,0.5912,0.545,0.5269,0.0,0.0,0.0,0.0,0.0,0.0,0.0,0.0,0.0,0.0,0.0,0.0,0.0,0.0,0.0,0.0,0.0,0.0,0.0,0.0,0.0,0.0,0.0,0.0,0.0,0.0,0.0,0.0,0.0,0.0,0.0,0.0,0.0,0.0,0.0,0.0,0.0,0.0,0.0,0.0,0.0,0.0,0.0,0.0,0.0,0.0,0.0,0.0,0.0,0.0,0.0,0.0,0.0,0.0,-3.4339,-3.6802,-3.6187,-3.6541,-3.7909,-3.6305,-3.5733,-3.6389,-3.5306,-3.4269,0.0,0.0,0.0,0.0,0.0,0.0,0.0,0.0,0.0,0.0,0.0,0.0,0.0,0.0,0.0,0.0,0.0,0.0,0.0,0.0,0.0,0.0,0.0,0.0,0.0,0.0,0.0,0.0,0.0,0.0,0.0,0.0,0.0,0.0,0.0,0.0,0.0,0.0,0.0,0.0,0.0,1.0216,0.9656,0.9533,0.9155,0.0,0.8223,0.7693,0.6094,0.643,0.6855,0.6817,0.0,0.0,0.0,0.0,0.0,0.0,0.0,0.0,0.0,0.0,0.0,0.0,0.0,0.0,0.0,0.0,0.0,0.0,0.0,0.0,0.0,0.0,0.0,0.0,0.0,0.0,0.0,0.0,0.0,0.0,0.0,0.0,0.0,0.0,0.0,0.0,0.0,0.0,0.0,0.0,0.0,0.0,0.0,0.0,0.0,0.0,0.0,0.0,0.0,0.0,0.0,0.0,0.0,-3.4958,-3.7043,-3.7225,-3.7589,-3.8089,-3.6858,-3.6266,-3.652,-3.5305,-3.4438,0.0,0.0,0.0,0.0,0.0,0.0,0.0,0.0,0.0,0.0,0.0,0.0,0.0,0.0,0.0,0.0,0.0,0.0,0.0,0.0,0.0,0.0,0.0,0.0,0.0,0.0,0.0,0.0,1.1475,1.1581,1.2018,0.0,0.0,0.0,0.0,0.0,0.0,0.0,0.0,0.0,0.0,1.0447,1.0274,1.0016,0.0,0.0,0.8709,0.8051,0.7149,0.6648,0.6529,0.6769,0.6612,0.0,0.0,0.0,0.0,0.0,0.0,0.0,0.0,0.0,0.0,0.0,0.0,0.0,0.0,0.0,0.0,0.0,0.0,0.0,0.0,0.0,0.0,0.0,0.0,0.0,0.0,0.0,0.0,0.0,0.0,0.0,0.0,0.0,0.0,0.0,0.0,0.0,0.0,0.0,0.0,0.0,0.0,0.0,0.0,0.0,0.0,0.0,0.0,0.0,0.0,0.0,0.0,-3.563,-3.7444,-3.7705,-3.8178,-3.8837,-3.7159,-3.6427,-3.6795,-3.538,-3.4551,0.0,0.0,0.0,0.0,0.0,0.0,0.0,0.0,0.0,0.0,0.0,0.0,0.0,0.0,0.0,0.0,0.0,0.0,0.0,0.0,0.0,0.0,0.0,0.0,0.0,0.0,0.0,0.0,1.1609,1.1793,1.2258,0.0,0.0,0.0,0.0,0.0,0.0,0.0,0.0,0.0,0.0,1.074,1.0762,1.0492,1.0248,1.0166,0.9418,0.8653,0.8298,0.7438,0.6853,0.716,0.0,0.0,0.0,0.0,0.0,0.0,0.0,0.0,0.0,0.0,0.0,0.0,0.0,0.0,0.0,0.0,0.0,0.0,0.0,0.0,0.0,0.0,0.0,0.0,0.0,0.0,0.0,-2.2475,0.0,0.0,-2.1972,0.0,0.0,0.0,0.0,0.0,0.0,0.0,0.0,0.0,0.0,0.0,0.0,0.0,0.0,0.0,0.0,0.0,0.0,0.0,0.0,0.0,0.0,-3.6411,-3.8216,-3.73,-3.8015,-4.043,-3.7122,-3.605,-3.7523,-3.5625,-3.4526,-3.4467,0.0,0.0,0.0,0.0,0.0,0.0,0.0,0.0,0.0,0.0,0.0,0.0,0.0,0.0,0.0,0.0,0.0,0.0,0.0,0.0,0.0,0.0,0.0,0.0,0.0,0.0,1.1967,1.2151,1.235,0.0,0.0,0.0,0.0,0.0,0.0,0.0,0.0,0.0,0.0,1.1356,1.119,1.1277,1.1091,1.0961,1.089,1.0359,0.9865,0.9529,0.8839,0.8349,0.0,0.0,0.0,0.0,0.0,0.0,0.0,0.0,0.0,0.0,0.0,0.0,0.0,0.0,0.0,0.0,0.0,0.0,0.0,0.0,0.0,0.0,0.0,0.0,0.0,0.0,0.0,-2.445,-2.3145,0.0,0.0,0.0,0.0,0.0,0.0,0.0,0.0,0.0,0.0,0.0,-3.2,-3.2497,0.0,0.0,0.0,0.0,0.0,0.0,0.0,0.0,0.0,0.0,0.0,0.0,-3.6953,-3.8086,-3.772,-3.8498,-4.0429,-3.7616,-3.6497,-3.7433,-3.6151,-3.5023,-3.4179,0.0,0.0,0.0,0.0,0.0,0.0,0.0,0.0,0.0,0.0,0.0,0.0,0.0,0.0,0.0,0.0,0.0,0.0,0.0,0.0,0.0,0.0,0.0,0.0,0.0,1.217,0.0,0.0,0.0,0.0,0.0,0.0,0.0,0.0,0.0,0.0,0.0,1.1618,1.1587,1.1526,1.1449,1.1538,1.1386,1.1089,0.0,0.0,0.0,0.0,0.0,0.0,0.0,0.0,0.0,0.0,0.0,0.0,0.0,0.0,0.9252,0.937,0.9543,0.9905,1.0858,0.0,0.0,0.0,0.0,0.0,0.0,0.0,0.0,0.0,0.0,0.0,0.0,0.0,0.0,-2.6142,0.0,-2.4692,0.0,0.0,0.0,0.0,0.0,0.0,0.0,0.0,-3.0788,-3.1639,-3.2497,-3.3023,-3.3302,0.0,-3.334,-3.3506,0.0,0.0,0.0,0.0,0.0,0.0,0.0,0.0,-3.7018,-3.7572,-3.7488,-3.8251,-3.9854,-3.7718,-3.6917,-3.7791,-3.6521,-3.525,-3.4067,-3.3221,-3.1387,0.0,0.0,0.0,0.0,0.0,0.0,0.0,0.0,0.0,0.0,0.0,0.0,0.0,0.0,0.0,0.0,0.0,0.0,0.0,0.0,0.0,0.0,0.0,1.3245,0.0,0.0,0.0,0.0,0.0,0.0,0.0,0.0,0.0,1.1959,1.1841,1.1817,1.193,1.1793,1.1741,1.1832,0.0,0.0,0.0,0.0,0.0,0.0,0.0,0.9556,0.9266,0.8893,0.8597,0.8223,0.859,0.9137,0.9897,0.0,0.0,1.0656,1.0728,1.1112,1.1858,1.2267,1.2431,1.2506,1.2751,1.3001,0.0,0.0,0.0,0.0,0.0,0.0,0.0,0.0,-2.8954,-2.7983,0.0,-2.6824,0.0,0.0,0.0,0.0,-2.7764,-2.8833,0.0,0.0,-3.1802,-3.2282,-3.1892,-3.325,-3.4014,-3.4116,-3.4293,-3.4826,-3.5553,-3.3892,0.0,0.0,0.0,0.0,0.0,0.0,-3.6637,-3.6729,-3.6584,-3.7395,-3.9089,-3.7488,-3.724,-3.8591,-3.6675,-3.515,-3.4216,-3.3548,-2.942,-2.1011,-1.9513,0.0,0.0,0.0,0.0,0.0,0.0,0.0,0.0,0.0,0.0,0.0,0.0,0.0,0.0,0.0,0.0,0.0,0.0,0.0,0.0,1.5149,0.0,0.0,0.0,0.0,0.0,0.0,0.0,0.0,0.0,0.0,1.2639,1.2183,1.1981,1.2492,0.0,0.0,0.0,0.0,1.1532,1.1028,1.0985,1.0811,1.0159,0.9998,0.9858,0.9657,0.0,0.0,0.8668,0.978,1.0696,1.0701,1.1658,1.235,1.1916,1.2149,1.2472,1.2729,1.2991,1.3253,1.3423,1.3587,1.3848,-3.3157,0.0,0.0,0.0,0.0,-3.0725,-3.0291,-2.9783,-3.0279,-2.9601,-2.8203,-2.8932,0.0,0.0,0.0,0.0,0.0,0.0,-3.0507,-3.0804,-3.1538,-3.2145,-3.2638,-3.3133,-3.3712,-3.4378,-3.4447,-3.4948,-3.5784,-3.5202,-3.4933,-3.503,0.0,0.0,0.0,0.0,-3.668,-3.6671,-3.6615,-3.7408,-3.9087,-3.8079,-3.7829,-3.8525,-3.655,-3.5367,-3.5064,-2.8434,-2.3579,-2.0956,-0.9784,0.0,0.0,0.0,0.0,0.0,0.0,0.0,0.0,0.0,0.0,0.0,0.0,0.0,0.0,0.0,0.0,0.0,0.0,0.0,1.566,1.5742,1.5604,0.0,0.0,0.0,0.0,0.0,0.0,0.0,0.0,0.0,1.2885,1.25,1.2225,0.0,0.0,1.2482,1.2294,1.2187,1.195,1.1257,1.1197,0.0,1.0923,1.0572,1.0283,1.004,0.967,0.9217,0.9038,0.9884,1.0827,1.1465,1.2524,1.3411,1.3945,1.3572,1.3533,1.4166,1.4445,1.4445,1.4533,1.471,1.4879,-3.4574,-3.3912,-3.28,-3.2238,-3.2045,-3.1719,-3.1431,-3.123,-3.1543,-3.0929,-2.9692,-3.0287,-2.9756,-2.8412,-2.8501,0.0,0.0,0.0,-3.096,-3.1219,-3.1554,-3.1856,-3.2111,-3.248,-3.2784,-3.3018,-3.3698,-3.4503,-3.5379,-3.53,-3.5461,-3.5834,0.0,0.0,-3.562,-3.5949,-3.6132,-3.6132,-3.6117,-3.6926,-3.8575,-3.8648,-3.8554,-3.829,-3.3661,-3.0932,-3.0505,-2.1558,-1.5085,-1.1888,-0.2291,0.4643,0.0,0.0,0.0,0.0,0.0,0.0,0.0,0.0,0.0,0.0,0.0,1.4408,1.4184,0.0,0.0,0.0,1.5966,1.631,1.6419,1.6543,0.0,0.0,0.0,0.0,0.0,0.0,0.0,1.3891,1.3527,1.3231,1.3188,1.2897,1.2711,1.2632,1.2829,1.2803,1.2635,0.0,1.2345,1.1775,1.1522,1.1346,1.1248,1.0973,1.058,1.0125,0.9837,0.9651,0.9736,1.0622,1.16,1.2542,1.3546,1.4463,1.4937,1.4654,1.4472,1.492,1.506,1.506,1.506,1.5143,1.5322,-3.5907,-3.5676,-3.3248,-3.258,-3.3005,-3.2242,-3.2218,-3.2705,-3.2565,-3.1894,-3.0901,-3.1097,-3.0387,-2.9006,-2.8864,0.0,-3.0586,-3.0817,-3.1099,-3.1429,-3.1681,-3.1406,-3.0742,-3.151,-3.1505,-3.0782,-3.2474,-3.3765,-3.4588,-3.4697,-3.5093,-3.5866,-3.5687,-3.5629,-3.5601,-3.5416,-3.5315,-3.5315,-3.5392,-3.6255,-3.7945,-3.9161,-3.8959,-3.7117,-2.8921,-2.38,-2.2049,-1.3531,-0.5299,0.1974,0.3564,0.7532,1.4641,0.0,0.0,0.0,0.0,0.0,0.0,0.0,0.0,0.0,0.0,0.0,0.0,0.0,0.0,0.0,1.6768,0.0,1.7253,1.7417,0.0,0.0,0.0,1.5494,1.5095,1.4296,1.3819,1.3967,0.0,0.0,1.3392,1.3559,1.3561,1.3352,1.3188,1.3094,1.2871,1.2843,1.2738,1.2404,1.1962,1.1577,1.1377,1.1101,1.0768,1.0229,0.997,1.0175,1.0729,1.1786,1.2858,1.3438,1.459,1.5343,1.5077,1.5216,1.5383,1.506,1.5057,1.505,1.5077,1.5264,1.5361,-3.7638,-3.7497,-3.6237,-3.4698,-3.3082,-3.287,-3.2164,-3.1225,-3.1641,-3.1657,-3.1439,-3.1996,-3.1985,-3.1514,-3.1491,-3.1309,-3.103,-3.1117,-3.0957,-3.0679,-3.0711,-3.0709,-3.0625,-3.0896,-3.0962,-3.0963,-3.256,-3.3778,-3.4618,-3.5271,-3.5683,-3.5885,-3.5706,-3.562,-3.5667,-3.547,-3.5398,-3.5441,-3.6046,-3.7118,-3.8609,-3.9302,-3.6076,-2.8715,-2.5735,-2.0839,-1.3724,-0.4558,0.1103,0.2861,0.9167,1.3682,1.5622,1.5864,0.0,0.0,0.0,0.0,0.0,0.0,0.0,0.0,0.0,1.5918,1.5754,0.0,1.6384,0.0,1.7341,1.7988,1.8232,1.8088,0.0,0.0,1.6471,1.5718,1.4986,1.4438,1.4116,1.4261,1.4058,1.3835,1.3758,1.4362,1.4838,1.4819,1.4166,1.3552,1.3153,1.3237,1.3183,1.2753,1.218,1.1798,1.1589,1.1312,1.1196,1.1443,1.1428,1.1621,1.2086,1.2991,1.3611,1.3802,1.453,1.507,1.4867,1.507,1.514,1.51,1.535,1.5625,1.5618,1.5618,1.5712,-3.8277,-3.8188,-3.7699,-3.6439,-3.4737,-3.4002,-3.2938,-3.1768,-3.2035,-3.2179,-3.2205,-3.2568,-3.2694,-3.2619,-3.2619,-3.2355,-3.1905,-3.1947,-3.1826,-3.1565,-3.1622,-3.1313,-3.07,-3.1109,-3.1159,-3.0901,-3.2199,-3.3223,-3.4031,-3.4905,-3.5507,-3.5846,-3.5726,-3.5649,-3.5646,-3.5443,-3.5379,-3.5479,-3.6562,-3.5419,-3.1989,-3.2842,-2.8851,-1.9579,-1.4782,-1.0082,-0.51,0.3868,0.8653,0.8617,1.3176,1.5988,1.6226,1.6489,1.6753,0.0,0.0,0.0,0.0,0.0,0.0,0.0,0.0,0.0,0.0,0.0,1.7118,1.7541,1.8191,1.8672,1.8906,1.8567,1.8218,1.7832,1.6792,1.5968,1.5458,1.4636,1.4137,1.4216,1.428,1.4335,1.4476,1.5163,1.5721,1.5881,1.5484,1.491,1.4069,1.3634,1.3147,1.2856,1.237,1.1878,1.1575,1.1678,1.1785,1.198,1.2268,1.2646,1.3318,1.3709,1.4004,1.44,1.4694,1.4885,1.4682,1.4783,1.4885,1.4981,1.5261,1.5547,1.5642,1.5737,1.5825,-3.8654,-3.8617,-3.8573,-3.8044,-3.7116,-3.553,-3.4272,-3.3256,-3.3034,-3.2928,-3.2928,-3.2928,-3.2928,-3.2904,-3.2904,-3.2839,-3.2742,-3.2846,-3.2952,-3.3032,-3.3167,-3.2513,-3.1286,-3.1932,-3.1912,-3.1289,-3.2051,-3.2784,-3.3485,-3.436,-3.5106,-3.5772,-3.5745,-3.5669,-3.5589,-3.5369,-3.5339,-3.5541,-3.6795,-3.3375,-2.5205,-2.5301,-2.0982,-1.165,-0.2563,0.2743,0.3888,1.1263,1.5517,1.5617,1.6027,1.6368,1.675,1.7278,1.7698,0.0,1.7897,0.0,0.0,0.0,0.0,0.0,0.0,0.0,0.0,1.6743,1.7865,1.8427,1.9,1.9307,1.9355,1.8998,1.8712,1.862,1.7304,1.6333,1.611,1.5151,1.4432,1.4467,1.4534,1.487,1.5503,1.5963,1.6387,1.6733,1.6843,1.6518,1.5507,1.428,1.3238,1.2856,1.237,1.2068,1.1873,1.2165,1.2565,1.2462,1.2937,1.3607,1.4292,1.4196,1.4298,1.4994,1.4892,1.4592,1.4298,1.4496,1.4688,1.4688,1.4879,1.5172,1.5445,1.5635,1.5737,-4.0429,-4.0324,-4.03,-3.9804,-3.8914,-3.7928,-3.6207,-3.4098,-3.3381,-3.3062,-3.3062,-3.3062,-3.2998,-3.2897,-3.2904,-3.2891,-3.2859,-3.289,-3.3001,-3.3161,-3.3247,-3.3369,-3.3536,-3.3275,-3.3308,-3.3571,-3.4014,-3.4261,-3.4382,-3.5217,-3.5723,-3.5807,-3.5736,-3.5678,-3.5584,0.0,0.0,0.0,-3.6176,-3.5881,-3.5116,-2.8268,-2.034,-1.1399,-0.2416,0.0,1.3341,1.5545,1.6586,1.6464,1.6927,0.0,0.0,0.0,0.0,0.0,0.0,0.0,0.0,0.0,0.0,0.0,1.8054,1.7916,1.7298,1.7796,1.8447,1.8841,1.9102,1.935,1.9541,1.9363,1.8945,1.8451,1.7923,1.7332,1.6676,1.6332,1.6223,1.6331,1.574,1.5632,1.6639,1.695,1.7295,1.7903,1.791,1.7669,1.7217,1.5507,1.3998,1.2754,1.2748,1.3028,1.3318,1.3522,1.3709,1.4106,1.4304,1.4586,1.5064,1.4975,1.4892,1.5108,1.4706,1.44,1.4298,1.4298,1.44,1.4394,1.4592,1.4879,1.535,1.554,1.5642,-4.0898,-4.079,-4.079,-4.0539,0.0,-3.9224,-3.8102,-3.6798,-3.5123,-3.4389,-3.4389,-3.4389,-3.4356,-3.4291,-3.4272,-3.4284,-3.4276,-3.4268,-3.4351,-3.4484,-3.4505,-3.4484,-3.4399,-3.4116,-3.3918,-3.3802,-3.3936,-3.4222,-3.4612,-3.5021,-3.541,-3.5726,-3.5679,-3.5612,-3.5541,-3.5168,-3.5172,-3.5514,-3.5748,-3.4198,-3.0499,-2.1966,-1.3237,-0.4562,0.4624,0.0,0.0,0.0,0.0,0.0,0.0,0.0,0.0,0.0,0.0,1.9686,1.9649,1.9431,1.9143,1.9173,1.8954,1.834,1.865,1.8734,1.836,1.8528,1.886,1.9358,1.9645,1.9858,1.9908,1.9639,1.9325,1.8948,1.8407,1.7836,1.7423,1.6944,1.6751,1.683,1.6589,1.6813,1.785,1.8084,1.8422,1.888,1.8912,1.8434,1.7584,1.6082,1.4669,1.3709,1.3703,1.3896,1.3902,1.4286,1.4484,1.4688,1.4975,1.5255,1.5452,1.5261,1.5096,1.5108,1.47,1.4298,1.4298,1.4298,1.4298,1.4298,1.4394,1.4592,1.507,1.5356,1.554,-4.0868,-4.079,-4.079,-4.079,-4.0732,-3.9874,-3.9429,-3.9108,0.0,0.0,0.0,-3.5762,-3.5704,-3.5704,-3.5715,-3.5706,-3.5707,-3.5698,-3.5737,-3.5799,-3.5803,-3.547,-3.4817,-3.4831,-3.4496,-3.384,-3.379,-3.4111,-3.4783,-3.475,-3.5044,-3.5601,-3.5615,-3.5528,-3.5383,-3.5086,-3.4793,-3.462,-3.5324,-3.1556,-2.2994,-1.4488,-0.5939,0.2686,1.2068,1.7491,1.8518,1.8129,1.8383,1.9352,1.9104,1.9095,1.9503,1.9734,2.0224,2.0949,2.0992,2.072,2.0261,2.0558,2.0215,1.9081,1.9397,1.9468,1.9184,1.9042,1.9269,1.9944,2.014,2.0264,2.0186,1.9872,1.9566,1.9557,1.8736,1.8247,1.8167,1.7594,1.7269,1.7423,1.7478,1.7906,1.8872,1.8993,1.9196,1.9487,1.9487,1.9112,1.7591,1.6177,1.5242,1.4949,1.4854,1.4663,1.4573,1.486,1.5159,1.4975,1.5356,1.5642,1.5452,1.5172,1.4994,1.4904,1.4598,1.44,1.4298,1.4298,1.4298,1.4298,1.4298,1.4394,1.4592,1.4975,1.535,-4.0906,-4.079,-4.079,-4.079,-4.0732,-3.9862,-3.9069,-3.8315,-3.7212,-3.6729,-3.669,-3.5994,-3.5704,-3.5704,-3.5706,-3.5707,-3.5707,-3.5776,-3.5793,-3.5799,-3.5857,-3.5794,-3.5638,-3.5697,-3.5632,-3.548,-3.5514,-3.5531,-3.5541,-3.5601,-3.5609,-3.5535,-3.5581,-3.5397,-3.5018,-3.4981,-3.4793,-3.4431,-3.4562,-3.0792,-2.2933,-1.4179,-0.5159,0.4019,1.2889,1.833,1.9894,2.0057,2.0254,2.0606,2.0467,2.0585,2.1144,2.0888,2.139,2.2652,2.2108,2.1891,2.2546,2.1953,2.1317,2.0855,2.0792,2.0538,1.9824,1.9798,1.9916,2.0207,2.0226,2.0108,1.9803,1.9645,1.9557,1.9381,1.9222,1.9134,1.9045,1.8745,1.8786,1.9219,1.8485,1.8529,1.9594,1.9231,1.8912,1.9396,1.9387,1.892,1.7885,1.6278,1.5432,1.5717,1.5622,1.5622,1.5913,1.6021,1.5933,1.573,1.554,1.5445,1.5267,1.4981,1.4688,1.4496,1.4394,1.4298,1.4298,1.4298,1.4298,1.4298,1.4298,1.4298,1.44,1.4688,1.4975,-4.0986,-4.0867,-4.0856,-4.0843,-4.0771,-4.0365,-3.9978,-3.9533,-3.8682,-3.8044,-3.758,-3.7212,-3.7058,-3.7019,-3.6607,-3.6405,-3.6386,-3.5979,-3.5801,-3.5815,-3.5872,-3.5852,-3.5799,-3.5838,-3.5823,-3.5818,-3.632,-3.6257,-3.5795,-3.6192,-3.6125,-3.5546,-3.5424,-3.5235,-3.4907,-3.4851,-3.2432,-2.7661,-2.7561,-2.6116,-2.2894,-0.8844,0.0452,0.4306,1.3851,1.9618,2.0962,2.0943,2.1174,2.1702,2.1444,2.1403,2.169,2.1569,2.2217,2.3684,2.3449,2.3351,2.3717,2.265,2.2034,2.2135,2.2051,2.1839,2.1476,2.0645,2.0198,2.0245,2.0108,1.9794,1.9645,1.9478,1.939,1.9301,1.9292,1.9292,1.9292,1.9143,1.9228,1.9609,1.923,1.9166,2.0198,1.9646,1.9279,1.9579,1.9212,1.8643,1.8179,1.7239,1.6473,1.6763,1.6487,1.6393,1.6588,1.6407,1.6123,1.5825,1.5642,1.5452,1.5178,1.4892,1.4592,1.4394,1.4298,1.4298,1.4298,1.4298,1.4298,1.4298,1.4298,1.4298,1.4298,1.449,1.479,-4.1042,-4.0924,-4.0897,-4.0848,-4.079,-4.079,-4.079,-4.0732,-4.0075,-3.9429,-3.8779,-3.8411,-3.8199,-3.8152,-3.7555,-3.7297,-3.7191,-3.6454,-3.6082,-3.6075,-3.5927,-3.5842,-3.5788,-3.5763,-3.5765,-3.5862,-3.6638,-3.6561,-3.5853,-3.654,-3.6427,-3.5528,-3.5285,-3.4186,-3.2064,-3.1968,-2.7642,-1.9412,-1.6954,-1.6213,-1.63,-0.2055,0.6135,0.8562,1.5974,2.0844,2.1915,2.1761,2.1863,2.2551,2.2344,2.2252,2.2409,2.2635,2.3433,2.4727,2.4867,2.4835,2.4615,2.3792,2.3184,2.322,2.3054,2.2916,2.2553,2.1482,2.0634,2.042,1.9951,1.9557,1.9478,1.939,1.9292,1.9292,1.9292,1.9292,1.9222,1.9073,1.9156,1.96,1.9589,1.9618,2.0069,2.0019,1.9662,1.9304,1.8851,1.8381,1.8087,1.7908,1.7628,1.7333,1.7059,1.6784,1.6588,1.6305,1.6021,1.5825,1.5547,1.5356,1.5083,1.4885,1.4586,1.4298,1.4298,1.4298,1.4298,1.4298,1.4298,1.4298,1.4298,1.4298,1.4298,1.4394,1.4688,-4.1061,-4.0981,-4.0932,-4.0867,-4.0803,-4.079,-4.079,-4.079,-4.0694,-4.0641,-4.0343,-3.8907,-3.8288,-3.8263,-3.8237,-3.818,-3.8113,-3.7335,-3.6973,-3.6884,-3.6095,-3.5708,-3.5776,-3.5697,-3.5618,-3.5792,-3.6585,-3.6582,-3.5674,-3.6356,-3.6271,-3.535,-3.519,-3.1272,-2.4588,-2.3714,-1.9338,-1.058,-0.2333,0.2248,0.2883,0.4414,0.9928,1.9662,2.0576,2.1727,2.2843,2.2921,2.2989,2.3076,2.3018,2.3258,2.3957,2.4913,2.5771,2.6408,2.6348,2.6132,2.5922,2.5828,2.5142,2.397,2.3779,2.3412,2.2617,2.2155,2.1614,2.0934,2.0089,1.9548,1.9381,1.9301,1.9292,1.9292,1.9292,1.9222,1.9082,1.8851,1.8912,1.9501,1.9316,1.954,2.0086,1.9911,1.9487,1.902,1.8666,1.8381,1.8087,1.7908,1.7636,1.734,1.6965,1.6683,1.6588,1.6116,1.592,1.5737,1.5452,1.5172,1.4987,1.4694,1.4298,1.4298,1.4298,1.4298,1.4298,1.4298,1.4298,1.4208,1.4202,1.4298,1.4298,1.4298,1.44,-4.1116,-4.1042,-4.1042,-4.0945,-4.0867,-4.0808,-4.079,-4.079,-4.0796,-4.0808,-4.0742,-4.0026,-3.9746,-3.973,-3.9286,-3.9034,-3.8894,-3.8102,-3.7704,-3.7622,-3.7251,-3.7093,-3.7076,-3.7073,-3.703,-3.7045,-3.7919,-3.7585,-3.6281,-3.5871,-3.5509,-3.5143,-3.4945,-3.0638,-2.2998,-2.2287,-1.5435,-0.1723,0.2402,0.7532,1.3772,1.4532,1.6581,2.0747,2.1938,2.2505,2.2853,2.2969,2.2911,2.2882,2.2872,2.3325,2.431,2.5317,2.6059,2.6588,2.6863,2.6907,2.6572,2.6151,2.5526,2.4634,2.4383,2.4032,2.3666,2.3054,2.2456,2.208,2.0934,2.0089,2.0001,1.9608,1.9292,1.9292,1.9292,1.9222,1.9002,1.8851,1.8841,1.9094,1.9203,1.9358,1.9677,1.9521,1.918,1.8827,1.8558,1.8187,1.8087,1.7807,1.7434,1.716,1.6777,1.6588,1.6588,1.6109,1.5832,1.5642,1.5363,1.5083,1.4885,1.4592,1.4298,1.4298,1.4298,1.4298,1.4298,1.4112,1.4022,1.4022,1.3925,1.3823,1.4022,1.4022,1.4208,-4.117,-4.1121,-4.1114,-4.1022,-4.0924,-4.0856,-4.0831,-4.0812,-4.08,-4.0812,-4.0823,-4.0826,-4.0828,-4.0751,-4.0209,-3.9906,-3.9727,-3.8983,-3.8531,-3.8408,-3.8202,-3.8047,-3.7993,-3.7987,-3.7954,-3.805,-3.8801,-3.8377,-3.6771,-3.5543,-3.4999,-3.4945,-3.473,-2.9341,-1.9957,-1.8803,-0.9995,0.6059,0.7937,1.2356,1.9706,2.1379,2.1627,2.1853,2.2776,2.3309,2.3232,2.3406,2.3404,2.3216,2.3312,2.3866,2.4851,2.6151,2.699,2.7174,2.7425,2.7382,2.6959,2.6491,2.5831,2.5205,2.4833,2.4641,2.4307,2.3751,2.3383,2.3224,2.1993,2.1165,2.0769,2.0304,1.9844,1.9687,1.9529,1.9301,1.9011,1.8772,1.8681,1.8802,1.9032,1.9289,1.936,1.9315,1.9104,1.8827,1.8365,1.8087,1.7994,1.7707,1.7239,1.6979,1.6777,1.648,1.6494,1.6116,1.5737,1.554,1.5261,1.4987,1.4783,1.4496,1.4298,1.4298,1.4298,1.4208,1.4112,1.4027,1.3835,1.3738,1.3642,1.3539,1.3732,1.3738,1.3925,-4.1191,-4.1171,-4.1138,-4.1042,-4.0981,-4.0915,-4.0897,-4.0897,-4.0837,-4.0854,-4.0897,-4.0897,-4.0898,-4.0898,-4.0791,-4.082,-4.0694,-3.9947,-3.9527,-3.9321,-3.8569,-3.8078,-3.7901,-3.7778,-3.7838,-3.815,-3.8776,-3.8498,-3.7357,-3.5798,-3.487,-3.4626,-3.4102,-2.6247,-1.3169,-1.0681,-0.1644,1.3491,1.623,1.8547,2.0855,2.2562,2.3223,2.3104,2.3714,2.4166,2.4155,2.4765,2.4872,2.4397,2.4724,2.5294,2.6047,2.8139,2.918,2.8907,2.8223,2.7611,2.714,2.6988,2.6464,2.5448,2.514,2.4916,2.4292,2.4127,2.4043,2.4116,2.3298,2.2531,2.1907,2.1375,2.1001,2.0469,2.006,1.9608,1.8851,1.8683,1.8536,1.8611,1.8913,1.9166,1.9496,1.9371,1.9104,1.8735,1.8365,1.8087,1.7994,1.7613,1.7239,1.6965,1.6676,1.6278,1.6211,1.6021,1.573,1.5445,1.5172,1.4987,1.4694,1.4496,1.44,1.4298,1.4298,1.4208,1.4022,1.3835,1.3642,1.3545,1.3443,1.3443,1.3443,1.3539,1.3636,-4.1168,-4.1191,-4.1078,-4.1052,-4.1057,-4.0937,-4.0906,-4.0904,-4.0867,-4.0888,-4.0888,-4.0898,-4.0898,-4.0907,-4.0856,-4.0781,-4.0687,-4.0397,-4.0177,-3.998,-3.9646,-3.9476,-3.9457,-3.9421,-3.9371,-3.9375,-3.9659,-3.9032,-3.7355,-3.5665,-3.4713,-3.3436,-2.903,-2.0706,-1.0839,-0.452,0.4525,1.5963,1.8458,2.0187,2.2229,2.3742,2.444,2.4617,2.4754,2.4765,2.4573,2.484,2.483,2.4525,2.4628,2.5831,2.8044,2.8691,2.8949,2.8803,2.8087,2.7474,2.712,2.6971,2.6477,2.5593,2.5148,2.4832,2.4312,2.4169,2.4189,2.4116,2.3824,2.3434,2.3065,2.2155,2.1385,2.1011,2.0847,2.0304,1.9529,1.9222,1.8967,1.846,1.8507,1.8767,1.8946,1.8959,1.8819,1.8658,1.828,1.8094,1.7815,1.7527,1.7145,1.6871,1.6581,1.6386,1.592,1.5927,1.573,1.5356,1.5077,1.4885,1.4592,1.44,1.4298,1.4202,1.4202,1.4016,1.3835,1.3539,1.3346,1.3249,1.3152,1.3249,1.3249,1.3249,1.3346,-4.1138,-4.1151,-4.1094,-4.1074,-4.1081,-4.0981,-4.0902,-4.0894,-4.0885,-4.0897,-4.0888,-4.0898,-4.0888,-4.0898,-4.0848,-4.0769,-4.0662,-4.0602,-4.0504,-4.0345,-4.0326,-4.0308,-4.029,-4.0252,-4.0158,-3.9964,-3.9604,-3.8671,-3.7251,-3.5545,-3.4583,-3.3734,-2.601,-1.7747,-0.9346,-0.1286,0.7782,1.6315,1.9401,2.1178,2.313,2.493,2.5962,2.6251,2.6472,2.6318,2.5724,2.613,2.6266,2.5917,2.5605,2.693,2.9939,2.9266,2.8712,2.8949,2.7995,2.7313,2.7104,2.6966,2.6632,2.5988,2.5551,2.5043,2.4498,2.4186,2.4066,2.4043,2.3897,2.3824,2.3519,2.2756,2.1918,2.1624,2.1471,2.0991,2.0148,1.9923,1.9356,1.8679,1.8556,1.8637,1.8677,1.8691,1.8601,1.845,1.8288,1.7994,1.7721,1.7426,1.7145,1.6784,1.6683,1.6305,1.592,1.573,1.5547,1.5267,1.4981,1.4688,1.449,1.4394,1.4304,1.4208,1.4016,1.3829,1.3539,1.3244,1.305,1.2856,1.2861,1.2958,1.2953,1.305,1.3147,-4.1108,-4.1116,-4.117,-4.1147,-4.1088,-4.1008,-4.0968,-4.0918,-4.0888,-4.0917,-4.0907,-4.0888,-4.0888,-4.0907,-4.0888,-4.0848,-4.0769,-4.0668,-4.053,-4.0406,-4.0372,-4.0325,-4.0253,-3.9977,-3.9819,-3.9768,-3.8324,-3.7402,-3.6817,-3.5418,-3.4371,-3.2456,-2.5028,-1.6408,-0.8223,0.0225,0.9069,1.6982,2.0426,2.2004,2.3433,2.6245,2.7705,2.7924,2.8888,2.8809,2.751,2.873,2.9049,2.8684,2.7741,2.8795,3.1133,2.9867,2.8858,2.925,2.8155,2.7301,2.7208,2.7174,2.6932,2.6485,2.6239,2.5608,2.4853,2.4181,2.3801,2.3897,2.3751,2.353,2.3372,2.3139,2.2927,2.2478,2.208,2.1527,2.0914,2.0391,1.9916,1.9326,1.9094,1.8829,1.8682,1.8775,1.8733,1.8509,1.8342,1.8079,1.7714,1.7426,1.7153,1.6885,1.6602,1.6312,1.5927,1.5642,1.5363,1.5178,1.4885,1.4688,1.4496,1.4298,1.4208,1.4118,1.3829,1.3636,1.3346,1.305,1.2953,1.2759,1.2764,1.2861,1.2856,1.2856,1.2958,-4.1061,-4.1091,-4.1073,-4.1091,-4.1094,-4.1037,-4.0974,-4.096,-4.0976,-4.0924,-4.0917,-4.0888,-4.0888,-4.0898,-4.0848,-4.0823,-4.0788,-4.0662,-4.0574,-4.0481,-4.0213,-4.0101,-4.0062,-3.9854,-3.9463,-3.8885,-3.7775,-3.6772,-3.6021,-3.5004,-3.4203,-3.1466,-2.0211,-1.2201,-0.7679,0.4901,1.5047,1.9468,2.1489,2.3438,2.5936,2.7727,2.8888,2.9344,3.0126,3.0266,2.9872,2.9756,2.9819,2.9946,2.9288,2.9909,3.1352,3.0267,2.9316,2.9471,2.8167,2.7231,2.7231,2.7231,2.7162,2.6864,2.6165,2.5449,2.4833,2.4082,2.3689,2.3677,2.3519,2.3372,2.3298,2.315,2.3001,2.2852,2.2542,2.208,2.1385,2.0605,1.9891,1.9635,1.9633,1.9587,1.9388,1.9454,1.9462,1.8733,1.8752,1.8627,1.7707,1.7426,1.7066,1.6798,1.6508,1.6407,1.6224,1.5838,1.5458,1.5267,1.507,1.4592,1.44,1.4208,1.4118,1.3829,1.3539,1.3346,1.3055,1.2861,1.2856,1.2759,1.2764,1.2759,1.2759,1.2861,1.2861,-4.0994,-4.107,-4.1045,-4.1054,-4.106,-4.1039,-4.1018,-4.0992,-4.0992,-4.098,-4.0948,-4.0937,-4.0941,-4.0924,-4.0868,-4.0846,-4.0834,-4.0732,-4.0675,-4.0621,-4.0285,-4.012,-4.012,-3.9897,-3.9305,-3.8433,-3.7468,-3.6461,-3.5453,-3.466,-3.391,-3.0778,-1.7148,-0.8763,-0.6044,0.8463,1.8537,2.1042,2.3143,2.5228,2.7251,2.9071,3.0152,3.0456,3.1071,3.1368,3.1294,3.0859,3.0698,3.0864,3.0618,3.0878,3.1569,3.0482,2.9793,2.9626,2.87,2.7765,2.7522,2.7441,2.729,2.6885,2.6098,2.5351,2.4836,2.4044,2.3446,2.3446,2.3298,2.3139,2.3075,2.3001,2.2863,2.2788,2.2692,2.2392,2.1776,2.1155,2.0527,2.0215,2.0071,1.9947,1.9752,1.9898,2.0061,1.9242,1.9389,1.9446,1.8519,1.8249,1.7785,1.7326,1.6943,1.677,1.6718,1.6238,1.5553,1.5356,1.5255,1.4777,1.4298,1.4112,1.4027,1.3539,1.3249,1.3152,1.2861,1.2861,1.2759,1.2759,1.2759,1.2759,1.2759,1.2759,1.2861,-4.0941,-4.1013,-4.1051,-4.1052,-4.1025,-4.1084,-4.1058,-4.1,-4.0984,-4.0984,-4.0992,-4.0986,-4.0981,-4.0986,-4.0906,-4.0898,-4.0888,-4.0826,-4.0769,-4.0688,-4.0466,-4.0283,-4.0157,-3.9854,-3.9157,-3.8117,-3.7361,-3.6315,-3.5039,-3.4308,-3.3102,-2.942,-1.6051,-0.6951,-0.2191,1.1473,2.0261,2.2424,2.5003,2.6748,2.7851,3.0196,3.1429,3.1294,3.185,3.2155,3.2023,3.1803,3.1743,3.183,3.1508,3.1267,3.104,3.0556,3.0165,3.0165,2.9561,2.8688,2.8051,2.781,2.7499,2.6883,2.6086,2.5542,2.4948,2.3851,2.3106,2.3213,2.3075,2.2927,2.2777,2.2703,2.2628,2.2478,2.2553,2.2402,2.2176,2.1949,2.1405,2.0702,2.0411,2.0134,1.9778,1.9933,2.0068,2.0009,2.0279,2.0121,1.9712,1.9147,1.8648,1.8195,1.7762,1.7404,1.7347,1.6965,1.6379,1.6292,1.6001,1.5432,1.4484,1.4208,1.3829,1.3346,1.305,1.2861,1.2764,1.2764,1.2759,1.2667,1.2667,1.2759,1.2759,1.2662,1.2759,-4.0885,-4.0994,-4.1018,-4.1045,-4.1069,-4.109,-4.1066,-4.0991,-4.0991,-4.1,-4.0983,-4.098,-4.0967,-4.0924,-4.0906,-4.0888,-4.0898,-4.0888,-4.0837,-4.0725,-4.0389,-3.9986,-3.966,-3.9396,-3.8646,-3.7491,-3.7079,-3.6128,-3.4574,-3.3482,-3.0041,-2.3085,-1.3101,-0.3679,0.4399,1.4298,2.1232,2.453,2.5946,2.8091,3.0251,3.1548,3.2146,3.1996,3.2547,3.2646,3.2241,3.189,3.171,3.1662,3.1461,3.1307,3.1053,3.0519,3.0177,3.0177,2.9626,2.9094,2.8688,2.8119,2.773,2.7406,2.5984,2.5049,2.4893,2.3775,2.3067,2.2927,2.2777,2.2703,2.2563,2.2478,2.2402,2.2252,2.2252,2.2176,2.1959,2.1731,2.1502,2.1262,2.1041,2.0732,2.0574,2.0661,2.0724,2.0519,2.067,2.0766,2.0381,1.9985,1.9588,1.9147,1.8711,1.8334,1.8056,1.7677,1.7397,1.7311,1.7023,1.6365,1.5324,1.4388,1.3817,1.3147,1.2953,1.2861,1.2764,1.2759,1.2667,1.257,1.2467,1.2467,1.2467,1.2467,1.2662,-4.0849,-4.0954,-4.0955,-4.1,-4.1093,-4.1113,-4.1074,-4.1034,-4.105,-4.1041,-4.1035,-4.1011,-4.0967,-4.0949,-4.0906,-4.0888,-4.0888,-4.0888,-4.0858,-4.0725,-4.0326,-3.9823,-3.9389,-3.92,-3.8432,-3.7038,-3.6839,-3.5771,-3.3434,-3.0219,-2.4891,-1.8545,-0.7538,0.1505,0.7059,1.6689,2.281,2.5677,2.7271,2.9347,3.178,3.2692,3.3059,3.303,3.3227,3.296,3.2431,3.2169,3.2063,3.1971,3.1636,3.1259,3.1529,3.0872,3.0508,3.0583,3.0114,2.9806,2.9238,2.8518,2.7891,2.7313,2.5791,2.4779,2.4357,2.3493,2.2777,2.2628,2.2553,2.2478,2.2327,2.2176,2.2101,2.1883,2.1883,2.1797,2.1655,2.1578,2.1425,2.1349,2.1205,2.1061,2.0916,2.1204,2.1109,2.0964,2.1391,2.1213,2.0943,2.0668,2.0464,2.0127,1.9845,1.9463,1.9004,1.8542,1.8519,1.8427,1.7584,1.7016,1.5886,1.4663,1.3721,1.3055,1.2958,1.2759,1.2759,1.2759,1.2565,1.2467,1.237,1.2273,1.237,1.2365,1.2467,-4.0734,-4.0835,-4.0898,-4.0967,-4.1072,-4.1116,-4.1099,-4.1116,-4.1111,-4.1094,-4.1091,-4.1031,-4.1003,-4.098,-4.0937,-4.0926,-4.0906,-4.0898,-4.0784,-4.0549,-4.0155,-3.9664,-3.9245,-3.9317,-3.8402,-3.7044,-3.6634,-3.5528,-3.2384,-2.5112,-1.9627,-1.4077,-0.0823,0.7274,1.1608,1.9168,2.402,2.6463,2.8723,3.0688,3.2583,3.3616,3.4109,3.3891,3.3422,3.3017,3.2761,3.2632,3.2759,3.304,3.1917,3.1817,3.2296,3.1535,3.1061,3.0973,3.0823,3.0495,2.9858,2.9069,2.8279,2.7497,2.5905,2.4577,2.4268,2.3406,2.2542,2.2402,2.2402,2.2252,2.2025,2.1883,2.1655,2.1512,2.1512,2.1502,2.1436,2.1436,2.1359,2.1205,2.0984,2.0906,2.0927,2.0977,2.1111,2.1034,2.1422,2.14,2.1386,2.1383,2.1266,2.1302,2.0914,2.0598,2.0053,1.9504,1.9571,1.9546,1.8241,1.7296,1.617,1.4943,1.3721,1.3055,1.2861,1.2759,1.2759,1.2662,1.2467,1.2273,1.217,1.2175,1.2278,1.2273,1.237,-4.0532,-4.0532,-4.0835,-4.0986,-4.1037,-4.1081,-4.1111,-4.1108,-4.1097,-4.1089,-4.1094,-4.109,-4.1038,-4.0996,-4.098,-4.0967,-4.0953,-4.0869,-4.061,-4.0155,-3.9797,-3.9464,-3.921,-3.9317,-3.842,-3.718,-3.6756,-3.5769,-3.2211,-2.4746,-1.6294,-0.8595,0.0939,1.1302,1.8222,2.171,2.5561,2.7762,3.0124,3.1935,3.3428,3.4633,3.4978,3.438,3.363,3.3087,3.2761,3.269,3.3115,3.352,3.3241,3.2789,3.2571,3.2082,3.1616,3.1185,3.0986,3.0836,3.0368,2.9651,2.9081,2.8385,2.6697,2.5553,2.4826,2.3275,2.2359,2.2166,2.2176,2.1959,2.1731,2.1425,2.1359,2.1282,2.1282,2.1205,2.1051,2.1061,2.1061,2.0896,2.0809,2.0654,2.0654,2.0722,2.0898,2.1082,2.1312,2.1486,2.1569,2.174,2.1711,2.1713,2.1536,2.1032,2.0581,2.0036,1.9845,1.9729,1.8611,1.7296,1.617,1.5419,1.4196,1.334,1.2861,1.2759,1.2759,1.2759,1.2565,1.2273,1.2073,1.2078,1.2175,1.2175,1.2273,-4.0303,-4.0386,-4.0587,-4.0752,-4.0914,-4.0929,-4.0998,-4.1042,-4.1023,-4.1045,-4.1074,-4.1072,-4.1023,-4.0991,-4.0988,-4.0979,-4.0978,-4.0918,-4.0597,-4.0168,-3.9886,-3.9595,-3.9137,-3.9017,-3.8377,-3.7156,-3.65,-3.545,-3.1864,-2.4275,-1.4879,-0.5681,0.374,1.3374,2.1713,2.4594,2.6683,2.8896,3.0904,3.2665,3.4243,3.532,3.5385,3.4514,3.3905,3.3575,3.3227,3.3241,3.3782,3.4476,3.4491,3.3948,3.3283,3.2533,3.1942,3.1603,3.1048,3.0836,3.0533,2.9793,2.9049,2.8725,2.6901,2.5572,2.4514,2.3058,2.2143,2.1873,2.1797,2.1645,2.1425,2.1272,2.1205,2.1061,2.1051,2.0974,2.0809,2.0819,2.0829,2.0741,2.0654,2.0654,2.0576,2.0576,2.0615,2.0889,2.0951,2.1106,2.1161,2.1269,2.1605,2.1632,2.1649,2.1454,2.1006,2.0555,1.992,1.9538,1.8703,1.7296,1.5886,1.533,1.4675,1.4004,1.3238,1.2856,1.2759,1.2759,1.2759,1.237,1.217,1.2175,1.2165,1.2252,1.2452,-4.0005,-4.0183,-4.0265,-4.0474,-4.0712,-4.0781,-4.0863,-4.0961,-4.0916,-4.0941,-4.103,-4.1014,-4.0995,-4.099,-4.1001,-4.0996,-4.0959,-4.0942,-4.0665,-4.0307,-4.0024,-3.9637,-3.9133,-3.8718,-3.812,-3.727,-3.6222,-3.4993,-3.1632,-2.3779,-1.4272,-0.473,0.4801,1.4317,2.2469,2.5757,2.7547,2.9965,3.1639,3.3249,3.4836,3.5721,3.5529,3.4514,3.4461,3.4124,3.3851,3.3851,3.4423,3.5424,3.5489,3.5052,3.4177,3.3129,3.2001,3.1869,3.1048,3.0685,3.0457,2.9793,2.913,2.8457,2.6688,2.5301,2.4467,2.3243,2.225,2.1807,2.1578,2.1359,2.1215,2.1051,2.0974,2.0896,2.0819,2.0731,2.0654,2.0731,2.0731,2.0654,2.0654,2.0576,2.0576,2.0576,2.0576,2.0625,2.069,2.0799,2.0775,2.0874,2.1137,2.1556,2.1507,2.148,2.106,2.0619,2.0076,1.9687,1.8864,1.7832,1.6432,1.6075,1.571,1.4478,1.3811,1.3522,1.3426,1.3624,1.3426,1.2754,1.2446,1.2528,1.2425,1.2323,1.248,-3.9432,-3.9687,-4.0114,-4.0327,-4.0433,-4.0671,-4.0781,-4.0809,-4.0816,-4.0824,-4.0875,-4.0953,-4.0983,-4.0996,-4.1053,-4.0996,-4.0869,-4.0846,-4.0723,-4.0389,-4.0024,-3.9486,-3.9037,-3.8345,-3.7682,-3.6826,-3.5847,-3.4896,-3.195,-2.3739,-1.3835,-0.4868,0.4861,1.4809,2.2551,2.621,2.8393,3.0882,3.2694,3.4297,3.5483,3.6196,3.5928,3.4647,3.4728,3.4543,3.4138,3.4259,3.4758,3.5439,3.5489,3.5052,3.4259,3.3339,3.2376,3.1394,3.0836,3.0546,3.0228,3.0062,2.9626,2.9031,2.7577,2.6529,2.5489,2.3916,2.2649,2.2035,2.1502,2.0974,2.0974,2.0819,2.0731,2.0644,2.0644,2.0654,2.0644,2.0644,2.0644,2.0576,2.0576,2.0576,2.0576,2.0576,2.0576,2.0489,2.0389,2.0471,2.051,2.051,2.0569,2.0976,2.1364,2.1271,2.1025,2.0593,2.0141,2.0008,1.9455,1.909,1.7987,1.7468,1.672,1.5356,1.4848,1.4829,1.4841,1.4632,1.4094,1.3452,1.32,1.2951,1.2655,1.2363,1.2183,-3.9154,-3.9327,-3.9719,-3.9947,-4.008,-4.0354,-4.0513,-4.0539,-4.0696,-4.0761,-4.081,-4.0874,-4.091,-4.0914,-4.0922,-4.0892,-4.0863,-4.0887,-4.074,-4.0429,-3.9948,-3.9471,-3.9025,-3.8168,-3.7578,-3.6796,-3.5744,-3.4591,-3.276,-2.2881,-1.3292,-0.3738,0.6157,1.6249,2.4162,2.788,2.9836,3.2006,3.3666,3.5019,3.5963,3.66,3.5991,3.5335,3.4993,3.4861,3.4543,3.4476,3.4905,3.5359,3.5439,3.4691,3.3837,3.3143,3.2461,3.1381,3.0672,3.0318,3.0075,2.9896,2.9462,2.887,2.7621,2.6375,2.535,2.3966,2.2821,2.2187,2.1339,2.0731,2.0731,2.0654,2.0654,2.0576,2.0576,2.0576,2.0566,2.0576,2.0576,2.0576,2.0576,2.0576,2.0576,2.0576,2.0576,2.0411,2.0177,2.0163,2.0282,2.0167,2.0163,2.0291,2.0674,2.067,2.0554,2.0305,2.0001,1.9911,1.9642,1.9282,1.8773,1.7902,1.6963,1.5903,1.578,1.5919,1.5317,1.4778,1.4353,1.4017,1.3502,1.3082,1.2735,1.2379,1.2118,-3.8836,-3.9063,-3.9313,-3.9543,-3.9772,-4.0003,-4.0156,-4.0238,-4.0404,-4.0552,-4.0688,-4.069,-4.0731,-4.0772,-4.0813,-4.0842,-4.0898,-4.0964,-4.0809,-4.0494,-4.0022,-3.9564,-3.9018,-3.8264,-3.7469,-3.6897,-3.5602,-3.4312,-3.1591,-2.2556,-1.2503,-0.2943,0.7482,1.7722,2.5571,2.9092,3.1224,3.3062,3.4531,3.5569,3.623,3.6523,3.6258,3.5544,3.532,3.519,3.481,3.489,3.4986,3.5279,3.5148,3.4491,3.3213,3.2733,3.2232,3.1442,3.0583,3.0152,2.9844,2.9677,2.9269,2.8741,2.7372,2.6042,2.4748,2.3751,2.2617,2.1797,2.1031,2.0411,2.0411,2.0411,2.0411,2.0489,2.0489,2.0566,2.0566,2.0566,2.0566,2.0576,2.0576,2.0576,2.0576,2.0576,2.0576,2.0489,2.0177,2.002,2.0042,1.9836,1.9715,1.9669,1.9856,1.9938,1.9894,1.9809,1.9686,1.9624,1.9264,1.8822,1.837,1.7833,1.7017,1.6544,1.6562,1.6493,1.5691,1.5172,1.5035,1.4585,1.3828,1.3121,1.2456,1.2144,1.1903,-3.8415,-3.8862,-3.9054,-3.9301,-3.9537,-3.975,-3.9861,-3.9884,-3.9925,-4.0043,-4.0279,-4.0369,-4.0519,-4.0718,-4.0844,-4.0879,-4.0917,-4.0968,-4.091,-4.0626,-4.0072,-3.9572,-3.907,-3.8164,-3.7415,-3.6702,-3.5376,-3.4413,-3.0695,-2.215,-1.2539,-0.2747,0.8585,1.7801,2.6754,2.9883,3.1901,3.3743,3.5166,3.6238,3.6737,3.6739,3.6258,3.5816,3.5623,3.5544,3.5169,3.5184,3.5359,3.5213,3.5228,3.4385,3.3044,3.2492,3.1563,3.0722,3.0152,2.9908,2.9586,2.9419,2.9098,2.8598,2.7581,2.6657,2.5013,2.3025,2.1548,2.0644,2.0186,2.0098,2.0098,2.002,2.002,2.0098,2.0255,2.0333,2.0333,2.0489,2.0489,2.0576,2.0576,2.0576,2.0576,2.0576,2.0566,2.0411,2.0255,2.002,1.9813,1.9617,1.954,1.9489,1.9288,1.9353,1.9428,1.934,1.929,1.9239,1.8894,1.8531,1.8181,1.7849,1.7794,1.7383,1.7274,1.709,1.6529,1.6125,1.5807,1.5205,1.4356,1.3224,1.2026,1.1809,1.1954,-3.7774,-3.8382,-3.8778,-3.8998,-3.9137,-3.9464,-3.9632,-3.9637,-3.9754,-3.9861,-4.0003,-4.0174,-4.0412,-4.0665,-4.085,-4.0899,-4.0917,-4.0957,-4.0832,-4.0579,-4.0051,-3.9589,-3.9013,-3.8113,-3.7285,-3.6566,-3.5135,-3.3796,-2.8873,-1.8269,-0.6618,-0.0989,1.3023,2.3391,2.798,3.0527,3.2452,3.4164,3.5714,3.6836,3.6982,3.6862,3.66,3.6085,3.6022,3.5816,3.5574,3.5409,3.5469,3.5338,3.5192,3.4375,3.3227,3.2386,3.1489,2.9883,2.9664,2.9586,2.9431,2.9184,2.8802,2.8268,2.732,2.6123,2.445,2.2342,2.0934,2.0779,2.0245,1.9942,1.9863,1.9872,1.9872,1.9942,2.002,2.0177,2.0264,2.0342,2.042,2.0498,2.0576,2.0576,2.0576,2.0576,2.0566,2.0489,2.0255,1.9942,1.9784,1.9585,1.95,1.9494,1.9183,1.8883,1.8915,1.8972,1.8877,1.8845,1.8684,1.8321,1.8093,1.7891,1.7714,1.7355,1.6954,1.6869,1.6969,1.6722,1.6196,1.549,1.4767,1.3764,1.2859,1.273,1.2781,-3.6907,-3.7596,-3.83,-3.8621,-3.8743,-3.9165,-3.9324,-3.9331,-3.9519,-3.9641,-3.9775,-3.9983,-4.0281,-4.0572,-4.0727,-4.0823,-4.089,-4.0971,-4.0754,-4.0398,-3.998,-3.9523,-3.8867,-3.7987,-3.734,-3.6946,-3.4843,-3.3405,-2.7475,-1.7306,-0.6779,-0.022,1.7634,2.6527,2.9095,3.1338,3.3521,3.5319,3.679,3.7429,3.7345,3.7389,3.7074,3.6708,3.6399,3.6148,3.591,3.5604,3.5419,3.5317,3.4994,3.4268,3.3153,3.2368,3.1206,2.9871,2.9341,2.9275,2.9184,2.8991,2.8499,2.7681,2.6376,2.4835,2.34,2.1375,2.0177,2.0547,2.0079,1.9784,1.9784,1.9706,1.9706,1.9706,1.9794,1.9951,2.0186,2.0264,2.042,2.0576,2.0576,2.0576,2.0576,2.0576,2.0566,2.0566,2.0255,1.9942,1.9696,1.946,1.9408,1.9393,1.9181,1.8842,1.8734,1.874,1.8599,1.8485,1.8328,1.8054,1.7854,1.7507,1.7193,1.6974,1.673,1.6719,1.6818,1.669,1.6553,1.5727,1.4986,1.4656,1.4088,1.3893,1.3555,-3.5797,-3.6301,-3.7542,-3.8219,-3.8446,-3.8743,-3.8862,-3.8902,-3.9101,-3.9331,-3.9561,-3.9735,-4.0005,-4.0308,-4.0521,-4.0708,-4.0898,-4.0965,-4.075,-4.0378,-3.9947,-3.9373,-3.8674,-3.7954,-3.7193,-3.6556,-3.4549,-3.2809,-2.9244,-1.9877,-0.9608,0.0278,1.7248,2.5558,3.0031,3.2357,3.4958,3.6581,3.7751,3.7796,3.7886,3.7927,3.778,3.7131,3.6845,3.6477,3.5752,3.5394,3.5177,3.517,3.4861,3.4157,3.307,3.2413,3.1281,2.9935,2.925,2.9106,2.887,2.8676,2.8252,2.7018,2.5202,2.3427,2.2574,2.0779,1.9872,1.9863,1.9618,1.945,1.9381,1.9381,1.946,1.9469,1.9636,1.9794,2.0029,2.0264,2.0342,2.0576,2.0576,2.0576,2.0576,2.0576,2.0576,2.0566,2.0177,1.9863,1.9539,1.9371,1.9371,1.924,1.917,1.8958,1.8718,1.8637,1.8473,1.8327,1.8155,1.7868,1.7581,1.7221,1.7049,1.6796,1.6722,1.6722,1.6656,1.6668,1.6376,1.5702,1.522,1.5061,1.4894,1.4559,1.4223,-3.5667,-3.6195,-3.7303,-3.7915,-3.8186,-3.8603,-3.8773,-3.8833,-3.9036,-3.9264,-3.9508,-3.9633,-3.9831,-4.0123,-4.0438,-4.0609,-4.074,-4.0915,-4.0696,-4.0281,-3.9757,-3.918,-3.8493,-3.7522,-3.6544,-3.5331,-3.3483,-3.1796,-2.9391,-1.9858,-0.9354,0.258,1.5341,2.3537,2.8882,3.3426,3.5927,3.7519,3.7978,3.7786,3.7943,3.7886,3.7695,3.7175,3.689,3.6415,3.5737,3.5394,3.5148,3.4964,3.4779,3.3868,3.2888,3.2475,3.1455,2.9947,2.9484,2.9106,2.853,2.8323,2.7866,2.631,2.428,2.2551,2.2069,2.0557,1.9715,1.9478,1.939,1.9292,1.9292,1.9292,1.9292,1.939,1.9478,1.9715,1.9882,2.0108,2.0342,2.0566,2.0566,2.0576,2.0576,2.0576,2.0576,2.0566,2.0177,1.9784,1.9539,1.9292,1.9292,1.9292,1.9152,1.9082,1.8851,1.8603,1.8362,1.8201,1.8031,1.7789,1.7554,1.7392,1.7221,1.6968,1.6714,1.6722,1.673,1.6648,1.6394,1.5974,1.5899,1.5816,1.5567,1.5228,1.5061,-3.4973,-3.5545,-3.6516,-3.7303,-3.7862,-3.8216,-3.8491,-3.8664,-3.8748,-3.9064,-3.9383,-3.9449,-3.9602,-3.9925,-4.0254,-4.0494,-4.0636,-4.0801,-4.0615,-4.0145,-3.9543,-3.892,-3.8026,-3.6854,-3.5419,-3.3971,-3.1628,-2.9711,-2.3515,-1.694,-0.522,0.5719,1.3185,2.2196,3.0591,3.4555,3.668,3.804,3.81,3.7669,3.7886,3.8059,3.7653,3.7251,3.7011,3.6415,3.5737,3.5198,3.5001,3.4861,3.4457,3.3659,3.2847,3.2146,3.1548,3.0368,2.9419,2.904,2.845,2.7593,2.7082,2.5947,2.4024,2.2649,2.1603,2.0624,1.9932,1.9301,1.9292,1.9292,1.9292,1.9292,1.9292,1.9301,1.9478,1.9715,1.9872,2.0108,2.0333,2.0566,2.0566,2.0576,2.0576,2.0576,2.0576,2.0498,2.0108,1.9784,1.9548,1.9381,1.9292,1.9292,1.9222,1.9073,1.9002,1.8763,1.8531,1.8282,1.8121,1.7951,1.7708,1.7546,1.7286,1.6846,1.6764,1.6706,1.6722,1.6632,1.664,1.6484,1.6402,1.6237,1.6237,1.5982,1.5899,-3.3454,-3.4055,-3.5098,-3.6336,-3.7468,-3.7414,-3.7755,-3.8346,-3.8337,-3.8615,-3.9129,-3.9154,-3.9314,-3.9616,-3.9981,-4.0254,-4.046,-4.075,-4.0613,-3.9998,-3.9372,-3.8581,-3.7166,-3.5801,-3.4319,-3.3217,-3.0552,-2.4911,-1.5186,-1.3434,-0.1411,1.2253,1.9234,2.4391,3.3128,3.4963,3.6659,3.8253,3.8084,3.7969,3.7985,3.8423,3.8084,3.7429,3.7235,3.6692,3.5752,3.5118,3.4868,3.4578,3.4542,3.3367,3.1667,3.183,3.0994,2.9287,2.8724,2.8395,2.8096,2.6816,2.6228,2.5743,2.4002,2.2735,2.1918,2.1001,2.0157,1.9687,1.9371,1.9292,1.9292,1.9292,1.9292,1.9381,1.9469,1.9715,1.9951,2.0186,2.0489,2.0566,2.0566,2.0576,2.0576,2.0576,2.0498,2.0342,2.0108,1.9794,1.9627,1.9469,1.9381,1.9292,1.9222,1.9231,1.9082,1.8851,1.862,1.8451,1.8201,1.8031,1.7861,1.77,1.7342,1.6895,1.6838,1.6968,1.6878,1.6706,1.6632,1.6648,1.6648,1.6566,1.6648,1.6566,1.6402,-3.3367,-3.4022,-3.4961,-3.5874,-3.6643,-3.6773,-3.7251,-3.7977,-3.848,-3.8876,-3.9055,-3.9101,-3.9119,-3.9392,-3.9769,-4.0088,-4.0209,-4.0439,-4.0292,-4.0125,-3.9194,-3.7747,-3.6282,-3.4756,-3.3056,-3.0953,-2.8371,-2.2043,-1.2158,-0.9241,0.1681,1.5238,2.5938,3.1694,3.4821,3.6394,3.7531,3.8669,3.8486,3.7985,3.7985,3.8495,3.8479,3.7413,3.7413,3.6829,3.5752,3.5184,3.4668,3.4171,3.4001,3.3209,3.1469,3.1343,3.0444,2.9356,2.8912,2.8361,2.7486,2.634,2.5827,2.5241,2.422,2.3034,2.2531,2.1231,2.0537,2.0079,1.9608,1.945,1.9292,1.9292,1.9292,1.9381,1.9548,1.9784,2.0029,2.0333,2.0566,2.0566,2.0576,2.0576,2.0576,2.0576,2.0498,2.0498,2.0264,1.9951,1.9715,1.9557,1.9478,1.9381,1.9301,1.9222,1.9152,1.8922,1.8772,1.8612,1.8442,1.8201,1.8031,1.7861,1.77,1.7432,1.7375,1.7229,1.7049,1.6878,1.6722,1.6648,1.673,1.673,1.6648,1.6648,1.6648,-3.2562,-3.3367,-3.4072,-3.4795,-3.5442,-3.5788,-3.6411,-3.7237,-3.8063,-3.8667,-3.9008,-3.9082,-3.9167,-3.9359,-3.9631,-3.9906,-3.9959,-4.0092,-4.0021,-3.9776,-3.8248,-3.6822,-3.5348,-3.3466,-3.1253,-2.8377,-2.2911,-1.6037,-0.4555,-0.1242,1.0302,2.4293,3.2265,3.4622,3.6386,3.697,3.7619,3.8335,3.8035,3.761,3.7653,3.787,3.7838,3.7251,3.689,3.6523,3.58,3.5103,3.437,3.3703,3.324,3.2791,3.1381,3.0252,2.9605,2.911,2.8652,2.8044,2.7137,2.6216,2.5784,2.557,2.4217,2.3375,2.299,2.208,2.1155,2.0537,1.9991,1.9608,1.9371,1.9371,1.9381,1.946,1.9618,1.9863,2.0108,2.0411,2.0566,2.0566,2.0576,2.0576,2.0576,2.0576,2.0576,2.0576,2.0498,2.0186,1.9872,1.9724,1.9645,1.9469,1.9381,1.9301,1.9231,1.9073,1.8922,1.8851,1.8603,1.8362,1.8193,1.8023,1.7959,1.7895,1.7635,1.7465,1.7221,1.7057,1.6894,1.6812,1.6738,1.6738,1.673,1.673,1.673,-3.1159,-3.2133,-3.2351,-3.3124,-3.4068,-3.4622,-3.5328,-3.626,-3.695,-3.799,-3.9101,-3.9101,-3.9201,-3.9484,-3.9544,-3.9645,-3.9778,-3.98,-3.9342,-3.8588,-3.7099,-3.5737,-3.3769,-3.143,-2.8387,-2.394,-1.7606,-0.8068,0.4747,1.4001,2.4817,3.1966,3.4803,3.6246,3.6644,3.6911,3.7486,3.7797,3.7794,3.7326,3.727,3.7238,3.7147,3.6799,3.643,3.6117,3.5494,3.492,3.4016,3.3213,3.24,3.1347,3.0139,2.9008,2.8585,2.8143,2.7846,2.7452,2.6864,2.6003,2.5601,2.5348,2.462,2.3801,2.3287,2.2767,2.1918,2.1155,2.0615,1.9991,1.9529,1.9539,1.9539,1.9696,1.9784,2.002,2.0264,2.042,2.0576,2.0576,2.0576,2.0576,2.0576,2.0576,2.0576,2.0576,2.0576,2.0489,2.0177,1.9882,1.9803,1.9636,1.9469,1.9381,1.9231,1.9152,1.9073,1.8922,1.8763,1.8523,1.8353,1.8193,1.8121,1.7959,1.7781,1.7619,1.7456,1.7302,1.7139,1.7057,1.6984,1.682,1.673,1.673,1.673,-3.094,-3.166,-3.2185,-3.2803,-3.3495,-3.4154,-3.5082,-3.622,-3.6932,-3.7921,-3.9101,-3.9101,-3.9169,-3.9182,-3.9415,-3.9509,-3.949,-3.9223,-3.8223,-3.7265,-3.6373,-3.4336,-3.2176,-2.9717,-2.4968,-1.8086,-1.037,0.0166,1.4996,2.6891,3.2026,3.5931,3.6381,3.6665,3.6681,3.6632,3.7119,3.7498,3.7463,3.7112,3.6952,3.7103,3.6982,3.686,3.6321,3.6054,3.5849,3.4971,3.3865,3.2376,3.1936,3.0898,2.9238,2.8481,2.8016,2.7742,2.7371,2.6955,2.6278,2.5888,2.5509,2.4992,2.4407,2.4219,2.3751,2.3298,2.2531,2.1842,2.1385,2.0847,2.0304,2.0079,2.001,2.001,2.0089,2.0255,2.0489,2.0489,2.0566,2.0576,2.0576,2.0576,2.0576,2.0576,2.0576,2.0576,2.0566,2.0566,2.0411,2.0186,1.996,1.9872,1.9636,1.9478,1.939,1.9311,1.9152,1.9002,1.8843,1.8683,1.8523,1.8353,1.8193,1.8031,1.7861,1.7781,1.7619,1.7456,1.7302,1.7302,1.7229,1.6984,1.682,1.6812,1.6812,-3.0466,-3.1086,-3.1751,-3.2524,-3.3232,-3.348,-3.4626,-3.6387,-3.7023,-3.7921,-3.9008,-3.9101,-3.9117,-3.9199,-3.9247,-3.9273,-3.9346,-3.9419,-3.8559,-3.696,-3.5949,-3.3886,-3.1604,-2.5566,-1.8588,-1.1196,-0.1343,1.038,2.2437,3.1008,3.6786,3.69,3.6995,3.7013,3.6882,3.6576,3.6621,3.6914,3.703,3.6817,3.6843,3.6921,3.6921,3.6937,3.6383,3.6228,3.6072,3.4957,3.3754,3.2191,3.1676,3.0568,2.8905,2.8001,2.7706,2.7522,2.7348,2.699,2.6542,2.5968,2.5417,2.4866,2.4395,2.4212,2.4055,2.3751,2.3065,2.2456,2.2231,2.1918,2.1308,2.0769,2.0547,2.0401,2.0479,2.0557,2.0566,2.0566,2.0566,2.0566,2.0576,2.0576,2.0576,2.0576,2.0576,2.0576,2.0576,2.0566,2.0489,2.0333,2.0186,2.0108,1.9803,1.9645,1.9557,1.9469,1.9311,1.9152,1.9002,1.8843,1.8603,1.8442,1.8273,1.8112,1.7951,1.7861,1.7781,1.7619,1.7538,1.7465,1.7473,1.731,1.7147,1.7066,1.7147,-2.9846,-3.0542,-3.1319,-3.2547,-3.3383,-3.3255,-3.4667,-3.7095,-3.7503,-3.8077,-3.8998,-3.9101,-3.9261,-3.9466,-3.9394,-3.9081,-3.9062,-3.9095,-3.7721,-3.6336,-3.5065,-3.3191,-2.7762,-1.8249,-1.2413,-0.3209,0.762,1.8942,2.4089,3.1674,3.7017,3.7108,3.7223,3.7223,3.7058,3.6314,3.6238,3.6555,3.631,3.5947,3.6292,3.6289,3.6163,3.6336,3.607,3.5785,3.5449,3.4832,3.4105,3.265,3.1636,3.0618,2.8721,2.7726,2.7545,2.7441,2.7301,2.7047,2.668,2.6117,2.5716,2.5222,2.4763,2.4349,2.4116,2.4043,2.3519,2.2681,2.2306,2.1918,2.1308,2.1078,2.0934,2.0779,2.0702,2.0712,2.0557,2.0566,2.0566,2.0576,2.0576,2.0576,2.0576,2.0576,2.0576,2.0576,2.0576,2.0576,2.0566,2.0401,2.0391,2.0333,2.0108,1.9803,1.9636,1.9548,1.939,1.9231,1.9152,1.9002,1.8843,1.8603,1.8353,1.8193,1.8031,1.8031,1.7951,1.7789,1.7708,1.7708,1.7635,1.7554,1.7473,1.7392,1.7383,-2.9875,-3.0645,-3.2253,-3.3681,-3.4891,-3.5734,-3.6397,-3.738,-3.898,-3.9357,-3.9157,-3.9137,-3.9342,-3.9648,-3.9575,-3.9087,-3.815,-3.7981,-3.6014,-3.3852,-3.2512,-2.9837,-2.6909,-1.3877,-0.6502,0.3058,1.4547,2.6545,3.1299,3.5405,3.719,3.7167,3.7374,3.754,3.7126,3.6249,3.5954,3.6342,3.5704,3.5596,3.6089,3.6352,3.6476,3.6196,3.58,3.5529,3.5139,3.4491,3.3518,3.2365,3.2746,3.0885,2.7722,2.7566,2.7418,2.7301,2.7208,2.7047,2.6668,2.6152,2.5704,2.5142,2.4636,2.4361,2.42,2.4189,2.3813,2.2979,2.222,2.1842,2.1614,2.1538,2.1395,2.1242,2.1011,2.0789,2.0634,2.0566,2.0576,2.0576,2.0576,2.0576,2.0576,2.0576,2.0576,2.0576,2.0576,2.0566,2.0644,2.0557,2.0605,2.0527,2.0333,2.0108,1.9872,1.9636,1.9469,1.939,1.9231,1.9152,1.9002,1.8763,1.8434,1.8353,1.8193,1.8112,1.8031,1.7951,1.7951,1.787,1.787,1.7716,1.7797,1.7878,1.7708,-2.8743,-2.9846,-3.1686,-3.395,-3.6023,-3.6998,-3.7774,-3.8816,-4.0281,-4.0056,-3.8972,-3.9545,-3.9818,-3.9325,-3.9093,-3.8053,-3.6729,-3.6824,-3.5187,-3.2645,-2.6783,-2.3335,-1.6725,-0.5732,0.5253,1.515,2.3731,3.2731,3.6523,3.7283,3.7395,3.7413,3.7757,3.7649,3.7087,3.6207,3.5839,3.6234,3.5367,3.549,3.5946,3.61,3.6148,3.5816,3.5721,3.5464,3.5073,3.4505,3.3742,3.2478,3.2058,3.024,2.792,2.7325,2.7267,2.7219,2.7174,2.7001,2.6554,2.6129,2.5658,2.5096,2.4837,2.4664,2.4212,2.4189,2.4116,2.3361,2.2446,2.1918,2.2456,2.2617,2.2166,2.1863,2.1405,2.1031,2.0799,2.0566,2.0576,2.0576,2.0576,2.0576,2.0576,2.0576,2.0576,2.0576,2.0576,2.0576,2.0644,2.0712,2.075,2.0663,2.0469,2.0333,2.0108,1.9794,1.9548,1.9469,1.939,1.9231,1.9082,1.8843,1.8603,1.8442,1.8273,1.8201,1.8121,1.8031,1.8031,1.7951,1.7951,1.7951,1.8112,1.8353,1.8425,-2.7864,-2.9402,-3.1117,-3.4034,-3.7345,-3.7792,-3.8897,-4.0448,-4.1368,-4.063,-3.9181,-4.0577,-3.9752,-3.8262,-3.7914,-3.623,-3.5297,-3.5441,-3.4106,-2.6877,-1.9792,-1.4635,-0.3485,1.0477,1.8758,2.5657,3.2944,3.5211,3.7088,3.7425,3.7596,3.7774,3.7774,3.7614,3.6904,3.6358,3.6089,3.5942,3.5603,3.5675,3.5717,3.5748,3.5703,3.5752,3.5657,3.535,3.4957,3.4558,3.4074,3.2763,3.1101,2.9162,2.7908,2.7267,2.7232,2.7231,2.7231,2.7001,2.668,2.6347,2.5784,2.5291,2.5159,2.4802,2.4303,2.4043,2.4043,2.3666,2.2756,2.2456,2.299,2.2916,2.2467,2.2101,2.1568,2.1185,2.0876,2.0576,2.0576,2.0576,2.0576,2.0576,2.0576,2.0576,2.0576,2.0576,2.0576,2.0576,2.0644,2.0702,2.076,2.0672,2.0527,2.0391,2.0304,2.0108,1.9794,1.9548,1.9469,1.9231,1.9073,1.8913,1.8763,1.8603,1.8442,1.8362,1.8201,1.8112,1.8112,1.8193,1.8353,1.8505,1.8665,1.8904,1.9301,-3.0119,-3.321,-3.3625,-3.607,-3.943,-3.981,-4.0391,-4.1313,-4.2091,-4.2092,-4.1081,-4.013,-3.8856,-3.6076,-3.8276,-3.7021,-3.3562,-3.3063,-2.4595,-1.6038,-1.0806,-0.489,0.4748,1.9346,2.8529,3.4119,3.737,3.7637,3.7739,3.7589,3.7667,3.7984,3.8138,3.7792,3.7076,3.65,3.6002,3.5829,3.5498,3.5385,3.5904,3.5846,3.5574,3.5429,3.5154,3.4706,3.4249,3.3922,3.3479,3.2365,3.0634,2.8771,2.7801,2.73,2.7151,2.7231,2.7231,2.7105,2.6818,2.6358,2.5773,2.5394,2.5136,2.4572,2.4089,2.3666,2.374,2.3897,2.3213,2.2606,2.2767,2.208,2.1548,2.1482,2.1195,2.0954,2.0644,2.0644,2.0576,2.0576,2.0576,2.0576,2.0576,2.0576,2.0576,2.0576,2.0576,2.0644,2.0876,2.0857,2.0991,2.0777,2.0681,2.0517,2.0544,2.0469,2.0186,1.9863,1.9627,1.9539,1.946,1.9073,1.8922,1.8763,1.8763,1.8683,1.8523,1.8585,1.8505,1.8585,1.8904,1.9143,1.9213,1.9599,2.0148]},{"header":{"parameterUnit":"m.s-1","parameterCategory":1,"la1":31.0,"la2":29.5877,"lo1":-88.7671,"lo2":-86.6584,"dx":0.0162,"dy":0.0185,"nx":115,"ny":88,"refTime":"2022-12-07T18:00:00:Z","depth":0,"parameterNumber":3,"parameterNumberName":"V-component_of_WINDS"},"data":[0.0,0.0,0.0,0.0,0.0,0.0,0.0,0.0,0.0,0.0,0.0,0.0,0.0,0.0,0.0,0.0,0.0,0.0,0.0,0.0,0.0,0.0,0.0,0.0,0.0,0.0,0.0,0.0,0.0,0.0,0.0,0.0,0.0,0.0,0.0,0.0,0.0,0.0,0.0,0.0,0.0,0.0,0.0,0.0,0.0,0.0,0.0,0.0,0.0,0.0,0.0,0.0,0.0,0.0,0.0,0.0,0.0,0.0,0.0,0.0,0.0,0.0,0.0,0.0,0.0,0.0,0.0,0.0,0.0,0.0,0.0,0.0,0.0,0.0,0.0,0.0,0.0,0.0,0.0,0.0,0.0,0.0,0.0,0.0,0.0,0.0,0.0,0.0,0.0,0.0,0.0,0.0,0.0,0.0,0.0,0.0,0.0,0.0,0.0,0.0,0.0,0.0,0.0,0.0,0.0,0.0,0.0,0.0,0.0,0.0,0.0,0.0,0.0,0.0,0.0,0.0,0.0,0.0,0.0,0.0,0.0,0.0,0.0,0.0,0.0,0.0,0.0,0.0,0.0,0.0,0.0,0.0,0.0,0.0,0.0,0.0,0.0,0.0,0.0,0.0,0.0,0.0,0.0,0.0,0.0,0.0,0.0,0.0,0.0,0.0,0.0,0.0,0.0,0.0,0.0,0.0,0.0,0.0,0.0,0.0,0.0,0.0,0.0,0.0,0.0,0.0,0.0,0.0,0.0,0.0,0.0,0.0,0.0,0.0,0.0,0.0,0.0,0.0,0.0,0.0,0.0,0.0,0.0,0.0,0.0,0.0,0.0,0.0,0.0,0.0,0.0,0.0,0.0,0.0,0.0,0.0,0.0,0.0,0.0,0.0,0.0,0.0,0.0,0.0,0.0,0.0,0.0,0.0,0.0,0.0,0.0,0.0,0.0,0.0,0.0,0.0,0.0,0.0,0.0,0.0,0.0,0.0,0.0,0.0,0.0,0.0,0.0,0.0,0.0,0.0,0.0,0.0,0.0,0.0,0.0,0.0,0.0,0.0,0.0,0.0,0.0,0.0,0.0,0.0,0.0,0.0,0.0,0.0,0.0,0.0,0.0,0.0,0.0,0.0,0.0,0.0,0.0,0.0,0.0,0.0,0.0,0.0,0.0,0.0,0.0,0.0,0.0,0.0,0.0,0.0,0.0,0.0,0.0,0.0,0.0,0.0,0.0,0.0,0.0,0.0,0.0,0.0,0.0,0.0,0.0,0.0,0.0,0.0,0.0,0.0,0.0,0.0,0.0,0.0,0.0,0.0,0.0,0.0,0.0,0.0,0.0,0.0,0.0,0.0,0.0,0.0,0.0,0.0,0.0,0.0,0.0,0.0,0.0,0.0,0.0,0.0,0.0,0.0,0.0,0.0,0.0,0.0,0.0,0.0,0.0,0.0,0.0,0.0,0.0,0.0,0.0,0.0,0.0,0.0,0.0,0.0,0.0,0.0,0.0,0.0,0.0,0.0,0.0,0.0,0.0,0.0,0.0,0.0,0.0,0.0,0.0,0.0,0.0,0.0,0.0,0.0,0.0,0.0,0.0,0.0,0.0,0.0,0.0,0.0,0.0,0.0,0.0,0.0,0.0,0.0,0.0,0.0,0.0,0.0,0.0,0.0,0.0,0.0,0.0,0.0,0.0,0.0,0.0,0.0,0.0,0.0,0.0,0.0,0.0,0.0,0.0,0.0,0.0,0.0,0.0,0.0,0.0,0.0,0.0,0.0,0.0,0.0,0.0,0.0,0.0,0.0,0.0,0.0,0.0,0.0,0.0,0.0,0.0,0.0,0.0,0.0,0.0,0.0,0.0,0.0,0.0,0.0,0.0,0.0,0.0,0.0,0.0,0.0,0.0,0.0,0.0,0.0,0.0,0.0,0.0,0.0,0.0,0.0,0.0,0.0,0.0,0.0,0.0,0.0,0.0,0.0,0.0,0.0,0.0,0.0,0.0,0.0,0.0,0.0,0.0,0.0,0.0,0.0,0.0,0.0,0.0,0.0,0.0,0.0,0.0,0.0,0.0,0.0,0.0,0.0,0.0,0.0,0.0,0.0,0.0,0.0,0.0,0.0,0.0,0.0,0.0,0.0,0.0,0.0,0.0,0.0,0.0,0.0,0.0,0.0,0.0,0.0,0.0,0.0,0.0,0.0,0.0,0.0,0.0,0.0,0.0,0.0,0.0,0.0,0.0,0.0,0.0,0.0,0.0,0.0,0.0,0.0,0.0,0.0,0.0,0.0,0.0,0.0,0.0,0.0,0.0,0.0,0.0,0.0,0.0,0.0,0.0,0.0,0.0,0.0,0.0,0.0,0.0,0.0,0.0,0.0,0.0,0.0,0.0,0.0,0.0,0.0,0.0,0.0,0.0,0.0,0.0,0.0,0.0,0.0,0.0,0.0,0.0,0.0,0.0,0.0,0.0,0.0,0.0,0.0,0.0,0.0,0.0,0.0,0.0,0.0,0.0,0.0,0.0,0.0,0.0,0.0,0.0,0.0,0.0,0.0,0.0,0.0,0.0,0.0,0.0,0.0,0.0,0.0,0.0,0.0,0.0,0.0,0.0,0.0,0.0,0.0,0.0,0.0,0.0,0.0,0.0,0.0,0.0,0.0,0.0,0.0,0.0,0.0,0.0,0.0,0.0,0.0,0.0,0.0,0.0,0.0,0.0,0.0,0.0,0.0,0.0,0.0,0.0,0.0,0.0,0.0,0.0,0.0,0.0,0.0,0.0,0.0,0.0,0.0,0.0,0.0,0.0,0.0,0.0,0.0,0.0,0.0,0.0,0.0,0.0,0.0,0.0,0.0,0.0,0.0,0.0,0.0,0.0,0.0,0.0,0.0,0.0,0.0,0.0,0.0,0.0,0.0,0.0,0.0,0.0,0.0,0.0,0.0,0.0,0.0,0.0,0.0,0.0,0.0,0.0,0.0,0.0,0.0,0.0,0.0,0.0,0.0,0.0,0.0,0.0,0.0,0.0,0.0,0.0,0.0,0.0,0.0,0.0,0.0,0.0,0.0,0.0,0.0,0.0,0.0,0.0,0.0,0.0,0.0,0.0,0.0,0.0,0.0,0.0,0.0,0.0,0.0,0.0,0.0,0.0,0.0,0.0,0.0,0.0,0.0,0.0,0.0,0.0,0.0,0.0,0.0,0.0,0.0,0.0,0.0,0.0,0.0,0.0,0.0,0.0,0.0,0.0,0.0,0.0,0.0,0.0,0.0,0.0,0.0,0.0,0.0,0.0,0.0,0.0,0.0,0.0,0.0,0.0,0.0,0.0,0.0,0.0,0.0,0.0,0.0,0.0,0.0,0.0,0.0,0.0,0.0,0.0,0.0,0.0,0.0,0.0,0.0,0.0,0.0,0.0,0.0,0.0,0.0,0.0,0.0,0.0,0.0,0.0,0.0,0.0,0.0,0.0,0.0,0.0,0.0,0.0,0.0,0.0,0.0,0.0,0.0,0.0,0.0,0.0,0.0,0.0,0.0,0.0,0.0,0.0,0.0,0.0,0.0,0.0,0.0,0.0,0.0,0.0,0.0,0.0,0.0,0.0,0.0,0.0,0.0,0.0,0.0,0.0,0.0,0.0,0.0,0.0,0.0,0.0,0.0,0.0,0.0,0.0,0.0,0.0,0.0,0.0,0.0,0.0,0.0,0.0,0.0,0.0,0.0,0.0,0.0,0.0,0.0,0.0,0.0,0.0,0.0,0.0,0.0,0.0,0.0,0.0,0.0,0.0,0.0,0.0,0.0,0.0,0.0,0.0,0.0,0.0,0.0,0.0,0.0,0.0,0.0,0.0,0.0,0.0,0.0,0.0,0.0,0.0,0.0,0.0,0.0,0.0,0.0,0.0,0.0,0.0,0.0,0.0,0.0,0.0,0.0,0.0,0.0,0.0,0.0,0.0,0.0,0.0,0.0,0.0,0.0,0.0,0.0,0.0,0.0,0.0,0.0,0.0,0.0,0.0,0.0,0.0,0.0,0.0,0.0,0.0,0.0,0.0,0.0,0.0,0.0,0.0,0.0,0.0,0.0,0.0,0.0,0.0,0.0,0.0,0.0,0.0,0.0,0.0,0.0,0.0,0.0,0.0,0.0,0.0,0.0,0.0,0.0,0.0,0.0,0.0,0.0,0.0,0.0,0.0,0.0,0.0,0.0,0.0,0.0,0.0,0.0,0.0,0.0,0.0,0.0,0.0,0.0,0.0,0.0,-2.5337,0.0,0.0,0.0,-2.3201,0.0,0.0,0.0,0.0,0.0,0.0,0.0,0.0,0.0,0.0,0.0,0.0,0.0,0.0,0.0,0.0,0.0,0.0,0.0,0.0,0.0,0.0,0.0,0.0,0.0,0.0,0.0,0.0,0.0,0.0,0.0,0.0,0.0,0.0,0.0,0.0,0.0,0.0,0.0,0.0,0.0,0.0,0.0,0.0,0.0,0.0,0.0,0.0,0.0,0.0,0.0,0.0,0.0,0.0,0.0,0.0,0.0,0.0,0.0,0.0,0.0,0.0,0.0,0.0,0.0,0.0,0.0,0.0,0.0,0.0,0.0,0.0,0.0,0.0,0.0,0.0,0.0,0.0,0.0,0.0,0.0,0.0,0.0,0.0,0.0,0.0,0.0,0.0,0.0,0.0,0.0,0.0,0.0,0.0,0.0,0.0,0.0,0.0,0.0,0.0,0.0,0.0,0.0,0.0,0.0,0.0,0.0,0.0,0.0,0.0,-2.579,-2.576,-2.5531,-2.4942,-2.388,0.0,0.0,0.0,0.0,0.0,0.0,0.0,0.0,0.0,0.0,0.0,0.0,0.0,0.0,0.0,0.0,0.0,0.0,0.0,0.0,0.0,0.0,0.0,0.0,0.0,0.0,0.0,0.0,0.0,0.0,0.0,0.0,0.0,0.0,0.0,0.0,0.0,0.0,0.0,0.0,0.0,0.0,0.0,0.0,0.0,0.0,0.0,0.0,0.0,0.0,0.0,0.0,0.0,0.0,0.0,0.0,0.0,0.0,0.0,0.0,0.0,0.0,0.0,0.0,0.0,0.0,0.0,0.0,0.0,0.0,0.0,0.0,0.0,0.0,0.0,0.0,0.0,0.0,0.0,0.0,0.0,0.0,0.0,0.0,0.0,0.0,0.0,0.0,0.0,0.0,0.0,0.0,0.0,0.0,0.0,0.0,0.0,0.0,0.0,0.0,0.0,0.0,0.0,0.0,0.0,0.0,0.0,0.0,0.0,0.0,0.0,0.0,-2.5967,-2.5343,-2.4478,0.0,0.0,0.0,0.0,0.0,0.0,0.0,0.0,0.0,0.0,0.0,0.0,0.0,0.0,0.0,0.0,0.0,0.0,0.0,0.0,0.0,0.0,0.0,0.0,0.0,0.0,0.0,0.0,0.0,0.0,0.0,0.0,0.0,0.0,0.0,0.0,0.0,0.0,0.0,0.0,0.0,0.0,0.0,0.0,0.0,0.0,0.0,0.0,0.0,0.0,0.0,0.0,0.0,0.0,0.0,0.0,0.0,0.0,0.0,0.0,0.0,0.0,0.0,0.0,0.0,0.0,0.0,0.0,0.0,0.0,0.0,0.0,0.0,0.0,0.0,0.0,0.0,0.0,0.0,0.0,0.0,0.0,0.0,0.0,0.0,0.0,0.0,0.0,0.0,0.0,0.0,0.0,0.0,0.0,0.0,0.0,0.0,0.0,0.0,0.0,0.0,0.0,0.0,0.0,0.0,0.0,0.0,0.0,0.0,0.0,-2.6274,-2.6485,-2.6505,0.0,-2.4355,0.0,0.0,0.0,0.0,0.0,0.0,0.0,0.0,0.0,0.0,0.0,0.0,0.0,0.0,0.0,0.0,0.0,0.0,0.0,0.0,0.0,0.0,0.0,0.0,0.0,0.0,0.0,0.0,0.0,0.0,0.0,0.0,0.0,0.0,0.0,0.0,0.0,0.0,0.0,0.0,0.0,0.0,0.0,0.0,0.0,0.0,0.0,0.0,0.0,0.0,0.0,0.0,0.0,0.0,0.0,0.0,0.0,0.0,0.0,0.0,0.0,0.0,0.0,0.0,0.0,0.0,0.0,0.0,0.0,0.0,0.0,0.0,0.0,0.0,0.0,0.0,0.0,0.0,0.0,0.0,0.0,0.0,0.0,0.0,0.0,0.0,0.0,0.0,0.0,0.0,0.0,0.0,0.0,0.0,0.0,0.0,0.0,0.0,0.0,0.0,0.0,0.0,0.0,0.0,0.0,0.0,0.0,0.0,0.0,0.0,-2.6452,-2.6775,-2.6026,-2.5215,0.0,0.0,0.0,0.0,0.0,0.0,0.0,0.0,0.0,0.0,0.0,0.0,0.0,0.0,0.0,0.0,0.0,0.0,0.0,0.0,0.0,0.0,0.0,0.0,0.0,0.0,0.0,0.0,0.0,0.0,0.0,0.0,0.0,0.0,0.0,0.0,0.0,0.0,0.0,0.0,0.0,0.0,0.0,0.0,0.0,0.0,0.0,0.0,0.0,0.0,0.0,0.0,0.0,0.0,0.0,0.0,0.0,0.0,0.0,0.0,0.0,0.0,0.0,0.0,0.0,0.0,0.0,0.0,0.0,0.0,0.0,0.0,0.0,0.0,0.0,0.0,0.0,0.0,0.0,0.0,0.0,0.0,0.0,0.0,0.0,0.0,0.0,0.0,0.0,0.0,0.0,0.0,0.0,0.0,0.0,0.0,0.0,0.0,0.0,0.0,0.0,0.0,0.0,0.0,0.0,0.0,0.0,0.0,0.0,0.0,-2.5512,-2.54,-2.5047,-2.386,-2.3295,-2.3499,0.0,0.0,0.0,0.0,0.0,0.0,0.0,0.0,0.0,0.0,0.0,0.0,0.0,0.0,0.0,0.0,0.0,0.0,0.0,0.0,0.0,0.0,0.0,0.0,0.0,0.0,0.0,0.0,0.0,0.0,0.0,0.0,0.0,0.0,0.0,0.0,0.0,0.0,0.0,0.0,0.0,0.0,0.0,0.0,0.0,0.0,0.0,0.0,0.0,0.0,0.0,0.0,0.0,0.0,0.0,0.0,0.0,0.0,0.0,0.0,0.0,0.0,0.0,0.0,0.0,0.0,0.0,0.0,0.0,0.0,0.0,0.0,0.0,0.0,0.0,0.0,0.0,0.0,0.0,0.0,0.0,0.0,0.0,0.0,0.0,0.0,0.0,0.0,0.0,0.0,0.0,0.0,0.0,0.0,0.0,0.0,0.0,0.0,0.0,0.0,0.0,0.0,0.0,0.0,0.0,0.0,0.0,0.0,-2.3431,-2.341,-2.2473,-2.0584,-1.9492,-1.9705,0.0,0.0,0.0,0.0,0.0,0.0,0.0,0.0,0.0,0.0,0.0,0.0,0.0,0.0,0.0,0.0,0.0,0.0,0.0,0.0,0.0,0.0,0.0,0.0,0.0,0.0,0.0,0.0,0.0,0.0,0.0,0.0,0.0,0.0,0.0,0.0,0.0,0.0,0.0,0.0,0.0,0.0,0.0,0.0,0.0,0.0,0.0,0.0,0.0,0.0,0.0,0.0,0.0,0.0,0.0,0.0,0.0,0.0,0.0,0.0,0.0,0.0,0.0,0.0,0.0,0.0,0.0,0.0,0.0,0.0,0.0,0.0,0.0,0.0,0.0,0.0,0.0,0.0,0.0,0.0,0.0,0.0,0.0,0.0,0.0,0.0,0.0,0.0,0.0,0.0,0.0,0.0,0.0,0.0,0.0,0.0,0.0,0.0,0.0,0.0,0.0,0.0,0.0,0.0,0.0,0.0,0.0,0.0,0.0,-2.331,-2.2051,-2.0954,-1.9991,-1.9324,-1.9106,0.0,0.0,0.0,0.0,0.0,0.0,0.0,0.0,0.0,0.0,0.0,0.0,0.0,0.0,0.0,0.0,0.0,0.0,0.0,0.0,0.0,0.0,0.0,0.0,0.0,0.0,0.0,0.0,0.0,0.0,0.0,0.0,0.0,0.0,0.0,0.0,0.0,0.0,0.0,0.0,0.0,0.0,0.0,0.0,0.0,0.0,0.0,0.0,0.0,0.0,0.0,0.0,0.0,0.0,0.0,0.0,0.0,0.0,0.0,0.0,0.0,0.0,0.0,0.0,0.0,0.0,0.0,0.0,0.0,0.0,0.0,0.0,0.0,0.0,0.0,0.0,0.0,0.0,0.0,0.0,0.0,0.0,0.0,0.0,0.0,0.0,0.0,0.0,0.0,0.0,0.0,0.0,0.0,0.0,0.0,0.0,0.0,0.0,0.0,0.0,0.0,0.0,0.0,0.0,0.0,0.0,0.0,0.0,0.0,-2.1113,-1.8988,-1.7745,-1.7516,-1.7091,-1.6964,0.0,0.0,0.0,0.0,0.0,0.0,0.0,0.0,0.0,0.0,0.0,0.0,0.0,0.0,0.0,0.0,0.0,0.0,0.0,0.0,0.0,0.0,0.0,0.0,0.0,0.0,0.0,0.0,0.0,0.0,0.0,0.0,0.0,0.0,0.0,0.0,0.0,0.0,0.0,0.0,0.0,0.0,0.0,0.0,0.0,0.0,0.0,0.0,0.0,0.0,0.0,0.0,0.0,0.0,0.0,0.0,0.0,0.0,0.0,0.0,0.0,0.0,0.0,0.0,0.0,0.0,0.0,0.0,0.0,0.0,0.0,0.0,0.0,0.0,0.0,0.0,0.0,0.0,0.0,0.0,0.0,0.0,0.0,0.0,0.0,0.0,0.0,0.0,0.0,0.0,0.0,0.0,0.0,0.0,0.0,0.0,0.0,0.0,0.0,0.0,0.0,0.0,0.0,0.0,0.0,0.0,0.0,0.0,-2.0653,-1.6437,-1.4096,-1.2957,-1.2549,-1.2489,-1.3109,0.0,0.0,0.0,0.0,0.0,0.0,0.0,0.0,0.0,0.0,0.0,0.0,0.0,0.0,0.0,0.0,0.0,0.0,0.0,0.0,0.0,0.0,0.0,0.0,0.0,0.0,0.0,0.0,0.0,0.0,0.0,0.0,0.0,0.0,0.0,0.0,0.0,0.0,0.0,0.0,0.0,0.0,0.0,0.0,0.0,0.0,0.0,0.0,0.0,0.0,0.0,0.0,0.0,0.0,0.0,0.0,0.0,0.0,0.0,0.0,0.0,0.0,0.0,0.0,0.0,0.0,0.0,0.0,0.0,0.0,0.0,0.0,0.0,0.0,0.0,0.0,0.0,0.0,0.0,0.0,0.0,0.0,0.0,0.0,0.0,0.0,0.0,0.0,0.0,0.0,0.0,0.0,0.0,0.0,0.0,0.0,0.0,0.0,0.0,0.0,0.0,0.0,0.0,0.0,0.0,0.0,0.0,0.0,0.0,-1.3616,-1.246,-1.1856,-1.167,-1.1828,-1.2118,0.0,0.0,0.0,0.0,0.0,0.0,0.0,0.0,0.0,0.0,0.0,0.0,0.0,0.0,0.0,0.0,0.0,0.0,0.0,0.0,0.0,0.0,0.0,0.0,0.0,0.0,0.0,0.0,0.0,0.0,0.0,0.0,0.0,0.0,0.0,0.0,0.0,0.0,0.0,0.0,0.0,0.0,0.0,0.0,0.0,0.0,0.0,0.0,0.0,0.0,0.0,0.0,0.0,0.0,0.0,0.0,0.0,0.0,0.0,0.0,0.0,0.0,0.0,0.0,0.0,0.0,0.0,0.0,0.0,0.0,0.0,0.0,0.0,0.0,0.0,0.0,0.0,0.0,0.0,0.0,0.0,0.0,0.0,0.0,0.0,0.0,0.0,0.0,0.0,0.0,0.0,0.0,0.0,0.0,0.0,0.0,0.0,0.0,0.0,0.0,0.0,0.0,0.0,0.0,0.0,0.0,0.0,0.0,0.0,-1.171,-1.1205,-1.0958,-1.0836,-1.1038,-1.1117,-1.1081,0.0,0.0,0.0,0.0,0.0,0.0,0.0,0.0,0.0,0.0,0.0,0.0,0.0,0.0,0.0,0.0,0.0,0.0,0.0,0.0,0.0,0.0,0.0,0.0,0.0,0.0,0.0,0.0,0.0,0.0,0.0,0.0,0.0,0.0,0.0,0.0,0.0,0.0,0.0,0.0,0.0,0.0,0.0,0.0,0.0,0.0,0.0,0.0,0.0,0.0,0.0,0.0,0.0,0.0,0.0,0.0,0.0,0.0,0.0,0.0,0.0,0.0,0.0,0.0,0.0,0.0,0.0,0.0,0.0,0.0,0.0,0.0,0.0,0.0,0.0,0.0,0.0,0.0,0.0,0.0,0.0,0.0,0.0,0.0,0.0,0.0,0.0,0.0,0.0,0.0,0.0,0.0,0.0,0.0,0.0,0.0,0.0,0.0,0.0,0.0,0.0,0.0,0.0,0.0,0.0,0.0,0.0,0.0,-1.0402,-1.0221,-1.0007,-0.991,-0.9987,-1.0082,0.0,0.0,0.0,0.0,0.0,0.0,0.0,0.0,0.0,0.0,0.0,0.0,0.0,0.0,0.0,0.0,0.0,0.0,0.0,0.0,0.0,0.0,0.0,0.0,0.0,0.0,0.0,0.0,0.0,0.0,0.0,0.0,0.0,0.0,0.0,0.0,0.0,0.0,0.0,0.0,0.0,0.0,0.0,0.0,0.0,0.0,0.0,0.0,0.0,0.0,0.0,0.0,0.0,0.0,0.0,0.0,0.0,0.0,0.0,0.0,0.0,0.0,0.0,0.0,0.0,0.0,0.0,0.0,0.0,0.0,0.0,0.0,0.0,0.0,0.0,0.0,0.0,0.0,0.0,0.0,0.0,0.0,0.0,0.0,0.0,0.0,0.0,0.0,0.0,0.0,0.0,0.0,0.0,0.0,0.0,0.0,0.0,0.0,0.0,0.0,0.0,0.0,0.0,0.0,0.0,0.0,0.0,0.0,0.0,-0.9371,-0.9047,-0.892,-0.8918,-0.9369,-0.9676,0.0,0.0,0.0,0.0,0.0,0.0,0.0,0.0,0.0,0.0,0.0,0.0,0.0,0.0,0.0,0.0,0.0,0.0,0.0,0.0,0.0,0.0,0.0,0.0,0.0,0.0,0.0,0.0,0.0,0.0,0.0,0.0,0.0,0.0,0.0,0.0,0.0,0.0,0.0,0.0,0.0,0.0,0.0,0.0,0.0,0.0,0.0,0.0,0.0,0.0,0.0,0.0,0.0,0.0,0.0,0.0,0.0,0.0,0.0,0.0,0.0,0.0,0.0,0.0,0.0,0.0,0.0,0.0,0.0,0.0,0.0,0.0,0.0,0.0,0.0,0.0,0.0,0.0,0.0,0.0,0.0,0.0,0.0,0.0,0.0,0.0,0.0,0.0,0.0,0.0,0.0,0.0,0.0,0.0,0.0,0.0,0.0,0.0,0.0,0.0,0.0,0.0,0.0,0.0,0.0,0.0,0.0,0.0,-0.9813,-0.9104,-0.8449,-0.8153,-0.8168,-0.8738,-0.9202,0.0,0.0,0.0,0.0,0.0,0.0,0.0,0.0,0.0,0.0,0.0,0.0,0.0,0.0,0.0,0.0,0.0,0.0,0.0,0.0,0.0,0.0,0.0,0.0,0.0,0.0,0.0,0.0,0.0,0.0,0.0,0.0,0.0,0.0,0.0,0.0,0.0,0.0,0.0,0.0,0.0,0.0,0.0,0.0,0.0,0.0,0.0,0.0,0.0,0.0,0.0,0.0,0.0,0.0,0.0,0.0,0.0,0.0,0.0,0.0,0.0,0.0,0.0,0.0,0.0,0.0,0.0,0.0,0.0,0.0,0.0,0.0,0.0,0.0,0.0,0.0,0.0,0.0,0.0,0.0,0.0,0.0,0.0,0.0,0.0,0.0,0.0,0.0,0.0,0.0,0.0,0.0,0.0,0.0,0.0,0.0,0.0,0.0,0.0,0.0,0.0,0.0,0.0,0.0,0.0,0.0,0.0,0.0,-0.9359,-0.9064,-0.8169,-0.7706,-0.7729,-0.8219,-0.8744,0.0,0.0,0.0,0.0,0.0,0.0,0.0,0.0,0.0,0.0,0.0,0.0,0.0,0.0,0.0,0.0,0.0,0.0,0.0,0.0,0.0,0.0,0.0,0.0,0.0,0.0,0.0,0.0,0.0,0.0,0.0,0.0,0.0,0.0,0.0,0.0,0.0,0.0,0.0,0.0,0.0,0.0,0.0,0.0,0.0,0.0,0.0,0.0,0.0,0.0,0.0,0.0,0.0,0.0,0.0,0.0,0.0,0.0,0.0,0.0,0.0,0.0,0.0,0.0,0.0,0.0,0.0,0.0,0.0,0.0,0.0,0.0,0.0,0.0,0.0,0.0,0.0,0.0,0.0,0.0,0.0,0.0,0.0,0.0,0.0,0.0,0.0,0.0,0.0,0.0,0.0,0.0,0.0,0.0,0.0,0.0,0.0,0.0,0.0,0.0,0.0,0.0,0.0,0.0,0.0,0.0,0.0,0.0,-0.8101,-0.7617,-0.7472,-0.7239,-0.7146,-0.8079,-0.8658,0.0,0.0,0.0,0.0,0.0,0.0,0.0,0.0,0.0,0.0,0.0,0.0,0.0,0.0,0.0,0.0,0.0,0.0,0.0,0.0,0.0,0.0,0.0,0.0,0.0,0.0,0.0,0.0,0.0,0.0,0.0,0.0,0.0,0.0,0.0,0.0,0.0,0.0,0.0,0.0,0.0,0.0,0.0,0.0,0.0,0.0,0.0,0.0,-2.9737,0.0,0.0,0.0,0.0,0.0,0.0,0.0,0.0,0.0,0.0,0.0,0.0,0.0,0.0,0.0,0.0,0.0,0.0,0.0,0.0,0.0,0.0,0.0,0.0,0.0,0.0,0.0,0.0,0.0,0.0,0.0,0.0,0.0,0.0,0.0,0.0,0.0,0.0,0.0,0.0,0.0,0.0,0.0,0.0,0.0,0.0,0.0,0.0,0.0,0.0,0.0,0.0,0.0,0.0,0.0,0.0,0.0,0.0,0.0,-0.7677,-0.7234,-0.7238,-0.7198,-0.7183,-0.8029,-0.8618,0.0,0.0,0.0,0.0,0.0,0.0,0.0,0.0,0.0,0.0,0.0,0.0,0.0,0.0,0.0,0.0,0.0,0.0,0.0,0.0,0.0,0.0,0.0,0.0,0.0,0.0,0.0,0.0,0.0,0.0,0.0,0.0,0.0,0.0,0.0,0.0,0.0,0.0,0.0,0.0,0.0,0.0,0.0,0.0,0.0,0.0,0.0,0.0,0.0,0.0,0.0,0.0,0.0,0.0,0.0,0.0,0.0,0.0,0.0,0.0,0.0,0.0,0.0,0.0,0.0,0.0,0.0,0.0,0.0,0.0,0.0,0.0,0.0,0.0,0.0,0.0,0.0,0.0,0.0,0.0,0.0,0.0,0.0,0.0,0.0,0.0,0.0,0.0,0.0,0.0,0.0,0.0,0.0,0.0,0.0,0.0,0.0,0.0,0.0,0.0,0.0,0.0,0.0,0.0,0.0,0.0,0.0,-0.7961,-0.7226,-0.674,-0.6842,-0.7,-0.7283,-0.7879,-0.8454,-0.904,0.0,0.0,0.0,0.0,0.0,0.0,0.0,0.0,0.0,0.0,0.0,0.0,0.0,0.0,0.0,0.0,0.0,0.0,0.0,0.0,0.0,0.0,0.0,0.0,0.0,0.0,0.0,0.0,0.0,0.0,0.0,0.0,0.0,0.0,0.0,0.0,0.0,0.0,-2.6907,-2.7949,0.0,0.0,0.0,0.0,0.0,0.0,0.0,0.0,-3.0049,0.0,0.0,0.0,0.0,0.0,0.0,0.0,0.0,0.0,0.0,0.0,0.0,0.0,0.0,0.0,0.0,0.0,0.0,0.0,0.0,0.0,0.0,0.0,0.0,0.0,0.0,0.0,0.0,0.0,0.0,0.0,0.0,0.0,0.0,0.0,0.0,0.0,0.0,0.0,0.0,0.0,0.0,0.0,0.0,0.0,0.0,0.0,0.0,0.0,0.0,0.0,0.0,0.0,0.0,0.0,0.0,-0.7345,-0.66,-0.5714,-0.4704,-0.5104,-0.5644,-0.6357,-0.7188,-0.8087,-0.905,0.0,0.0,0.0,0.0,0.0,0.0,0.0,0.0,0.0,0.0,0.0,0.0,0.0,0.0,0.0,0.0,0.0,0.0,0.0,0.0,0.0,0.0,0.0,0.0,0.0,0.0,0.0,0.0,0.0,0.0,0.0,0.0,0.0,0.0,0.0,0.0,0.0,0.0,0.0,-2.8676,-2.898,0.0,0.0,0.0,0.0,0.0,0.0,0.0,0.0,-3.0279,0.0,0.0,0.0,0.0,0.0,0.0,0.0,0.0,0.0,0.0,0.0,0.0,0.0,0.0,0.0,0.0,0.0,0.0,0.0,0.0,0.0,0.0,0.0,0.0,0.0,0.0,0.0,0.0,0.0,0.0,0.0,0.0,0.0,0.0,0.0,0.0,0.0,0.0,0.0,0.0,0.0,0.0,0.0,0.0,0.0,0.0,0.0,0.0,0.0,0.0,0.0,0.0,0.0,0.0,0.0,-0.6512,-0.5701,-0.4939,-0.4232,-0.5092,-0.5787,-0.6098,-0.7425,-0.8505,0.0,0.0,0.0,0.0,0.0,0.0,0.0,0.0,0.0,0.0,0.0,0.0,0.0,0.0,0.0,0.0,0.0,0.0,0.0,0.0,0.0,0.0,0.0,0.0,0.0,0.0,0.0,0.0,0.0,0.0,0.0,0.0,0.0,0.0,0.0,0.0,0.0,0.0,0.0,0.0,-2.8881,-2.9093,-2.9206,0.0,0.0,0.0,0.0,0.0,0.0,-3.0185,-3.0253,0.0,0.0,0.0,0.0,0.0,0.0,0.0,0.0,0.0,0.0,0.0,0.0,0.0,0.0,0.0,0.0,0.0,0.0,0.0,0.0,0.0,0.0,0.0,0.0,0.0,0.0,0.0,0.0,0.0,0.0,0.0,0.0,0.0,0.0,0.0,0.0,0.0,0.0,0.0,0.0,0.0,0.0,0.0,0.0,0.0,0.0,0.0,0.0,0.0,0.0,0.0,0.0,0.0,0.0,0.0,-0.5699,-0.4966,-0.4407,-0.4009,-0.5243,-0.6017,-0.6098,-0.7681,-0.8849,0.0,0.0,0.0,0.0,0.0,0.0,0.0,0.0,0.0,0.0,0.0,0.0,0.0,0.0,0.0,0.0,0.0,0.0,0.0,0.0,0.0,0.0,0.0,0.0,0.0,0.0,0.0,0.0,0.0,0.0,0.0,0.0,0.0,0.0,0.0,0.0,0.0,0.0,0.0,0.0,0.0,-2.9366,-2.931,-2.9642,0.0,0.0,0.0,0.0,-3.0346,-3.029,0.0,0.0,0.0,0.0,0.0,0.0,0.0,0.0,0.0,0.0,0.0,0.0,0.0,0.0,0.0,0.0,0.0,0.0,0.0,0.0,0.0,0.0,0.0,0.0,0.0,0.0,0.0,0.0,0.0,0.0,0.0,0.0,0.0,0.0,0.0,0.0,0.0,0.0,0.0,0.0,0.0,0.0,0.0,0.0,0.0,0.0,0.0,0.0,0.0,0.0,0.0,0.0,0.0,0.0,0.0,0.0,-0.4654,-0.4327,-0.3874,-0.326,-0.4404,-0.5405,-0.6098,-0.743,-0.8546,0.0,0.0,0.0,0.0,0.0,0.0,0.0,0.0,0.0,0.0,0.0,0.0,0.0,0.0,0.0,0.0,0.0,0.0,0.0,0.0,0.0,0.0,0.0,0.0,0.0,0.0,0.0,0.0,0.0,0.0,0.0,0.0,0.0,0.0,0.0,0.0,0.0,0.0,0.0,0.0,0.0,-3.0232,-2.972,-3.0321,-3.0922,0.0,0.0,-3.1118,-3.1307,-3.0705,0.0,0.0,0.0,0.0,0.0,0.0,0.0,0.0,0.0,0.0,0.0,0.0,0.0,0.0,0.0,0.0,0.0,0.0,0.0,0.0,0.0,0.0,0.0,0.0,0.0,0.0,0.0,0.0,0.0,0.0,0.0,0.0,0.0,0.0,0.0,0.0,0.0,0.0,0.0,0.0,0.0,0.0,0.0,0.0,0.0,0.0,0.0,0.0,0.0,0.0,0.0,0.0,0.0,0.0,0.0,-0.4697,-0.3927,-0.361,-0.3458,-0.3559,-0.4774,-0.5712,-0.6396,-0.7983,-0.9015,0.0,0.0,0.0,0.0,0.0,0.0,0.0,0.0,0.0,0.0,0.0,0.0,0.0,0.0,0.0,0.0,0.0,0.0,0.0,0.0,0.0,0.0,0.0,0.0,0.0,0.0,0.0,0.0,0.0,0.0,0.0,0.0,0.0,0.0,0.0,0.0,0.0,0.0,0.0,0.0,0.0,0.0,-3.1015,-3.1054,0.0,0.0,0.0,-3.1336,-3.1462,0.0,0.0,0.0,0.0,0.0,0.0,0.0,0.0,0.0,0.0,0.0,0.0,0.0,0.0,0.0,0.0,0.0,0.0,0.0,0.0,0.0,0.0,0.0,0.0,0.0,0.0,0.0,0.0,0.0,0.0,0.0,0.0,0.0,0.0,0.0,0.0,0.0,0.0,0.0,0.0,0.0,0.0,0.0,0.0,0.0,0.0,0.0,0.0,0.0,0.0,0.0,0.0,0.0,0.0,0.0,0.0,0.0,-0.3538,-0.3331,-0.3501,-0.4037,-0.5308,-0.624,-0.6825,-0.85,0.0,0.0,0.0,0.0,0.0,0.0,0.0,0.0,0.0,0.0,0.0,0.0,0.0,0.0,0.0,0.0,0.0,0.0,0.0,0.0,0.0,0.0,0.0,0.0,0.0,0.0,0.0,-2.149,0.0,0.0,0.0,0.0,0.0,0.0,0.0,0.0,0.0,0.0,0.0,0.0,0.0,0.0,-3.175,-3.2347,-3.2373,-3.2562,0.0,0.0,-3.2407,-3.2692,-3.2139,-3.1912,0.0,0.0,0.0,0.0,0.0,0.0,0.0,0.0,0.0,0.0,0.0,0.0,0.0,0.0,0.0,0.0,0.0,0.0,0.0,0.0,0.0,0.0,0.0,0.0,0.0,0.0,0.0,0.0,0.0,0.0,0.0,0.0,0.0,0.0,0.0,0.0,0.0,0.0,0.0,0.0,0.0,0.0,0.0,0.0,0.0,0.0,0.0,0.0,0.0,0.0,0.0,0.0,0.0,0.0,-0.3988,-0.3544,-0.3803,-0.4163,-0.4403,-0.5994,-0.6865,-0.7073,-0.8721,-0.9665,0.0,0.0,0.0,0.0,0.0,0.0,0.0,0.0,0.0,0.0,0.0,0.0,0.0,0.0,0.0,0.0,0.0,0.0,0.0,0.0,0.0,0.0,0.0,0.0,0.0,0.0,0.0,0.0,0.0,0.0,0.0,0.0,0.0,0.0,0.0,0.0,0.0,0.0,0.0,0.0,0.0,-3.3945,-3.3398,-3.467,-3.572,0.0,-3.5265,-3.5064,-3.5932,-3.347,-3.2248,-3.4668,0.0,0.0,0.0,0.0,0.0,0.0,0.0,0.0,0.0,0.0,0.0,0.0,0.0,0.0,0.0,0.0,0.0,0.0,0.0,0.0,0.0,0.0,0.0,0.0,0.0,0.0,0.0,0.0,0.0,0.0,0.0,0.0,0.0,0.0,0.0,0.0,0.0,0.0,0.0,0.0,0.0,0.0,0.0,0.0,0.0,0.0,0.0,0.0,0.0,0.0,0.0,0.0,0.0,-0.3906,-0.3485,-0.383,-0.4283,-0.5015,-0.6003,-0.6885,-0.7513,-0.8884,-0.9712,0.0,0.0,0.0,0.0,0.0,0.0,0.0,0.0,0.0,0.0,0.0,0.0,0.0,0.0,0.0,0.0,0.0,0.0,0.0,0.0,0.0,0.0,0.0,0.0,0.0,0.0,0.0,0.0,-2.4194,-2.4835,-2.5773,0.0,0.0,0.0,0.0,0.0,0.0,0.0,0.0,0.0,0.0,-3.4712,-3.5537,-3.5813,0.0,0.0,-3.6274,-3.5945,-3.6354,-3.5436,-3.4803,-3.5234,-3.5244,0.0,0.0,0.0,0.0,0.0,0.0,0.0,0.0,0.0,0.0,0.0,0.0,0.0,0.0,0.0,0.0,0.0,0.0,0.0,0.0,0.0,0.0,0.0,0.0,0.0,0.0,0.0,0.0,0.0,0.0,0.0,0.0,0.0,0.0,0.0,0.0,0.0,0.0,0.0,0.0,0.0,0.0,0.0,0.0,0.0,0.0,0.0,0.0,0.0,0.0,0.0,0.0,-0.4217,-0.3605,-0.4296,-0.4941,-0.5458,-0.6218,-0.7081,-0.7821,-0.9068,-0.9744,0.0,0.0,0.0,0.0,0.0,0.0,0.0,0.0,0.0,0.0,0.0,0.0,0.0,0.0,0.0,0.0,0.0,0.0,0.0,0.0,0.0,0.0,0.0,0.0,0.0,0.0,0.0,0.0,-2.5037,-2.5877,-2.7531,0.0,0.0,0.0,0.0,0.0,0.0,0.0,0.0,0.0,0.0,-3.5684,-3.7225,-3.7201,-3.7269,-3.7939,-3.7427,-3.711,-3.7431,-3.6974,-3.6531,-3.6412,0.0,0.0,0.0,0.0,0.0,0.0,0.0,0.0,0.0,0.0,0.0,0.0,0.0,0.0,0.0,0.0,0.0,0.0,0.0,0.0,0.0,0.0,0.0,0.0,0.0,0.0,0.0,0.2859,0.0,0.0,0.8379,0.0,0.0,0.0,0.0,0.0,0.0,0.0,0.0,0.0,0.0,0.0,0.0,0.0,0.0,0.0,0.0,0.0,0.0,0.0,0.0,0.0,0.0,-0.5036,-0.3932,-0.5575,-0.6191,-0.5772,-0.688,-0.7663,-0.8061,-0.9213,-0.99,-0.9965,0.0,0.0,0.0,0.0,0.0,0.0,0.0,0.0,0.0,0.0,0.0,0.0,0.0,0.0,0.0,0.0,0.0,0.0,0.0,0.0,0.0,0.0,0.0,0.0,0.0,0.0,-2.5517,-2.6357,-2.7576,0.0,0.0,0.0,0.0,0.0,0.0,0.0,0.0,0.0,0.0,-3.6292,-3.7181,-3.8072,-3.9,-3.9524,-3.9604,-3.8999,-3.8845,-3.9692,-3.7909,-3.6899,0.0,0.0,0.0,0.0,0.0,0.0,0.0,0.0,0.0,0.0,0.0,0.0,0.0,0.0,0.0,0.0,0.0,0.0,0.0,0.0,0.0,0.0,0.0,0.0,0.0,0.0,0.0,0.0373,0.6582,0.0,0.0,0.0,0.0,0.0,0.0,0.0,0.0,0.0,0.0,0.0,-0.5212,-0.6317,0.0,0.0,0.0,0.0,0.0,0.0,0.0,0.0,0.0,0.0,0.0,0.0,-0.5523,-0.5183,-0.6059,-0.6615,-0.6675,-0.7312,-0.8091,-0.8814,-0.9518,-1.0291,-1.1105,0.0,0.0,0.0,0.0,0.0,0.0,0.0,0.0,0.0,0.0,0.0,0.0,0.0,0.0,0.0,0.0,0.0,0.0,0.0,0.0,0.0,0.0,0.0,0.0,0.0,-2.5659,0.0,0.0,0.0,0.0,0.0,0.0,0.0,0.0,0.0,0.0,0.0,-3.4976,-3.6198,-3.7119,-3.8041,-3.8952,-3.9383,-3.965,0.0,0.0,0.0,0.0,0.0,0.0,0.0,0.0,0.0,0.0,0.0,0.0,0.0,0.0,-3.7106,-3.623,-3.6245,-3.633,-3.6077,0.0,0.0,0.0,0.0,0.0,0.0,0.0,0.0,0.0,0.0,0.0,0.0,0.0,0.0,0.1599,0.0,0.7139,0.0,0.0,0.0,0.0,0.0,0.0,0.0,0.0,-0.1412,-0.3535,-0.5074,-0.627,-0.6473,0.0,-0.5954,-0.5908,0.0,0.0,0.0,0.0,0.0,0.0,0.0,0.0,-0.6112,-0.5867,-0.661,-0.7003,-0.7027,-0.7503,-0.8269,-0.9247,-0.9871,-1.0693,-1.1564,-1.2256,-1.3081,0.0,0.0,0.0,0.0,0.0,0.0,0.0,0.0,0.0,0.0,0.0,0.0,0.0,0.0,0.0,0.0,0.0,0.0,0.0,0.0,0.0,0.0,0.0,-2.7461,0.0,0.0,0.0,0.0,0.0,0.0,0.0,0.0,0.0,-3.3537,-3.4633,-3.5836,-3.6991,-3.769,-3.8402,-3.9313,0.0,0.0,0.0,0.0,0.0,0.0,0.0,-4.0188,-3.9353,-3.9299,-3.9185,-3.8686,-3.8747,-3.8802,-3.8615,0.0,0.0,-3.7784,-3.7723,-3.7815,-3.7608,-3.7477,-3.7423,-3.7377,-3.7295,-3.7229,0.0,0.0,0.0,0.0,0.0,0.0,0.0,0.0,-0.2724,0.1895,0.0,0.4429,0.0,0.0,0.0,0.0,0.5586,0.3796,0.0,0.0,-0.4966,-0.5983,-0.4766,-0.6538,-0.6998,-0.5939,-0.4667,-0.4199,-0.4365,-0.499,0.0,0.0,0.0,0.0,0.0,0.0,-0.6708,-0.6064,-0.7194,-0.7523,-0.698,-0.7457,-0.8256,-0.9265,-1.0343,-1.1083,-1.1366,-1.2045,-1.3719,-1.6788,-1.7646,0.0,0.0,0.0,0.0,0.0,0.0,0.0,0.0,0.0,0.0,0.0,0.0,0.0,0.0,0.0,0.0,0.0,0.0,0.0,0.0,-2.8643,0.0,0.0,0.0,0.0,0.0,0.0,0.0,0.0,0.0,0.0,-3.5202,-3.5383,-3.607,-3.7608,0.0,0.0,0.0,0.0,-3.989,-4.0801,-4.0995,-4.1062,-4.1127,-4.1247,-4.106,-4.0224,0.0,0.0,-4.0349,-4.0737,-4.0991,-4.1009,-4.1337,-4.1033,-3.8674,-3.8827,-3.9258,-3.9175,-3.911,-3.9042,-3.8984,-3.8907,-3.8835,-0.54,0.0,0.0,0.0,0.0,-0.6601,-0.6094,-0.5319,-0.5954,-0.3307,0.1478,-0.0884,0.0,0.0,0.0,0.0,0.0,0.0,-0.02,-0.2154,-0.3733,-0.4518,-0.466,-0.5545,-0.5264,-0.3993,-0.3545,-0.3442,-0.3524,-0.4011,-0.4289,-0.4301,0.0,0.0,0.0,0.0,-0.6798,-0.6631,-0.7034,-0.7356,-0.7421,-0.7488,-0.8214,-0.9695,-1.0913,-1.1492,-1.1478,-1.496,-1.7289,-1.8137,-2.2772,0.0,0.0,0.0,0.0,0.0,0.0,0.0,0.0,0.0,0.0,0.0,0.0,0.0,0.0,0.0,0.0,0.0,0.0,0.0,-2.8545,-2.9145,-2.9816,0.0,0.0,0.0,0.0,0.0,0.0,0.0,0.0,0.0,-3.6897,-3.7091,-3.7347,0.0,0.0,-3.989,-4.0213,-4.0817,-4.1334,-4.165,-4.1788,0.0,-4.186,-4.201,-4.2022,-4.1819,-4.1886,-4.2008,-4.2067,-4.1977,-4.1865,-4.1695,-4.1613,-4.1274,-4.0498,-4.0563,-4.0741,-4.0566,-4.0509,-4.0509,-4.0478,-4.0414,-4.0331,-0.4629,-0.4993,-0.5636,-0.5902,-0.5867,-0.5807,-0.5967,-0.6283,-0.7065,-0.5106,-0.1426,-0.4122,-0.2016,0.3551,0.2744,0.0,0.0,0.0,-0.1487,-0.3764,-0.3595,-0.37,-0.3872,-0.3916,-0.3663,-0.3107,-0.2726,-0.2715,-0.3018,-0.3244,-0.3414,-0.3608,0.0,0.0,-0.5323,-0.6339,-0.686,-0.686,-0.6939,-0.7178,-0.7498,-0.8215,-0.9167,-1.0439,-1.2753,-1.3934,-1.3741,-1.785,-2.0763,-2.2125,-2.6189,-2.8907,0.0,0.0,0.0,0.0,0.0,0.0,0.0,0.0,0.0,0.0,0.0,-2.5082,-2.5589,0.0,0.0,0.0,-2.8509,-2.9123,-2.9621,-2.9999,0.0,0.0,0.0,0.0,0.0,0.0,0.0,-3.6425,-3.6666,-3.7106,-3.8032,-3.8544,-3.8832,-3.8878,-3.9779,-4.0607,-4.1008,0.0,-4.2013,-4.246,-4.263,-4.2718,-4.2724,-4.2815,-4.2834,-4.2582,-4.261,-4.2652,-4.2593,-4.2602,-4.2549,-4.2342,-4.2318,-4.2303,-4.2179,-4.2258,-4.2031,-4.1273,-4.1097,-4.1097,-4.1097,-4.1046,-4.0979,-0.3853,-0.3986,-0.4377,-0.4651,-0.4712,-0.4531,-0.4959,-0.584,-0.6478,-0.4482,-0.1012,-0.5623,-0.2926,0.5114,0.3864,0.0,-0.3282,-0.1952,-0.2858,-0.5542,-0.4452,-0.3509,-0.269,-0.2134,-0.2203,-0.2896,-0.2057,-0.2065,-0.2874,-0.2731,-0.2685,-0.2823,-0.4066,-0.4849,-0.5321,-0.6325,-0.6865,-0.6865,-0.688,-0.7047,-0.7462,-0.9402,-1.0804,-1.1792,-1.5458,-1.7451,-1.7617,-2.0836,-2.4152,-2.737,-2.8509,-3.0208,-3.2692,0.0,0.0,0.0,0.0,0.0,0.0,0.0,0.0,0.0,0.0,0.0,0.0,0.0,0.0,0.0,-2.9941,0.0,-3.034,-3.11,0.0,0.0,0.0,-3.3999,-3.4306,-3.5385,-3.6474,-3.7357,0.0,0.0,-3.8892,-3.966,-4.0237,-4.0492,-4.0587,-4.0905,-4.1773,-4.2006,-4.2324,-4.3257,-4.3502,-4.3586,-4.3599,-4.371,-4.3592,-4.3019,-4.2759,-4.2791,-4.2635,-4.2862,-4.3063,-4.2947,-4.3291,-4.3631,-4.3786,-4.3572,-4.314,-4.1658,-4.1368,-4.135,-4.1423,-4.1376,-4.1361,-0.4371,-0.502,-0.5012,-0.4876,-0.4723,-0.4693,-0.4663,-0.4736,-0.5579,-0.5369,-0.4488,-0.6437,-0.629,-0.478,-0.5058,-0.5662,-0.6384,-0.6048,-0.5738,-0.541,-0.4864,-0.3907,-0.2679,-0.2228,-0.1826,-0.142,-0.1564,-0.1844,-0.2193,-0.2389,-0.2652,-0.2824,-0.4068,-0.4768,-0.4854,-0.6015,-0.6641,-0.6409,-0.6681,-0.7215,-0.8119,-0.989,-1.251,-1.5917,-1.7277,-1.9264,-2.1963,-2.5851,-2.8064,-2.8411,-3.1709,-3.3864,-3.4478,-3.3828,0.0,0.0,0.0,0.0,0.0,0.0,0.0,0.0,0.0,-2.8424,-2.8716,0.0,-3.0019,0.0,-3.0649,-3.1157,-3.1738,-3.2134,0.0,0.0,-3.434,-3.5098,-3.6179,-3.6653,-3.7259,-3.8144,-3.8365,-3.8799,-3.9674,-3.973,-4.0221,-4.1558,-4.2032,-4.2337,-4.2687,-4.3295,-4.3801,-4.4111,-4.4293,-4.4417,-4.4411,-4.4543,-4.4492,-4.4247,-4.4191,-4.414,-4.3954,-4.3858,-4.3834,-4.3774,-4.3743,-4.3767,-4.3795,-4.3767,-4.366,-4.324,-4.3048,-4.2928,-4.291,-4.291,-4.2876,-0.4277,-0.4858,-0.5131,-0.5121,-0.4882,-0.4779,-0.4629,-0.4535,-0.5361,-0.5674,-0.5751,-0.6257,-0.6726,-0.7082,-0.7082,-0.7099,-0.7146,-0.6863,-0.6186,-0.5211,-0.4585,-0.3637,-0.2484,-0.1971,-0.1429,-0.1012,-0.1335,-0.1596,-0.1858,-0.2288,-0.2639,-0.3057,-0.407,-0.4693,-0.501,-0.617,-0.6637,-0.6416,-0.7107,-0.8913,-1.204,-1.3186,-1.6075,-2.0813,-2.2654,-2.449,-2.6546,-2.9887,-3.1469,-3.1073,-3.3666,-3.5083,-3.4996,-3.4764,-3.416,0.0,0.0,0.0,0.0,0.0,0.0,0.0,0.0,0.0,0.0,0.0,-3.1042,-3.1321,-3.1828,-3.2341,-3.2747,-3.2985,-3.3379,-3.4073,-3.5009,-3.5864,-3.6638,-3.7394,-3.8065,-3.8535,-3.897,-3.9386,-3.9772,-4.0288,-4.0953,-4.1917,-4.2543,-4.2996,-4.3299,-4.3908,-4.4383,-4.4468,-4.4605,-4.4719,-4.4758,-4.4751,-4.4764,-4.4712,-4.4613,-4.4467,-4.425,-4.4151,-4.4079,-4.3992,-4.3915,-4.3851,-4.3878,-4.3865,-4.3851,-4.3818,-4.3701,-4.36,-4.3566,-4.3532,-4.3479,-0.4063,-0.44,-0.5078,-0.5347,-0.5216,-0.4993,-0.4817,-0.4748,-0.5306,-0.5584,-0.5584,-0.5584,-0.5584,-0.5728,-0.5728,-0.6086,-0.6587,-0.594,-0.544,-0.4937,-0.3926,-0.3059,-0.2256,-0.1604,-0.1184,-0.1093,-0.1119,-0.136,-0.1828,-0.2252,-0.2763,-0.3444,-0.4073,-0.4696,-0.5398,-0.6475,-0.6949,-0.6828,-0.7821,-1.0925,-1.598,-1.6906,-1.9911,-2.5126,-2.8577,-3.058,-3.1106,-3.3179,-3.4246,-3.4072,-3.4765,-3.5102,-3.4921,-3.5425,-3.5304,0.0,-3.3309,0.0,0.0,0.0,0.0,0.0,0.0,0.0,0.0,-3.1489,-3.1901,-3.257,-3.3076,-3.344,-3.3525,-3.3751,-3.3932,-3.4117,-3.5478,-3.6471,-3.6612,-3.7736,-3.8601,-3.8693,-3.9397,-3.9772,-3.9865,-4.1048,-4.1868,-4.1941,-4.2486,-4.3032,-4.349,-4.3949,-4.4335,-4.4468,-4.4605,-4.4648,-4.47,-4.4621,-4.4551,-4.456,-4.4383,-4.4162,-4.3986,-4.4017,-4.4005,-4.3855,-4.3869,-4.3929,-4.4005,-4.3961,-4.3897,-4.3897,-4.3832,-4.3753,-4.3615,-4.3548,-4.3532,-0.3982,-0.5398,-0.5574,-0.5594,-0.5469,-0.533,-0.5089,-0.4792,-0.484,-0.4867,-0.4867,-0.4867,-0.5153,-0.5653,-0.5728,-0.58,-0.5868,-0.5578,-0.5006,-0.4292,-0.3568,-0.2919,-0.2272,-0.1744,-0.1454,-0.1246,-0.0816,-0.1047,-0.1877,-0.2308,-0.289,-0.3684,-0.4151,-0.4776,-0.5556,0.0,0.0,0.0,-0.9187,-1.0628,-1.2177,-1.6075,-2.0429,-2.5305,-2.9079,0.0,-3.4984,-3.5538,-3.5366,-3.4711,-3.5291,0.0,0.0,0.0,0.0,0.0,0.0,0.0,0.0,0.0,0.0,0.0,-3.1749,-3.1827,-3.1367,-3.1939,-3.2604,-3.3301,-3.3422,-3.3685,-3.4364,-3.4576,-3.5074,-3.6018,-3.6545,-3.6958,-3.7237,-3.756,-3.7989,-3.8708,-3.9204,-3.994,-4.0926,-4.1432,-4.1755,-4.2178,-4.2451,-4.2657,-4.2884,-4.349,-4.406,-4.4477,-4.4458,-4.4336,-4.425,-4.4229,-4.4151,-4.4067,-4.4023,-4.391,-4.3749,-4.38,-4.3869,-4.3878,-4.3952,-4.3992,-4.4005,-4.4005,-4.3992,-4.3974,-4.3929,-4.3832,-4.3649,-4.3582,-4.3566,-0.4389,-0.5733,-0.5733,-0.5697,0.0,-0.5513,-0.5355,-0.509,-0.4936,-0.4833,-0.4833,-0.4833,-0.5058,-0.5355,-0.5352,-0.5277,-0.5199,-0.5121,-0.4675,-0.3929,-0.3551,-0.2941,-0.2255,-0.2087,-0.1778,-0.1328,-0.1407,-0.1569,-0.1965,-0.2602,-0.3332,-0.407,-0.4618,-0.5243,-0.5948,-0.7395,-0.8363,-0.8937,-0.9662,-1.136,-1.4222,-1.876,-2.3636,-2.8801,-3.2899,0.0,0.0,0.0,0.0,0.0,0.0,0.0,0.0,0.0,0.0,-3.4618,-3.3693,-3.2824,-3.2018,-3.1909,-3.1858,-3.1765,-3.2466,-3.2778,-3.2451,-3.3253,-3.385,-3.4041,-3.4372,-3.4745,-3.5188,-3.5429,-3.5778,-3.6399,-3.6719,-3.6978,-3.7152,-3.7395,-3.7845,-3.8706,-3.9319,-4.0094,-4.1053,-4.159,-4.1868,-4.2157,-4.2228,-4.2396,-4.2714,-4.3301,-4.3841,-4.4151,-4.4132,-4.4072,-4.4091,-4.3968,-4.3923,-4.3897,-4.38,-4.3682,-4.3634,-4.3701,-4.3841,-4.3878,-4.3934,-4.4005,-4.4005,-4.4005,-4.4005,-4.4005,-4.3974,-4.3929,-4.3767,-4.3667,-4.3582,-0.4656,-0.5733,-0.5733,-0.5733,-0.5725,-0.5515,-0.5454,-0.5496,0.0,0.0,0.0,-0.5026,-0.5018,-0.5018,-0.494,-0.4859,-0.4701,-0.4621,-0.4309,-0.3763,-0.3526,-0.3103,-0.2435,-0.2512,-0.2261,-0.1773,-0.2289,-0.246,-0.2356,-0.304,-0.3838,-0.4608,-0.5085,-0.5786,-0.6718,-0.7778,-0.8917,-0.9927,-0.9879,-1.2351,-1.7485,-2.1889,-2.6791,-3.233,-3.6597,-3.9055,-3.9487,-3.8223,-3.7276,-3.6782,-3.6118,-3.5725,-3.5548,-3.6157,-3.5929,-3.4693,-3.4255,-3.3483,-3.2111,-3.227,-3.2508,-3.2555,-3.3094,-3.355,-3.3735,-3.4531,-3.4941,-3.4718,-3.5416,-3.5817,-3.5861,-3.6036,-3.6225,-3.6208,-3.6574,-3.6799,-3.6838,-3.7094,-3.7676,-3.8679,-3.9488,-4.0217,-4.0937,-4.1677,-4.2121,-4.203,-4.203,-4.2181,-4.2732,-4.3266,-4.3646,-4.3726,-4.3758,-4.3823,-4.3873,-4.3777,-4.3716,-4.38,-4.3667,-4.3566,-4.3634,-4.3753,-4.3855,-4.3906,-4.3947,-4.3992,-4.4005,-4.4005,-4.4005,-4.4005,-4.4005,-4.3974,-4.3929,-4.38,-4.3649,-0.4119,-0.5733,-0.5733,-0.5733,-0.5725,-0.5602,-0.5491,-0.5385,-0.523,-0.5162,-0.5156,-0.5059,-0.5018,-0.5018,-0.4859,-0.4701,-0.4701,-0.4314,-0.3999,-0.3763,-0.3374,-0.321,-0.3196,-0.2966,-0.3039,-0.3416,-0.3263,-0.35,-0.3971,-0.3585,-0.4057,-0.5231,-0.5318,-0.6321,-0.8165,-0.8237,-0.8917,-1.0363,-1.0402,-1.2833,-1.7757,-2.2044,-2.6853,-3.2152,-3.6398,-3.8647,-3.8834,-3.8529,-3.8294,-3.815,-3.7892,-3.7717,-3.7563,-3.7684,-3.7424,-3.6605,-3.5379,-3.4362,-3.3583,-3.2546,-3.236,-3.3375,-3.3599,-3.3846,-3.4336,-3.4464,-3.4847,-3.5535,-3.5749,-3.5905,-3.6096,-3.6182,-3.6208,-3.6259,-3.6343,-3.6367,-3.6392,-3.6591,-3.7271,-3.8758,-3.9416,-4.0192,-4.1311,-4.1955,-4.2228,-4.2072,-4.2055,-4.2246,-4.2652,-4.3249,-4.3579,-4.3477,-4.3511,-4.3511,-4.3426,-4.3428,-4.3481,-4.3513,-4.3582,-4.3615,-4.3719,-4.3818,-4.3897,-4.3961,-4.3974,-4.4005,-4.4005,-4.4005,-4.4005,-4.4005,-4.4005,-4.4005,-4.3992,-4.3897,-4.38,-0.3226,-0.4837,-0.4926,-0.5196,-0.573,-0.5673,-0.5619,-0.5556,-0.5436,-0.5347,-0.5281,-0.523,-0.5208,-0.5203,-0.4901,-0.4793,-0.4629,-0.4258,-0.3921,-0.3606,-0.3217,-0.3215,-0.3368,-0.3372,-0.3528,-0.3765,-0.3657,-0.3891,-0.4316,-0.4124,-0.4516,-0.555,-0.6167,-0.7169,-0.8461,-0.8689,-1.0538,-1.3942,-1.3967,-1.5078,-1.7647,-2.4466,-2.9606,-3.2706,-3.7046,-3.9563,-3.9842,-3.9388,-3.8997,-3.8751,-3.8291,-3.8023,-3.795,-3.7929,-3.753,-3.6645,-3.5936,-3.4948,-3.3559,-3.2803,-3.2821,-3.3762,-3.3956,-3.4116,-3.4369,-3.4875,-3.5338,-3.5783,-3.5905,-3.6079,-3.6182,-3.6251,-3.6276,-3.6301,-3.6284,-3.6284,-3.6284,-3.6385,-3.7134,-3.8694,-3.921,-3.9958,-4.1411,-4.1892,-4.2061,-4.1987,-4.2157,-4.2369,-4.257,-4.2938,-4.3196,-4.3105,-4.3232,-4.3268,-4.3214,-4.3305,-4.3411,-4.3479,-4.3566,-4.3634,-4.3771,-4.3869,-4.3929,-4.3974,-4.4005,-4.4005,-4.4005,-4.4005,-4.4005,-4.4005,-4.4005,-4.4005,-4.4005,-4.3942,-4.3883,-0.242,-0.3941,-0.4208,-0.4835,-0.5733,-0.5733,-0.5733,-0.5725,-0.5632,-0.5454,-0.545,-0.5398,-0.5368,-0.5277,-0.5028,-0.4745,-0.4484,-0.4234,-0.3872,-0.3553,-0.3459,-0.353,-0.3682,-0.3917,-0.4075,-0.4086,-0.4174,-0.4327,-0.4641,-0.4811,-0.5201,-0.6025,-0.7019,-0.8286,-0.9956,-1.0387,-1.3184,-1.8102,-1.9163,-1.9844,-2.0676,-2.7658,-3.2313,-3.4661,-3.8095,-4.0255,-4.0573,-4.0079,-3.9645,-3.9257,-3.87,-3.8348,-3.8233,-3.8236,-3.7683,-3.6659,-3.6351,-3.5304,-3.3417,-3.3049,-3.3265,-3.3786,-3.4018,-3.4134,-3.4399,-3.5055,-3.556,-3.5728,-3.5993,-3.6208,-3.6251,-3.6276,-3.6284,-3.6284,-3.6284,-3.6284,-3.6343,-3.6444,-3.7193,-3.8676,-3.9076,-3.9781,-4.1148,-4.1736,-4.1927,-4.2115,-4.2341,-4.2526,-4.2609,-4.2706,-4.2822,-4.29,-4.3031,-4.316,-4.3214,-4.3322,-4.3428,-4.3479,-4.36,-4.3667,-4.3804,-4.3851,-4.391,-4.4005,-4.4005,-4.4005,-4.4005,-4.4005,-4.4005,-4.4005,-4.4005,-4.4005,-4.4005,-4.3974,-4.3897,-0.2062,-0.3045,-0.3851,-0.4837,-0.5644,-0.5733,-0.5733,-0.5733,-0.5719,-0.5531,-0.5401,-0.5381,-0.5296,-0.5037,-0.478,-0.4603,-0.4342,-0.4089,-0.3804,-0.3714,-0.4112,-0.4384,-0.4631,-0.4779,-0.4927,-0.4951,-0.506,-0.5223,-0.5491,-0.5677,-0.6314,-0.7192,-0.748,-0.9935,-1.4053,-1.4532,-1.7109,-2.2306,-2.6009,-2.8564,-2.994,-3.0917,-3.3786,-3.8798,-3.9316,-3.9808,-4.017,-4.0103,-4.0019,-3.9969,-3.9868,-3.9682,-3.9287,-3.9106,-3.8569,-3.754,-3.6769,-3.5477,-3.363,-3.3357,-3.3365,-3.345,-3.3491,-3.3748,-3.4333,-3.461,-3.4927,-3.5362,-3.5871,-3.6191,-3.6259,-3.6301,-3.6284,-3.6284,-3.6284,-3.6343,-3.6461,-3.6602,-3.7317,-3.8901,-3.9168,-3.9841,-4.1183,-4.1744,-4.203,-4.2222,-4.2422,-4.2526,-4.2609,-4.2706,-4.284,-4.2918,-4.3068,-4.3178,-4.3214,-4.3393,-4.3444,-4.3532,-4.3634,-4.3753,-4.3837,-4.3915,-4.4005,-4.4005,-4.4005,-4.4005,-4.4005,-4.4005,-4.4005,-4.4055,-4.4036,-4.4005,-4.4005,-4.4005,-4.3992,-0.1166,-0.2061,-0.242,-0.3492,-0.4837,-0.5463,-0.5733,-0.5733,-0.5552,-0.5463,-0.5364,-0.5269,-0.5145,-0.4966,-0.4737,-0.4706,-0.5034,-0.4763,-0.4797,-0.512,-0.5235,-0.5378,-0.5624,-0.5375,-0.5534,-0.595,-0.5667,-0.5785,-0.6479,-0.6973,-0.7386,-0.7791,-0.847,-1.1076,-1.4935,-1.5605,-1.9318,-2.6291,-2.8159,-3.1073,-3.4963,-3.5521,-3.6809,-3.9226,-3.9782,-3.998,-4.0187,-4.0188,-4.0086,-3.9833,-3.9816,-3.9598,-3.9093,-3.8985,-3.8634,-3.7796,-3.6636,-3.5385,-3.4164,-3.3774,-3.3417,-3.2989,-3.3102,-3.3382,-3.3642,-3.4018,-3.4415,-3.4658,-3.5362,-3.5871,-3.5898,-3.6114,-3.6284,-3.6284,-3.6284,-3.6343,-3.6502,-3.6602,-3.7178,-3.8297,-3.894,-3.9691,-4.0795,-4.1626,-4.2086,-4.2287,-4.2427,-4.2588,-4.2609,-4.2727,-4.288,-4.3012,-4.3142,-4.3214,-4.3214,-4.3375,-4.3497,-4.3566,-4.3686,-4.3804,-4.3851,-4.3929,-4.4005,-4.4005,-4.4005,-4.4005,-4.4005,-4.4085,-4.4135,-4.4135,-4.4165,-4.4177,-4.4135,-4.4135,-4.4055,-0.0359,-0.0987,-0.1256,-0.2419,-0.3941,-0.4926,-0.5285,-0.5282,-0.5371,-0.5282,-0.5193,-0.5013,-0.4832,-0.4823,-0.4581,-0.4812,-0.5142,-0.4959,-0.5244,-0.5826,-0.588,-0.6111,-0.6443,-0.6357,-0.6436,-0.6795,-0.658,-0.6853,-0.7648,-0.788,-0.8161,-0.847,-0.9387,-1.2304,-1.6598,-1.761,-2.206,-2.978,-3.0689,-3.3268,-3.7655,-3.8372,-3.8815,-3.9628,-3.9849,-3.9969,-4.0037,-3.9935,-3.9732,-3.9413,-3.9379,-3.9137,-3.8635,-3.8407,-3.8014,-3.7401,-3.656,-3.5685,-3.4976,-3.4523,-3.397,-3.3146,-3.3255,-3.33,-3.3303,-3.3607,-3.3864,-3.3949,-3.469,-3.5224,-3.5436,-3.5705,-3.5985,-3.6071,-3.6156,-3.6301,-3.652,-3.6643,-3.7062,-3.7918,-3.8807,-3.9768,-4.0817,-4.1658,-4.2163,-4.2287,-4.249,-4.2609,-4.2649,-4.2747,-4.2938,-4.3104,-4.3142,-4.3214,-4.3251,-4.3393,-4.3532,-4.3582,-4.3701,-4.3837,-4.3865,-4.3961,-4.4005,-4.4005,-4.4005,-4.4055,-4.4085,-4.4153,-4.4214,-4.4244,-4.4274,-4.4285,-4.4226,-4.4244,-4.4165,0.0,-0.018,-0.1077,-0.2061,-0.3045,-0.403,-0.4208,-0.4208,-0.4924,-0.5107,-0.475,-0.475,-0.4569,-0.4389,-0.4648,-0.4561,-0.4457,-0.4463,-0.4853,-0.5526,-0.5936,-0.6287,-0.6854,-0.76,-0.7698,-0.7329,-0.7889,-0.8447,-0.8796,-0.8347,-0.8694,-0.9765,-1.0101,-1.3956,-2.0279,-2.154,-2.5944,-3.3183,-3.4412,-3.6012,-3.8014,-3.8302,-3.8841,-3.9817,-3.9662,-3.9435,-3.9418,-3.9061,-3.8854,-3.8854,-3.8809,-3.858,-3.8076,-3.7342,-3.6685,-3.6178,-3.6616,-3.664,-3.6017,-3.5814,-3.5279,-3.4234,-3.3975,-3.3826,-3.3435,-3.3361,-3.3398,-3.3346,-3.3899,-3.4366,-3.4721,-3.5052,-3.5299,-3.5633,-3.582,-3.6114,-3.6602,-3.6667,-3.7178,-3.7947,-3.8778,-3.9958,-4.1573,-4.2019,-4.2163,-4.2328,-4.249,-4.2609,-4.2649,-4.2786,-4.2938,-4.3068,-4.316,-4.3249,-4.3358,-4.3428,-4.3513,-4.3615,-4.3753,-4.3837,-4.3915,-4.3961,-4.3992,-4.4005,-4.4005,-4.4055,-4.4135,-4.4214,-4.4274,-4.4304,-4.4314,-4.4314,-4.4314,-4.4285,-4.4255,0.0539,-0.018,-0.1704,-0.2241,-0.2152,-0.3582,-0.4119,-0.3939,-0.4115,-0.4478,-0.4659,-0.4569,-0.4389,-0.43,-0.4926,-0.5369,-0.5628,-0.5588,-0.6274,-0.732,-0.7617,-0.7673,-0.767,-0.7752,-0.81,-0.8459,-0.8249,-0.8475,-0.9141,-0.8975,-0.9301,-1.0542,-1.2925,-1.6917,-2.1505,-2.4389,-2.857,-3.3846,-3.4714,-3.5681,-3.7364,-3.7628,-3.8179,-3.9016,-3.9044,-3.9061,-3.9135,-3.899,-3.8788,-3.8496,-3.8105,-3.7585,-3.7047,-3.6722,-3.6394,-3.6211,-3.6769,-3.6792,-3.6154,-3.6119,-3.5781,-3.4904,-3.4455,-3.4178,-3.3927,-3.3572,-3.3293,-3.3346,-3.3555,-3.3781,-3.4034,-3.461,-3.5068,-3.5316,-3.5391,-3.5705,-3.6156,-3.6343,-3.6631,-3.7434,-3.8584,-4.0017,-4.1097,-4.1843,-4.2269,-4.2405,-4.2548,-4.2627,-4.2745,-4.2842,-4.2975,-4.3105,-4.3196,-4.325,-4.3444,-4.3463,-4.3513,-4.3667,-4.3786,-4.3851,-4.3929,-4.3992,-4.4005,-4.4036,-4.4036,-4.4116,-4.4214,-4.4285,-4.4344,-4.4373,-4.4401,-4.4373,-4.4373,-4.4373,-4.4344,0.1077,0.0269,-0.1256,-0.1793,-0.1614,-0.3045,-0.3758,-0.3848,-0.3937,-0.4208,-0.4478,-0.4389,-0.4297,-0.4389,-0.4835,-0.5458,-0.6077,-0.634,-0.7051,-0.8208,-0.8204,-0.8292,-0.838,-0.8372,-0.8719,-0.9226,-0.8599,-0.875,-0.9634,-0.9441,-0.9916,-1.1206,-1.4791,-1.8458,-2.2152,-2.5612,-2.9559,-3.3265,-3.4466,-3.5421,-3.6836,-3.7134,-3.7423,-3.7841,-3.7806,-3.7937,-3.8318,-3.8019,-3.7687,-3.7359,-3.691,-3.6393,-3.5839,-3.614,-3.6258,-3.607,-3.6815,-3.7081,-3.6629,-3.6609,-3.6321,-3.5606,-3.5007,-3.4627,-3.4345,-3.3752,-3.343,-3.3398,-3.3503,-3.3555,-3.3745,-3.4218,-3.4738,-3.4944,-3.5038,-3.5283,-3.5793,-3.5941,-3.6404,-3.726,-3.8257,-3.9517,-4.0748,-4.1492,-4.2024,-4.2432,-4.2566,-4.2649,-4.2783,-4.2862,-4.2975,-4.316,-4.3178,-4.3322,-4.3444,-4.3513,-4.36,-4.3719,-4.3818,-4.3897,-4.3942,-4.3974,-4.4023,-4.4055,-4.4116,-4.4195,-4.4285,-4.4354,-4.4411,-4.4468,-4.4487,-4.4458,-4.444,-4.4411,-4.4383,0.1436,0.1166,0.0359,-0.0628,-0.1435,-0.2329,-0.2955,-0.358,-0.4297,-0.4391,-0.43,-0.4297,-0.4297,-0.43,-0.4478,-0.4835,-0.5458,-0.6169,-0.6782,-0.7489,-0.7665,-0.8113,-0.8648,-0.9598,-0.9836,-0.9548,-0.9289,-0.9673,-1.0557,-0.9906,-1.0426,-1.2622,-1.5564,-1.9043,-2.2593,-2.5839,-2.9435,-3.2973,-3.4505,-3.5559,-3.6783,-3.6794,-3.6765,-3.6722,-3.5993,-3.6056,-3.7008,-3.6119,-3.5713,-3.5581,-3.5507,-3.5087,-3.4729,-3.5594,-3.6117,-3.58,-3.6693,-3.7405,-3.7449,-3.7401,-3.7069,-3.6453,-3.5786,-3.5086,-3.4524,-3.39,-3.3523,-3.3503,-3.3607,-3.3761,-3.3848,-3.3984,-3.4151,-3.4448,-3.4658,-3.4958,-3.5328,-3.5677,-3.6302,-3.7324,-3.7882,-3.8819,-4.0294,-4.0961,-4.1345,-4.2065,-4.2436,-4.2591,-4.2765,-4.2862,-4.2994,-4.3141,-4.3251,-4.334,-4.3463,-4.3566,-4.3686,-4.3771,-4.3851,-4.3897,-4.3961,-4.4005,-4.4055,-4.4104,-4.4195,-4.4255,-4.4344,-4.4411,-4.444,-4.4496,-4.4515,-4.4487,-4.4468,-4.4468,-4.4458,0.2062,0.1345,0.0358,-0.0448,-0.1256,-0.2151,-0.2865,-0.3314,-0.3585,-0.3941,-0.421,-0.4297,-0.4297,-0.4389,-0.4835,-0.5193,-0.546,-0.6077,-0.6517,-0.6956,-0.8364,-0.889,-0.8973,-0.9937,-1.0206,-0.9785,-0.9945,-1.0284,-1.0499,-1.0286,-1.1031,-1.3195,-1.7803,-2.0921,-2.2784,-2.7794,-3.1903,-3.355,-3.4223,-3.4913,-3.5862,-3.6135,-3.5993,-3.5597,-3.4963,-3.4817,-3.513,-3.5305,-3.5379,-3.5374,-3.506,-3.4558,-3.4214,-3.5126,-3.5721,-3.5593,-3.6708,-3.748,-3.748,-3.748,-3.7385,-3.6975,-3.6178,-3.5514,-3.5138,-3.4233,-3.3674,-3.3658,-3.3745,-3.3848,-3.3899,-3.4,-3.4101,-3.4201,-3.4382,-3.4658,-3.5068,-3.5509,-3.607,-3.6543,-3.712,-3.7827,-3.8674,-3.9448,-4.0574,-4.1345,-4.1872,-4.2333,-4.2747,-4.2862,-4.3049,-4.3196,-4.3287,-4.3305,-4.3394,-4.3516,-4.3652,-4.3719,-4.3767,-4.3929,-4.3992,-4.4055,-4.4104,-4.4195,-4.4285,-4.4344,-4.443,-4.4487,-4.4468,-4.4496,-4.4515,-4.4496,-4.4496,-4.4487,-4.4487,0.2867,0.1883,0.0896,-0.009,-0.1075,-0.1702,-0.215,-0.2597,-0.2597,-0.2776,-0.3223,-0.3582,-0.3762,-0.3941,-0.4656,-0.5015,-0.5104,-0.5725,-0.5988,-0.6343,-0.8013,-0.8711,-0.8619,-0.9763,-1.0348,-1.0208,-1.0479,-1.08,-1.1093,-1.1011,-1.1842,-1.4271,-1.9382,-2.2389,-2.3372,-2.8802,-3.2598,-3.3512,-3.3673,-3.425,-3.5195,-3.5266,-3.4993,-3.4728,-3.4206,-3.3934,-3.4002,-3.4423,-3.4698,-3.4733,-3.4455,-3.4143,-3.3854,-3.4758,-3.535,-3.5464,-3.6243,-3.7013,-3.7194,-3.7254,-3.7389,-3.7345,-3.6419,-3.5705,-3.547,-3.4498,-3.3797,-3.3797,-3.3899,-3.3984,-3.405,-3.4101,-3.4217,-3.4267,-3.4284,-3.448,-3.4849,-3.5207,-3.5554,-3.5912,-3.6395,-3.693,-3.7741,-3.8634,-3.98,-4.057,-4.1343,-4.1941,-4.2338,-4.2476,-4.2673,-4.2882,-4.3014,-4.3123,-4.3269,-4.3431,-4.3618,-4.3667,-4.3682,-4.3846,-4.4005,-4.4085,-4.4153,-4.4285,-4.4373,-4.4401,-4.4487,-4.4487,-4.4496,-4.4496,-4.4496,-4.4496,-4.4496,-4.4496,-4.4487,0.3762,0.2868,0.1882,0.0448,-0.0895,-0.0896,-0.1165,-0.17,-0.161,-0.161,-0.1879,-0.2686,-0.3045,-0.3226,-0.4119,-0.4389,-0.4478,-0.5013,-0.5458,-0.5899,-0.7044,-0.7921,-0.8536,-0.9937,-1.0675,-1.084,-1.0713,-1.1016,-1.1554,-1.1646,-1.2956,-1.5643,-2.0,-2.2914,-2.4433,-2.8941,-3.2111,-3.2934,-3.303,-3.3778,-3.5171,-3.4281,-3.3851,-3.4002,-3.3563,-3.3297,-3.3452,-3.366,-3.3744,-3.3689,-3.3937,-3.3973,-3.4023,-3.4537,-3.5008,-3.5008,-3.5544,-3.6228,-3.6723,-3.6906,-3.7163,-3.7515,-3.6572,-3.5808,-3.563,-3.4703,-3.3935,-3.3933,-3.405,-3.4151,-3.425,-3.43,-3.4349,-3.4448,-3.4399,-3.4497,-3.4643,-3.4787,-3.5102,-3.5498,-3.5711,-3.6137,-3.7198,-3.8088,-3.8964,-3.9914,-4.0674,-4.1253,-4.1796,-4.2015,-4.2132,-4.235,-4.2619,-4.2808,-4.2936,-4.3068,-4.3232,-4.3286,-4.3373,-4.3579,-4.3923,-4.4055,-4.4195,-4.4344,-4.4411,-4.4487,-4.4515,-4.4515,-4.4496,-4.4542,-4.4542,-4.4496,-4.4496,-4.4524,-4.4496,0.3937,0.2867,0.215,0.0896,-0.0627,-0.0538,-0.0806,-0.1431,-0.1431,-0.17,-0.2417,-0.2776,-0.3224,-0.3941,-0.4119,-0.4297,-0.4389,-0.4478,-0.4924,-0.5633,-0.7031,-0.8956,-1.0534,-1.1483,-1.1539,-1.1105,-1.0983,-1.0959,-1.1151,-1.1939,-1.377,-1.7004,-2.0763,-2.3562,-2.5601,-2.9316,-3.1477,-3.2113,-3.2619,-3.3183,-3.3893,-3.3391,-3.3143,-3.3423,-3.2832,-3.2789,-3.3241,-3.3605,-3.3856,-3.3954,-3.4034,-3.4016,-3.4037,-3.4647,-3.5023,-3.5023,-3.5464,-3.5928,-3.6228,-3.6646,-3.6966,-3.7037,-3.6428,-3.5941,-3.5883,-3.4755,-3.4198,-3.4151,-3.425,-3.43,-3.4415,-3.4448,-3.4497,-3.4594,-3.4594,-3.4643,-3.4804,-3.4947,-3.5088,-3.5211,-3.5367,-3.5729,-3.618,-3.6894,-3.7775,-3.8794,-3.9708,-4.0537,-4.1103,-4.1666,-4.1768,-4.2015,-4.2274,-4.2418,-4.2537,-4.2675,-4.279,-4.2846,-4.294,-4.3195,-4.3575,-4.3955,-4.4158,-4.4383,-4.444,-4.4487,-4.4515,-4.4496,-4.4542,-4.457,-4.4578,-4.4578,-4.4578,-4.4578,-4.4524,0.4474,0.3133,0.2864,0.17,0.0179,0.0179,0.009,-0.0269,-0.0627,-0.1075,-0.1792,-0.2598,-0.3224,-0.3673,-0.4119,-0.4297,-0.4297,-0.4297,-0.4746,-0.5633,-0.7383,-0.9653,-1.1574,-1.2266,-1.1842,-1.1324,-1.1439,-1.145,-1.184,-1.3375,-1.5781,-1.8384,-2.2048,-2.4602,-2.5891,-2.92,-3.1252,-3.1708,-3.2214,-3.2736,-3.3198,-3.255,-3.2205,-3.2318,-3.2087,-3.239,-3.3002,-3.3312,-3.3494,-3.369,-3.3925,-3.4113,-3.3811,-3.4438,-3.4787,-3.4721,-3.5103,-3.5365,-3.5785,-3.6337,-3.6845,-3.6911,-3.6494,-3.6222,-3.5942,-3.4994,-3.425,-3.4349,-3.4399,-3.4448,-3.4546,-3.4643,-3.4691,-3.4851,-3.4851,-3.4883,-3.4994,-3.5041,-3.5135,-3.5182,-3.5291,-3.54,-3.5508,-3.6177,-3.6932,-3.782,-3.879,-3.9686,-4.0446,-4.1004,-4.1498,-4.1728,-4.1841,-4.1977,-4.2187,-4.2391,-4.2338,-4.2378,-4.2714,-4.2922,-4.3353,-4.3823,-4.4188,-4.443,-4.4458,-4.4496,-4.4496,-4.4496,-4.4551,-4.4578,-4.4605,-4.4632,-4.4605,-4.4587,-4.4578,0.5272,0.3842,0.3578,0.2685,0.1345,0.1166,0.1076,0.1166,0.0448,0.0,-0.0448,-0.1881,-0.2418,-0.2776,-0.3582,-0.4121,-0.4119,-0.4389,-0.5188,-0.6422,-0.8261,-1.0443,-1.2186,-1.202,-1.1741,-1.1503,-1.208,-1.206,-1.2593,-1.554,-1.7985,-1.9827,-2.3579,-2.5791,-2.6856,-2.9098,-3.0606,-3.126,-3.1483,-3.1917,-3.216,-3.1623,-3.1119,-3.1328,-3.1856,-3.2304,-3.2618,-3.2775,-3.2759,-3.2753,-3.3633,-3.3675,-3.3297,-3.3965,-3.4346,-3.4399,-3.4534,-3.4773,-3.527,-3.5897,-3.6523,-3.6823,-3.6485,-3.6265,-3.5979,-3.5029,-3.4382,-3.4497,-3.4497,-3.4594,-3.4739,-3.4851,-3.4994,-3.5105,-3.5105,-3.5088,-3.5152,-3.5152,-3.5198,-3.5291,-3.5446,-3.5492,-3.5706,-3.6151,-3.6751,-3.7177,-3.8057,-3.8807,-3.9593,-4.0215,-4.0851,-4.136,-4.1492,-4.1541,-4.1807,-4.2065,-4.197,-4.1917,-4.2458,-4.281,-4.3248,-4.3707,-4.4188,-4.443,-4.4487,-4.4496,-4.4496,-4.4524,-4.4578,-4.4632,-4.464,-4.4659,-4.4651,-4.4632,-4.4605,0.6148,0.5606,0.3842,0.2686,0.2151,0.1614,0.1346,0.1436,0.1166,0.0628,0.0,-0.0538,-0.1164,-0.179,-0.2776,-0.3224,-0.3403,-0.4476,-0.616,-0.8261,-0.9923,-1.1316,-1.2363,-1.202,-1.1746,-1.1723,-1.1766,-1.1708,-1.2445,-1.5463,-1.8417,-2.0878,-2.3907,-2.6626,-2.8059,-2.881,-2.9796,-3.0165,-3.0256,-3.0839,-3.1309,-3.0506,-3.0139,-3.082,-3.1636,-3.2232,-3.2618,-3.269,-3.2259,-3.1809,-3.2101,-3.2646,-3.3,-3.3368,-3.3756,-3.4182,-3.4414,-3.4549,-3.4935,-3.5494,-3.5913,-3.6168,-3.6079,-3.5824,-3.5786,-3.4998,-3.4595,-3.4626,-3.4643,-3.4804,-3.4947,-3.5135,-3.5198,-3.5245,-3.5245,-3.5291,-3.5383,-3.54,-3.54,-3.5475,-3.5503,-3.5594,-3.5594,-3.5712,-3.6197,-3.67,-3.7288,-3.7976,-3.8713,-3.9422,-4.0195,-4.0836,-4.1151,-4.1279,-4.1506,-4.1771,-4.1841,-4.1831,-4.2297,-4.281,-4.3248,-4.3542,-4.4017,-4.4325,-4.4487,-4.4496,-4.4496,-4.4496,-4.4551,-4.4632,-4.4667,-4.4685,-4.4659,-4.4659,-4.4632,0.7288,0.6577,0.5343,0.4283,0.34,0.2952,0.2508,0.2061,0.1612,0.0896,0.0,-0.0448,-0.0985,-0.1431,-0.1969,-0.2148,-0.2506,-0.358,-0.5706,-0.7899,-0.9392,-1.0702,-1.2528,-1.2583,-1.2469,-1.2613,-1.2836,-1.2815,-1.3855,-1.6297,-1.9479,-2.1771,-2.4659,-2.6679,-2.8169,-2.8669,-2.9247,-2.9792,-2.9713,-3.0064,-3.0563,-2.9768,-2.9691,-3.067,-3.1341,-3.1723,-3.2087,-3.2101,-3.1502,-3.0771,-3.0784,-3.1381,-3.2141,-3.2818,-3.3367,-3.3742,-3.4332,-3.4549,-3.4817,-3.535,-3.5713,-3.5472,-3.5537,-3.5522,-3.5337,-3.4837,-3.4757,-3.4835,-3.4883,-3.4977,-3.5135,-3.5228,-3.5291,-3.54,-3.5383,-3.5429,-3.5503,-3.552,-3.5537,-3.5566,-3.5594,-3.5594,-3.5639,-3.5639,-3.5707,-3.618,-3.6842,-3.7495,-3.7979,-3.8768,-3.9585,-4.0259,-4.0716,-4.0995,-4.1226,-4.1453,-4.1762,-4.1899,-4.2257,-4.281,-4.3353,-4.3594,-4.386,-4.4079,-4.4335,-4.4468,-4.4496,-4.4496,-4.4496,-4.4605,-4.464,-4.4659,-4.4621,-4.4557,-4.4522,0.8869,0.772,0.7281,0.6139,0.4819,0.4376,0.3755,0.3044,0.2234,0.1698,0.0627,-0.0358,-0.0268,-0.0715,-0.1074,-0.1253,-0.2147,-0.3042,-0.5354,-0.7379,-0.8507,-1.0159,-1.2151,-1.3237,-1.4158,-1.4307,-1.436,-1.4584,-1.5342,-1.8001,-2.0288,-2.2496,-2.4992,-2.6785,-2.7746,-2.8109,-2.8651,-2.9446,-2.9247,-2.9417,-2.9885,-2.9316,-2.9549,-3.067,-3.0758,-3.1132,-3.1429,-3.1429,-3.0859,-2.9856,-2.9779,-3.0203,-3.1044,-3.2132,-3.3283,-3.3437,-3.4332,-3.4683,-3.4883,-3.535,-3.5495,-3.4985,-3.5256,-3.5308,-3.4942,-3.4785,-3.4758,-3.4899,-3.5041,-3.5198,-3.5308,-3.5383,-3.5429,-3.5475,-3.552,-3.5549,-3.5594,-3.5549,-3.5549,-3.5594,-3.5594,-3.5639,-3.5639,-3.5639,-3.5639,-3.5723,-3.6384,-3.6951,-3.7479,-3.8048,-3.8929,-3.9701,-4.0238,-4.0827,-4.1111,-4.1356,-4.1622,-4.1743,-4.2121,-4.2526,-4.3086,-4.3283,-4.3458,-4.3905,-4.414,-4.4229,-4.4258,-4.4218,-4.4258,-4.4477,-4.4503,-4.4419,-4.4428,-4.4436,-4.425,1.1214,1.0356,0.807,0.6929,0.6404,0.4994,0.4376,0.4109,0.384,0.3751,0.3396,0.2594,0.2058,0.179,0.0358,-0.1253,-0.2679,-0.3933,-0.5361,-0.7031,-0.8507,-1.058,-1.1935,-1.4337,-1.5898,-1.6686,-1.6242,-1.5355,-1.567,-1.8215,-2.0705,-2.2187,-2.4722,-2.6717,-2.7478,-2.774,-2.8147,-2.8798,-2.8421,-2.8525,-2.8991,-2.8791,-2.9094,-3.0519,-3.0456,-3.0696,-3.1145,-3.0983,-3.0482,-2.9869,-2.9779,-3.0203,-3.0983,-3.1915,-3.2946,-3.3962,-3.4549,-3.4831,-3.5082,-3.5198,-3.5464,-3.5374,-3.5139,-3.4887,-3.4762,-3.4635,-3.4546,-3.4756,-3.5088,-3.5429,-3.5429,-3.552,-3.5549,-3.5577,-3.5577,-3.5594,-3.5577,-3.5577,-3.5577,-3.5639,-3.5639,-3.5639,-3.5639,-3.5639,-3.5639,-3.5667,-3.6038,-3.6553,-3.7,-3.758,-3.8281,-3.9038,-3.976,-4.0429,-4.1041,-4.1303,-4.1525,-4.1481,-4.1722,-4.189,-4.2375,-4.2698,-4.2996,-4.3067,-4.343,-4.3684,-4.3721,-4.373,-4.3701,-4.3658,-4.3857,-4.4074,-4.3774,-4.3472,-4.3198,1.2345,1.1649,0.9995,0.9039,0.8337,0.7115,0.6145,0.5697,0.5267,0.4734,0.4289,0.3846,0.3669,0.34,0.2772,0.0714,-0.1695,-0.3487,-0.4912,-0.6675,-0.8674,-1.0484,-1.1838,-1.4747,-1.6437,-1.7354,-1.7337,-1.7247,-1.7054,-1.8946,-2.0966,-2.2643,-2.4693,-2.6258,-2.731,-2.7638,-2.7944,-2.8317,-2.8124,-2.8105,-2.8863,-2.8339,-2.9015,-2.9781,-3.0152,-3.0304,-3.0696,-3.0771,-3.0343,-2.9934,-2.9869,-3.0558,-3.1415,-3.2146,-3.2889,-3.3948,-3.4668,-3.503,-3.5213,-3.5314,-3.5424,-3.5178,-3.488,-3.4685,-3.4573,-3.4386,-3.4315,-3.4659,-3.5165,-3.5549,-3.5549,-3.5594,-3.5594,-3.5639,-3.5639,-3.5639,-3.5622,-3.5639,-3.5639,-3.5639,-3.5639,-3.5639,-3.5639,-3.5639,-3.5639,-3.5711,-3.5844,-3.6188,-3.659,-3.7144,-3.7723,-3.8363,-3.9088,-3.9708,-4.0339,-4.0726,-4.1007,-4.1051,-4.118,-4.135,-4.1434,-4.1669,-4.1722,-4.1699,-4.2205,-4.2862,-4.2956,-4.2918,-4.2897,-4.2823,-4.2824,-4.2791,-4.2651,-4.2471,-4.2262,1.3372,1.2504,1.1832,1.0966,1.0101,0.9144,0.8352,0.7639,0.6943,0.6151,0.5176,0.4996,0.4821,0.4465,0.366,0.214,-0.0089,-0.2057,-0.4109,-0.6142,-0.8325,-1.0048,-1.1929,-1.4497,-1.678,-1.7599,-1.8533,-1.9314,-1.8982,-1.9956,-2.1332,-2.274,-2.4284,-2.5786,-2.6946,-2.7367,-2.7991,-2.8113,-2.8087,-2.8167,-2.8433,-2.8407,-2.8712,-2.9561,-2.9768,-2.9922,-3.0393,-3.033,-3.0279,-2.9998,-3.0152,-3.0784,-3.2074,-3.2591,-3.3087,-3.3865,-3.4721,-3.5148,-3.5409,-3.5524,-3.5507,-3.5334,-3.4877,-3.4716,-3.4695,-3.4558,-3.4333,-3.4883,-3.535,-3.5711,-3.5711,-3.5711,-3.5711,-3.5667,-3.5667,-3.5622,-3.5622,-3.5622,-3.5622,-3.5639,-3.5639,-3.5639,-3.5639,-3.5639,-3.5639,-3.5667,-3.5844,-3.5932,-3.6344,-3.6724,-3.7275,-3.7784,-3.8348,-3.8921,-3.9469,-3.9948,-4.0139,-4.0235,-4.0387,-4.0595,-4.0544,-4.0527,-4.058,-4.0691,-4.1252,-4.1869,-4.1967,-4.1971,-4.1875,-4.1765,-4.163,-4.1613,-4.1715,-4.1665,-4.1511,1.465,1.3476,1.2595,1.1735,1.1058,1.0188,0.9662,0.9483,0.9309,0.8877,0.7738,0.7027,0.6236,0.509,0.2767,0.1249,-0.0268,-0.1968,-0.3669,-0.5349,-0.788,-0.9775,-1.1203,-1.465,-1.6756,-1.8,-1.9207,-1.9174,-1.9649,-2.0836,-2.1718,-2.2784,-2.4413,-2.5779,-2.7106,-2.7144,-2.7126,-2.7447,-2.7351,-2.7431,-2.7936,-2.8191,-2.8712,-2.9263,-2.9496,-2.9561,-3.0037,-3.005,-2.9934,-3.0075,-3.0088,-3.096,-3.2331,-3.2777,-3.3699,-3.4572,-3.5148,-3.5329,-3.5574,-3.5688,-3.5773,-3.5474,-3.4986,-3.474,-3.4745,-3.4953,-3.4991,-3.5577,-3.5861,-3.5888,-3.5888,-3.5932,-3.5932,-3.5888,-3.58,-3.5756,-3.5756,-3.5667,-3.5667,-3.5639,-3.5639,-3.5639,-3.5639,-3.5639,-3.5622,-3.5711,-3.58,-3.5932,-3.6114,-3.6509,-3.6749,-3.724,-3.7652,-3.8188,-3.8545,-3.9003,-3.9333,-3.9445,-3.9611,-3.9739,-3.9665,-3.9622,-3.9733,-3.9978,-4.045,-4.0507,-4.0402,-4.0418,-4.0648,-4.0668,-4.0541,-4.0698,-4.0926,-4.0847,-4.0682,1.6131,1.4734,1.3542,1.2954,1.2528,1.1316,1.0712,1.0621,1.0096,0.9662,0.9144,0.8265,0.7126,0.5354,0.2677,0.125,0.0268,-0.1788,-0.3662,-0.5252,-0.7785,-0.9871,-1.1742,-1.4726,-1.709,-1.8231,-2.0081,-2.1324,-2.1365,-2.1869,-2.2891,-2.3847,-2.5016,-2.6323,-2.7257,-2.7246,-2.7231,-2.7297,-2.7281,-2.7382,-2.7742,-2.803,-2.8339,-2.8961,-2.904,-2.9263,-2.9586,-2.9844,-2.9894,-3.0049,-3.019,-3.1088,-3.2368,-3.31,-3.3768,-3.5299,-3.5509,-3.5574,-3.5703,-3.5879,-3.5887,-3.5538,-3.4968,-3.4509,-3.4596,-3.507,-3.5362,-3.5453,-3.5783,-3.5975,-3.6019,-3.6036,-3.6036,-3.5975,-3.5932,-3.5844,-3.5817,-3.5773,-3.5728,-3.5684,-3.5639,-3.5639,-3.5639,-3.5639,-3.5622,-3.5667,-3.58,-3.5975,-3.6062,-3.626,-3.6483,-3.6663,-3.7047,-3.7463,-3.7731,-3.8052,-3.8491,-3.8638,-3.8737,-3.8846,-3.8801,-3.8809,-3.8869,-3.8752,-3.8759,-3.8796,-3.8795,-3.9157,-3.9588,-3.9577,-3.9497,-3.9693,-3.9872,-3.977,-3.963,1.7802,1.6445,1.4894,1.4153,1.3815,1.2443,1.1929,1.1837,1.1052,1.0529,1.0009,0.9231,0.783,0.5883,0.3742,0.2139,0.0803,-0.1431,-0.3655,-0.5857,-0.8043,-1.0129,-1.2348,-1.5155,-1.7017,-1.7721,-2.104,-2.232,-2.2952,-2.3711,-2.4651,-2.5175,-2.5657,-2.6643,-2.725,-2.7003,-2.6664,-2.6736,-2.6852,-2.7069,-2.7383,-2.729,-2.7684,-2.8167,-2.8566,-2.8882,-2.9209,-2.9611,-2.9984,-3.0164,-3.042,-3.1264,-3.2722,-3.3227,-3.4056,-3.5285,-3.5752,-3.5831,-3.5879,-3.5961,-3.5829,-3.543,-3.5003,-3.4657,-3.4207,-3.5052,-3.5844,-3.5588,-3.5854,-3.6062,-3.6062,-3.6105,-3.6105,-3.6105,-3.6079,-3.5993,-3.5861,-3.5817,-3.5728,-3.5639,-3.5639,-3.5639,-3.5639,-3.5639,-3.5622,-3.5622,-3.58,-3.5975,-3.6088,-3.6216,-3.631,-3.6473,-3.6651,-3.698,-3.7167,-3.7382,-3.7714,-3.79,-3.7998,-3.8064,-3.8072,-3.7975,-3.7947,-3.7681,-3.7577,-3.7774,-3.8221,-3.8384,-3.8528,-3.8683,-3.8787,-3.8684,-3.8707,-3.8695,-3.8815,1.974,1.8797,1.6519,1.5151,1.4566,1.3815,1.3476,1.33,1.2705,1.1837,1.0971,1.0091,0.8686,0.6926,0.5245,0.3025,0.0178,-0.0983,-0.3476,-0.6125,-0.8491,-1.055,-1.294,-1.5238,-1.7245,-1.8426,-2.1484,-2.3187,-2.4,-2.5787,-2.5871,-2.5448,-2.6059,-2.6581,-2.6569,-2.6086,-2.575,-2.5972,-2.6311,-2.6588,-2.6528,-2.6434,-2.6577,-2.7476,-2.7891,-2.8371,-2.9341,-2.9831,-3.0177,-3.0305,-3.0572,-3.1299,-3.264,-3.3128,-3.3988,-3.5204,-3.58,-3.5943,-3.6133,-3.6212,-3.5999,-3.5692,-3.5331,-3.4897,-3.4431,-3.5453,-3.6036,-3.6019,-3.6131,-3.6199,-3.6259,-3.6259,-3.6216,-3.6233,-3.6165,-3.6079,-3.5949,-3.5817,-3.5773,-3.5639,-3.5639,-3.5639,-3.5639,-3.5639,-3.5639,-3.5622,-3.5844,-3.6019,-3.6174,-3.6241,-3.6241,-3.6377,-3.6437,-3.6613,-3.6737,-3.6975,-3.7253,-3.7369,-3.7431,-3.7461,-3.7488,-3.7354,-3.7411,-3.7504,-3.7559,-3.7559,-3.7631,-3.7882,-3.8115,-3.8144,-3.815,-3.8234,-3.83,-3.8428,-3.8554,1.9974,1.9043,1.7098,1.5899,1.5235,1.4146,1.373,1.3561,1.2966,1.2192,1.1235,1.025,0.9196,0.7618,0.4965,0.3285,0.1334,-0.1339,-0.365,-0.611,-0.8541,-1.0958,-1.3348,-1.6024,-1.832,-2.0091,-2.2798,-2.5066,-2.6348,-2.7458,-2.7165,-2.679,-2.6438,-2.6141,-2.5892,-2.5418,-2.5273,-2.5546,-2.6224,-2.6704,-2.6445,-2.6528,-2.6764,-2.7383,-2.7799,-2.845,-2.9328,-2.9831,-3.0152,-3.0394,-3.0635,-3.1582,-3.2602,-3.2903,-3.3879,-3.5219,-3.5608,-3.5943,-3.6352,-3.6415,-3.6151,-3.5394,-3.5,-3.4726,-3.4642,-3.5605,-3.6122,-3.6251,-3.6276,-3.6284,-3.6284,-3.6284,-3.6284,-3.6276,-3.6251,-3.6122,-3.6053,-3.5905,-3.5773,-3.5622,-3.5622,-3.5639,-3.5639,-3.5639,-3.5639,-3.5622,-3.5844,-3.6062,-3.6174,-3.6284,-3.6284,-3.6284,-3.6402,-3.6461,-3.6602,-3.6708,-3.6829,-3.6908,-3.697,-3.7087,-3.722,-3.7297,-3.7354,-3.7449,-3.7541,-3.7559,-3.7577,-3.7613,-3.7703,-3.7862,-3.7915,-3.7949,-3.8052,-3.8168,-3.8234,2.1014,2.011,1.8506,1.7098,1.5974,1.5054,1.4391,1.3977,1.3626,1.2693,1.1666,1.094,1.0058,0.8214,0.5478,0.3009,0.1508,-0.1247,-0.409,-0.6718,-0.9311,-1.1714,-1.4407,-1.7185,-1.9937,-2.1956,-2.4489,-2.6752,-2.6579,-2.8193,-2.7497,-2.6619,-2.6446,-2.576,-2.4883,-2.4876,-2.4974,-2.5297,-2.6185,-2.6869,-2.6528,-2.6279,-2.6857,-2.7313,-2.7637,-2.845,-2.9328,-3.0062,-3.0292,-3.0572,-3.1026,-3.1663,-3.242,-3.3143,-3.398,-3.4935,-3.5688,-3.6022,-3.6415,-3.6286,-3.5939,-3.5225,-3.4631,-3.4546,-3.4911,-3.5543,-3.5958,-3.6301,-3.6284,-3.6284,-3.6284,-3.6284,-3.6284,-3.6301,-3.6251,-3.6122,-3.6036,-3.5905,-3.5756,-3.5622,-3.5622,-3.5639,-3.5639,-3.5639,-3.5639,-3.5684,-3.5905,-3.6062,-3.6191,-3.6259,-3.6284,-3.6284,-3.6343,-3.6444,-3.6502,-3.6626,-3.6766,-3.6869,-3.6948,-3.7009,-3.7126,-3.7203,-3.7281,-3.7396,-3.7433,-3.7523,-3.7559,-3.7577,-3.7595,-3.7685,-3.7721,-3.7792,-3.7792,-3.788,-3.7915,2.3425,2.2648,2.0881,1.8815,1.6878,1.6854,1.6026,1.472,1.4525,1.3769,1.2619,1.2345,1.1552,0.9511,0.6511,0.3965,0.1501,-0.1601,-0.4987,-0.7956,-1.0091,-1.2909,-1.616,-1.9036,-2.1445,-2.3151,-2.5636,-2.6949,-2.5782,-2.7391,-2.6916,-2.5402,-2.4729,-2.4498,-2.3413,-2.4368,-2.4727,-2.4723,-2.5931,-2.634,-2.6351,-2.5673,-2.6174,-2.7069,-2.7302,-2.8028,-2.9341,-3.0126,-3.0444,-3.0862,-3.1514,-3.2364,-3.3224,-3.3984,-3.4879,-3.5846,-3.6274,-3.6507,-3.6615,-3.5748,-3.5284,-3.5109,-3.4599,-3.4349,-3.4738,-3.5299,-3.581,-3.6071,-3.6241,-3.6284,-3.6284,-3.6284,-3.6284,-3.6259,-3.6233,-3.6122,-3.5993,-3.5861,-3.5667,-3.5622,-3.5622,-3.5639,-3.5639,-3.5639,-3.5684,-3.5773,-3.5905,-3.6079,-3.6148,-3.6233,-3.6259,-3.6284,-3.6343,-3.636,-3.6461,-3.6602,-3.6742,-3.6806,-3.6908,-3.697,-3.7031,-3.7108,-3.719,-3.7288,-3.7379,-3.7449,-3.7468,-3.7523,-3.7577,-3.7613,-3.7613,-3.7649,-3.7613,-3.7649,-3.7721,2.3582,2.2733,2.111,1.9681,1.847,1.8035,1.6976,1.544,1.4196,1.3197,1.2784,1.2705,1.2522,1.0555,0.6834,0.386,0.2283,-0.3449,-0.7014,-0.7709,-1.0686,-1.3926,-1.7209,-2.0269,-2.3039,-2.5857,-2.8002,-2.7962,-2.7148,-2.7224,-2.5648,-2.4034,-2.2647,-2.2295,-2.3048,-2.3748,-2.3566,-2.4398,-2.5473,-2.6351,-2.6351,-2.56,-2.5589,-2.7058,-2.7058,-2.7879,-2.9341,-3.005,-3.0672,-3.1312,-3.2125,-3.2777,-3.3599,-3.4355,-3.4868,-3.5612,-3.6024,-3.6137,-3.6146,-3.576,-3.5386,-3.5062,-3.459,-3.4149,-3.4366,-3.5161,-3.5571,-3.5854,-3.6114,-3.6199,-3.6284,-3.6284,-3.6284,-3.6259,-3.6191,-3.6062,-3.5949,-3.5756,-3.5622,-3.5622,-3.5639,-3.5639,-3.5639,-3.5639,-3.5684,-3.5684,-3.5817,-3.5993,-3.6122,-3.6208,-3.6251,-3.6259,-3.6301,-3.6343,-3.6402,-3.6544,-3.6643,-3.6725,-3.6788,-3.6908,-3.697,-3.7031,-3.7108,-3.717,-3.7261,-3.7372,-3.7411,-3.7468,-3.7559,-3.7613,-3.7577,-3.7577,-3.7613,-3.7613,-3.7613,2.4649,2.3582,2.2552,2.1532,2.0566,1.9837,1.8453,1.6676,1.4802,1.3503,1.2863,1.2699,1.1975,0.9904,0.61,0.2441,0.1308,-0.4391,-0.8233,-0.8818,-1.2612,-1.5725,-1.8597,-2.1837,-2.5308,-2.7886,-2.8041,-2.7637,-2.6506,-2.5849,-2.4123,-2.197,-2.0456,-2.1216,-2.2188,-2.2655,-2.3166,-2.4305,-2.5655,-2.6951,-2.6857,-2.6517,-2.6494,-2.7313,-2.7799,-2.8279,-2.925,-3.0114,-3.0947,-3.1844,-3.2523,-3.3223,-3.3948,-3.4648,-3.5126,-3.5788,-3.6182,-3.6383,-3.6507,-3.5754,-3.5489,-3.5355,-3.4425,-3.4011,-3.4084,-3.4658,-3.5207,-3.5571,-3.5881,-3.6114,-3.6241,-3.6241,-3.6259,-3.6216,-3.6131,-3.6019,-3.5905,-3.5711,-3.5622,-3.5622,-3.5639,-3.5639,-3.5639,-3.5639,-3.5639,-3.5639,-3.5684,-3.5861,-3.6036,-3.614,-3.6182,-3.6233,-3.6259,-3.6301,-3.636,-3.6444,-3.6544,-3.6602,-3.6708,-3.6829,-3.6891,-3.6952,-3.7027,-3.7101,-3.7182,-3.7241,-3.7354,-3.7429,-3.7503,-3.754,-3.7594,-3.7594,-3.7577,-3.7577,-3.7577,2.6612,2.5332,2.5276,2.4288,2.2979,2.1845,2.0294,1.8276,1.6742,1.4774,1.2705,1.2705,1.1241,0.8033,0.3808,0.0519,-0.2607,-0.7107,-0.9809,-1.2259,-1.5367,-1.8013,-2.1513,-2.5338,-2.7174,-2.7661,-2.7504,-2.6596,-2.5003,-2.2848,-2.1196,-2.0561,-1.9992,-2.0299,-2.0944,-2.196,-2.2859,-2.4312,-2.5975,-2.7244,-2.7452,-2.7429,-2.7487,-2.7983,-2.8462,-2.8858,-2.9651,-3.0355,-3.1307,-3.2214,-3.3114,-3.4059,-3.4978,-3.5821,-3.6259,-3.6677,-3.6952,-3.71,-3.6805,-3.5789,-3.5236,-3.4889,-3.4042,-3.3834,-3.3882,-3.4234,-3.4738,-3.5207,-3.5526,-3.5881,-3.6156,-3.6174,-3.6174,-3.6088,-3.6062,-3.5932,-3.5817,-3.5728,-3.5639,-3.5639,-3.5639,-3.5639,-3.5639,-3.5639,-3.5639,-3.5639,-3.5639,-3.5667,-3.5844,-3.6053,-3.6096,-3.6165,-3.6233,-3.6259,-3.636,-3.6402,-3.6444,-3.6544,-3.6626,-3.6748,-3.6811,-3.6891,-3.6948,-3.7027,-3.7069,-3.7147,-3.7223,-3.7317,-3.7392,-3.7429,-3.7484,-3.7558,-3.7577,-3.7577,-3.7577,2.6896,2.5983,2.5487,2.4719,2.3672,2.2392,2.0562,1.8355,1.6831,1.4842,1.2705,1.2705,1.0404,0.6557,0.3275,-0.0431,-0.4674,-0.8606,-1.2052,-1.4961,-1.774,-2.1455,-2.4801,-2.747,-2.8345,-2.7984,-2.7191,-2.5292,-2.2232,-1.9807,-1.9054,-1.8704,-1.8939,-1.8985,-1.9709,-2.1043,-2.2635,-2.4235,-2.611,-2.7337,-2.7846,-2.758,-2.7742,-2.7903,-2.8633,-2.8937,-2.916,-3.0266,-3.1442,-3.2946,-3.3507,-3.4467,-3.5785,-3.6291,-3.6676,-3.6982,-3.716,-3.7101,-3.6169,-3.5631,-3.511,-3.4399,-3.3593,-3.3488,-3.3607,-3.3899,-3.4366,-3.4785,-3.5068,-3.5391,-3.5705,-3.5854,-3.5915,-3.5915,-3.5871,-3.58,-3.5667,-3.5667,-3.5622,-3.5639,-3.5639,-3.5639,-3.5639,-3.5639,-3.5639,-3.5639,-3.5622,-3.5622,-3.5711,-3.5861,-3.601,-3.6036,-3.6165,-3.6251,-3.6276,-3.6318,-3.6402,-3.6502,-3.6585,-3.6667,-3.6748,-3.6811,-3.6891,-3.697,-3.7031,-3.7069,-3.7147,-3.7223,-3.7317,-3.7317,-3.7372,-3.7484,-3.7558,-3.754,-3.754,2.7432,2.6667,2.6057,2.4957,2.3704,2.301,2.0908,1.7845,1.6581,1.4842,1.2863,1.2705,0.9662,0.4466,0.1542,-0.223,-0.7826,-1.1117,-1.4321,-1.7235,-2.0029,-2.3727,-2.6993,-2.8519,-2.8217,-2.7538,-2.5629,-2.3043,-2.0469,-1.9002,-1.8141,-1.7997,-1.7844,-1.7853,-1.8691,-2.0589,-2.2551,-2.4202,-2.5809,-2.7243,-2.7763,-2.7822,-2.7822,-2.7834,-2.8554,-2.8688,-2.8821,-3.0254,-3.1476,-3.3045,-3.3673,-3.4551,-3.5854,-3.6491,-3.6935,-3.7194,-3.7298,-3.7148,-3.6532,-3.5742,-3.4984,-3.4225,-3.3577,-3.3324,-3.3414,-3.3607,-3.4034,-3.4415,-3.4561,-3.4738,-3.5115,-3.5436,-3.5588,-3.5694,-3.565,-3.5605,-3.5622,-3.5622,-3.5622,-3.5622,-3.5639,-3.5639,-3.5639,-3.5639,-3.5639,-3.5639,-3.5639,-3.5622,-3.5667,-3.5756,-3.5861,-3.5905,-3.6096,-3.6182,-3.6208,-3.6233,-3.6318,-3.6402,-3.6502,-3.6585,-3.6708,-3.6788,-3.6851,-3.693,-3.7009,-3.7031,-3.7069,-3.7147,-3.7185,-3.7241,-3.7259,-3.7334,-3.741,-3.7447,-3.741,2.8076,2.7259,2.6514,2.4637,2.2944,2.2855,2.042,1.6419,1.5919,1.4712,1.2954,1.2705,0.8614,0.2587,0.0,-0.5406,-1.065,-1.4617,-1.759,-1.9935,-2.3209,-2.6638,-2.8498,-2.8646,-2.821,-2.6132,-2.3626,-2.1316,-2.0303,-1.8844,-1.7755,-1.77,-1.7456,-1.7456,-1.8074,-2.0337,-2.2316,-2.3966,-2.578,-2.7459,-2.8354,-2.8736,-2.8895,-2.8645,-2.8949,-2.9238,-2.9614,-3.0279,-3.0979,-3.2508,-3.363,-3.4455,-3.5626,-3.6627,-3.7055,-3.7254,-3.7405,-3.7227,-3.6722,-3.5947,-3.5394,-3.4715,-3.4083,-3.3514,-3.3346,-3.3398,-3.3745,-3.4267,-3.4513,-3.4738,-3.5115,-3.5253,-3.5362,-3.5453,-3.5498,-3.5515,-3.5605,-3.5622,-3.5622,-3.5639,-3.5639,-3.5639,-3.5639,-3.5639,-3.5639,-3.5639,-3.5639,-3.5639,-3.5622,-3.5694,-3.5677,-3.5756,-3.5905,-3.6096,-3.6165,-3.6191,-3.6276,-3.636,-3.6402,-3.6502,-3.6585,-3.6708,-3.6811,-3.6891,-3.697,-3.697,-3.7009,-3.7087,-3.7126,-3.7126,-3.7182,-3.722,-3.7259,-3.7297,-3.7279,2.8103,2.7232,2.4861,2.2505,2.0348,1.8701,1.7556,1.606,1.4477,1.336,1.2723,1.1872,0.7647,0.0086,-0.1641,-0.7421,-1.6095,-1.832,-2.1746,-2.4482,-2.7281,-2.8314,-3.0955,-2.9259,-2.8165,-2.5835,-2.2945,-1.9912,-1.8899,-1.7846,-1.7342,-1.7529,-1.7131,-1.6812,-1.7708,-2.0093,-2.2033,-2.3827,-2.5821,-2.7562,-2.8706,-2.8657,-2.8498,-2.8791,-2.925,-2.9549,-3.0012,-3.0784,-3.1669,-3.2792,-3.3322,-3.4452,-3.5966,-3.6747,-3.7222,-3.7405,-3.7449,-3.7227,-3.6706,-3.5995,-3.5379,-3.4604,-3.3909,-3.353,-3.3309,-3.3293,-3.3539,-3.4068,-3.4545,-3.4785,-3.4927,-3.4975,-3.5085,-3.5178,-3.5316,-3.547,-3.556,-3.5622,-3.5639,-3.5639,-3.5639,-3.5639,-3.5639,-3.5639,-3.5639,-3.5639,-3.5639,-3.5622,-3.5577,-3.5605,-3.5509,-3.5554,-3.5756,-3.5905,-3.6036,-3.6165,-3.6233,-3.6276,-3.636,-3.6402,-3.6502,-3.6626,-3.6771,-3.6811,-3.6891,-3.693,-3.697,-3.7009,-3.7009,-3.7048,-3.7048,-3.7143,-3.7105,-3.7066,-3.7126,2.9122,2.8076,2.5204,2.1628,1.8355,1.7154,1.6131,1.4803,1.3674,1.1014,0.8195,0.8315,0.4889,-0.3181,-0.532,-1.1272,-2.0675,-2.1799,-2.4524,-2.7759,-2.8596,-2.9205,-2.9561,-2.8492,-2.5819,-2.344,-2.1368,-1.9088,-1.8011,-1.7188,-1.6944,-1.6952,-1.6319,-1.6566,-1.7789,-1.9967,-2.207,-2.4097,-2.6051,-2.7603,-2.8978,-2.8973,-2.8882,-2.9263,-2.9316,-2.9626,-3.0088,-3.0797,-3.1603,-3.2763,-3.3634,-3.4787,-3.606,-3.6927,-3.7358,-3.7464,-3.7401,-3.7164,-3.6548,-3.5963,-3.5315,-3.4541,-3.4029,-3.3792,-3.3324,-3.3293,-3.3346,-3.3832,-3.4399,-3.4738,-3.4415,-3.4333,-3.4626,-3.4818,-3.5102,-3.535,-3.5487,-3.5622,-3.5639,-3.5639,-3.5639,-3.5639,-3.5639,-3.5639,-3.5639,-3.5639,-3.5639,-3.5639,-3.5577,-3.5515,-3.5402,-3.5431,-3.5633,-3.5756,-3.5905,-3.6079,-3.6191,-3.6233,-3.6276,-3.636,-3.6461,-3.6585,-3.6708,-3.6788,-3.6851,-3.6908,-3.6948,-3.697,-3.697,-3.7009,-3.7009,-3.7009,-3.693,-3.6811,-3.6753,2.975,2.8147,2.5537,2.1164,1.6335,1.6629,1.5029,1.2463,1.2254,0.8082,0.1711,0.266,-0.1041,-0.6833,-1.1051,-1.8162,-2.3142,-2.5047,-2.7619,-2.8076,-2.7241,-2.7964,-2.6924,-2.4833,-2.3061,-2.1625,-1.9991,-1.9019,-1.8189,-1.7253,-1.6542,-1.6131,-1.6131,-1.6453,-1.8299,-2.0258,-2.2224,-2.4357,-2.6225,-2.7747,-2.8795,-2.9468,-2.9431,-2.9341,-2.9394,-2.9793,-3.0254,-3.0709,-3.136,-3.2478,-3.3941,-3.5063,-3.6044,-3.6849,-3.731,-3.748,-3.748,-3.7164,-3.6722,-3.6263,-3.5489,-3.481,-3.4471,-3.3981,-3.3451,-3.3398,-3.3398,-3.3642,-3.4218,-3.4415,-3.4084,-3.4134,-3.4431,-3.4691,-3.5024,-3.5258,-3.5441,-3.5639,-3.5639,-3.5639,-3.5639,-3.5639,-3.5639,-3.5639,-3.5639,-3.5639,-3.5639,-3.5639,-3.5577,-3.5498,-3.5419,-3.5448,-3.5554,-3.5677,-3.5705,-3.5905,-3.6079,-3.6191,-3.6233,-3.636,-3.6444,-3.6527,-3.6626,-3.6708,-3.6788,-3.6829,-3.6908,-3.693,-3.693,-3.6891,-3.6811,-3.6713,-3.6632,-3.6509,-3.6301,2.6882,2.2295,2.1628,1.8478,1.4157,1.3902,1.1486,0.7843,0.7611,0.4424,-0.1614,-0.7891,-1.2251,-1.5874,-1.3554,-1.8762,-2.7913,-2.8741,-2.8797,-2.9385,-2.7609,-2.7042,-2.5618,-2.2954,-2.1401,-2.0501,-1.987,-1.9488,-1.8102,-1.713,-1.6378,-1.5733,-1.5409,-1.6139,-1.7585,-1.9715,-2.1954,-2.4281,-2.6267,-2.777,-2.8687,-2.9287,-2.9586,-2.9729,-3.0024,-3.057,-3.111,-3.1495,-3.1909,-3.2792,-3.4022,-3.5057,-3.5905,-3.6726,-3.737,-3.748,-3.748,-3.7306,-3.6911,-3.6279,-3.5473,-3.4952,-3.4439,-3.3666,-3.3461,-3.3642,-3.3591,-3.3503,-3.3933,-3.4317,-3.4234,-3.4658,-3.4991,-3.5055,-3.5274,-3.5396,-3.5577,-3.5577,-3.5639,-3.5639,-3.5639,-3.5639,-3.5639,-3.5639,-3.5639,-3.5639,-3.5639,-3.5577,-3.5441,-3.5407,-3.5283,-3.5273,-3.5284,-3.5357,-3.5228,-3.5633,-3.5861,-3.6019,-3.6148,-3.6174,-3.6216,-3.6444,-3.6544,-3.6626,-3.6626,-3.6667,-3.6748,-3.6673,-3.6713,-3.6673,-3.6509,-3.6385,-3.6326,-3.6097,-3.5793]}]]